GFSGBSN_500_spd_000.txt.gz
Wind_Speed
12 12 9 7 9 5 3 4 6 7 14 16 15 14 12 13 22 31 33 34 31 29 27 26 23 22 20 20 17 19 19 18 16 15 15 14 13 15 17 16 14 13 14 12 11 8 6
13 11 9 7 13 8 5 4 7 11 16 13 13 12 16 27 35 36 35 32 29 27 25 22 20 18 19 19 17 16 14 14 15 13 13 11 12 12 9 7 6 7 8 6 7 6 5
11 12 11 7 17 7 4 4 12 11 14 14 16 25 33 36 36 33 30 27 24 22 19 18 16 16 15 16 15 14 14 13 14 12 12 11 7 6 8 8 7 7 6 3 3 5 4
10 11 9 17 9 7 8 10 13 16 18 24 30 35 36 36 34 30 28 25 21 17 17 17 15 13 12 12 11 12 12 12 11 9 8 7 6 6 5 4 2 0 1 2 2 4 5
12 12 16 12 8 10 14 15 19 24 28 32 36 37 36 33 31 29 27 24 21 20 18 16 14 12 11 10 9 9 8 8 8 6 6 6 6 6 5 5 1 1 1 2 5 4 4
13 15 16 12 10 17 19 22 29 31 32 33 37 35 32 30 28 27 25 23 21 20 18 16 14 13 9 8 8 6 6 5 5 3 2 4 6 6 5 5 2 4 3 4 4 5 4
16 14 13 12 14 22 25 32 34 35 35 36 35 33 31 30 28 25 24 21 19 18 15 14 13 10 8 7 5 3 2 1 2 2 2 2 3 2 4 6 5 5 6 5 4 4 6
19 16 15 15 22 26 32 37 37 35 33 33 32 30 28 27 25 24 22 18 15 13 11 9 7 5 3 4 4 3 2 2 0 3 5 2 1 2 3 4 6 7 8 7 10 8 6
19 16 16 20 26 32 37 39 36 33 31 30 30 28 26 24 23 21 17 15 12 8 4 2 2 2 3 3 5 7 3 3 4 5 6 6 7 6 7 8 10 9 9 9 11 14 11
21 18 19 23 27 37 38 40 36 33 31 31 29 27 25 22 20 18 16 12 11 11 8 6 8 8 8 6 9 6 5 6 4 5 7 9 11 11 11 11 11 14 14 13 15 14 13
21 20 23 26 31 40 40 40 37 33 31 29 26 26 24 22 19 18 17 15 14 14 13 14 14 12 12 12 12 12 9 9 9 8 11 12 14 17 17 15 15 17 18 17 17 16 15
22 24 26 29 35 42 41 41 37 34 32 28 26 23 23 21 20 19 19 18 17 18 21 19 18 17 15 15 14 13 13 13 14 13 14 16 17 19 20 19 18 19 20 19 18 18 18
24 25 27 30 38 43 43 42 39 37 34 31 29 26 24 22 23 22 21 21 22 24 22 22 21 20 17 15 14 13 12 14 17 19 20 20 20 21 21 22 20 20 20 18 17 19 22
26 27 28 31 38 43 42 42 40 38 35 33 29 28 26 26 24 23 23 23 24 24 24 24 23 21 17 15 13 13 15 17 20 20 18 17 18 19 19 19 18 16 14 17 21 23 25
29 28 29 31 37 42 43 41 39 38 35 33 31 28 27 27 25 25 23 22 21 20 21 21 19 17 15 14 14 17 16 13 12 14 13 12 13 14 14 14 16 16 17 20 24 27 27
32 30 31 32 36 40 40 39 38 36 34 33 31 29 29 26 23 21 18 16 13 11 12 13 14 13 14 11 8 8 7 10 11 12 12 11 11 11 12 15 17 19 23 26 28 32 32
34 32 32 34 35 38 40 39 37 35 33 33 30 28 25 21 18 17 16 12 8 7 7 6 6 7 8 8 7 8 9 11 13 11 13 15 16 15 17 19 22 24 26 29 30 31 33
36 33 34 35 35 35 34 34 33 31 30 27 26 24 23 21 18 16 13 9 6 6 4 4 5 4 5 6 8 10 13 15 15 16 17 17 20 21 21 22 24 24 26 30 33 35 34
37 35 35 36 36 34 32 31 29 27 26 24 25 23 23 21 17 14 11 9 8 7 6 6 6 6 6 7 9 12 14 15 18 19 19 19 20 22 22 23 25 27 27 30 35 37 37
38 37 36 36 35 33 31 29 26 24 23 22 21 20 20 19 17 12 10 10 8 8 7 6 6 5 4 7 11 14 16 17 19 20 21 22 23 26 27 27 27 27 29 35 39 40 42
39 38 38 37 36 34 30 27 26 24 22 20 20 20 19 17 15 12 10 10 9 8 8 7 5 4 5 10 14 16 20 22 22 24 26 27 28 32 32 32 32 28 32 35 39 38 40
41 40 38 37 35 34 31 29 26 24 21 18 18 19 18 16 14 12 11 11 10 9 8 8 7 8 10 13 16 18 21 23 26 30 33 33 36 36 34 39 39 32 33 38 37 35 37
41 40 39 38 36 35 34 31 29 26 25 21 18 17 17 17 16 14 14 13 12 11 11 11 13 15 16 18 20 21 24 29 31 35 39 43 45 45 39 37 38 28 29 37 38 38 40
42 41 40 39 37 36 36 34 32 28 26 24 22 19 19 19 17 17 16 16 15 16 16 17 18 20 22 25 26 27 29 31 36 37 43 45 47 48 49 43 40 24 32 40 41 42 41
45 43 40 40 38 38 38 36 34 31 29 28 27 24 22 21 20 19 19 19 19 20 21 22 23 25 27 29 30 31 35 39 41 42 43 47 47 47 46 48 46 32 35 40 43 43 45
46 44 41 39 38 39 37 36 35 34 31 30 29 28 27 25 23 22 22 22 22 23 24 25 28 30 32 33 36 39 44 46 48 46 44 46 45 44 44 45 47 37 41 44 47 48 50
47 45 44 41 39 38 39 37 35 35 34 33 31 31 31 30 29 28 27 27 27 28 29 30 32 34 36 38 43 45 49 49 47 44 44 42 40 36 38 42 41 41 44 47 48 53 54
47 46 45 45 42 40 40 39 38 36 36 36 35 35 34 34 33 32 32 32 33 33 34 35 35 37 42 45 46 50 55 53 46 41 40 40 40 35 40 39 38 41 44 48 51 56 59
48 47 46 46 45 43 42 40 39 37 37 36 36 36 36 36 35 36 36 36 36 37 38 37 37 42 47 48 52 57 54 49 42 39 33 35 32 38 41 42 40 46 50 54 58 61 63

GFSGBSN_500_spd_003.txt.gz
Wind_Speed
14 13 11 12 10 6 3 3 8 4 8 11 11 9 5 6 9 11 20 27 30 30 31 31 30 28 25 24 21 19 20 20 19 17 14 13 16 17 16 16 15 14 13 13 10 8 8
15 14 11 11 8 7 5 5 4 9 10 15 13 7 8 10 21 30 37 37 36 34 31 28 25 25 26 27 24 22 20 18 18 16 14 14 13 12 9 10 12 11 12 9 8 9 8
15 14 10 11 8 9 5 3 8 10 11 12 9 10 18 33 40 41 39 36 32 29 27 27 26 24 23 23 21 21 20 19 17 16 13 13 12 9 9 8 8 9 9 9 10 9 4
11 9 11 9 12 5 5 9 9 8 6 10 16 27 38 41 40 37 34 31 28 27 26 24 23 22 21 20 18 17 17 16 14 14 12 10 9 8 7 6 7 6 6 5 2 3 3
11 9 10 17 12 4 7 8 9 11 13 21 31 38 40 38 35 33 31 29 28 27 25 23 22 21 18 16 15 14 13 12 10 11 10 8 7 6 5 3 4 3 2 2 2 3 5
13 8 16 13 7 8 11 12 15 22 28 33 37 39 38 36 34 31 30 29 28 26 24 22 20 18 16 14 12 10 10 9 7 5 6 5 6 6 5 4 2 2 4 5 4 5 4
11 12 13 10 10 13 13 19 25 28 33 35 37 36 34 32 31 30 28 26 24 23 21 18 18 14 12 11 10 8 5 5 4 2 1 2 2 2 3 2 1 2 4 5 5 6 9
11 13 15 14 17 18 21 27 29 32 35 36 33 32 32 32 30 28 26 24 21 18 16 14 12 10 8 9 8 5 1 2 3 3 1 1 0 0 1 3 3 4 5 7 7 6 9
13 15 13 14 21 23 28 32 31 32 36 35 33 32 31 30 28 25 22 20 17 13 10 7 6 5 4 5 6 7 3 3 3 4 4 3 4 4 6 7 8 7 8 9 10 11 12
15 17 16 18 25 28 33 34 34 35 35 34 32 30 28 26 25 21 18 15 12 8 4 2 1 2 4 5 7 8 7 5 5 6 6 6 8 9 9 10 12 12 11 11 11 14 15
19 18 19 22 26 33 37 37 34 33 34 32 30 27 25 24 21 17 13 11 9 8 7 7 6 7 10 11 10 11 9 9 9 9 10 10 12 12 13 14 15 16 15 16 15 17 19
20 20 19 24 28 37 40 38 35 33 31 30 28 25 23 21 19 16 14 12 13 13 14 11 11 13 14 14 14 14 11 12 13 13 15 16 18 18 17 16 16 18 19 20 20 20 21
22 20 21 24 29 40 42 39 37 34 32 30 27 24 22 21 19 17 15 16 17 19 18 18 18 18 18 16 15 15 14 13 13 15 18 20 21 20 19 19 18 18 18 20 21 21 22
25 21 22 25 30 41 43 41 38 36 33 31 27 24 22 21 20 18 17 18 21 22 23 23 22 21 20 19 16 12 12 14 15 16 13 13 12 12 13 15 15 16 15 16 19 21 22
28 23 24 26 31 40 43 43 41 37 35 31 28 25 24 22 21 19 20 21 22 22 21 20 20 20 18 14 13 12 13 12 8 10 11 10 10 11 10 11 13 14 16 18 21 24 26
30 27 27 28 32 39 44 44 42 39 37 34 32 30 27 24 22 20 21 22 20 15 12 11 11 11 11 11 9 6 7 9 9 10 11 10 10 11 13 14 16 19 20 23 25 27 28
32 30 29 29 32 38 43 44 43 40 38 35 32 30 27 25 23 21 20 17 13 10 6 7 6 6 4 5 5 6 8 9 10 11 12 14 15 16 18 19 20 21 23 25 27 28 32
32 31 29 29 31 37 41 43 43 41 38 35 33 30 28 25 20 18 16 13 11 8 5 4 4 3 2 2 3 5 8 10 11 12 13 15 16 17 19 20 22 24 26 29 31 32 32
33 32 31 31 32 34 39 40 40 40 38 34 33 29 26 22 18 16 14 14 13 10 8 7 5 4 2 1 3 5 7 10 13 14 16 17 18 21 23 24 25 27 29 30 33 35 35
34 33 32 31 32 33 34 37 39 37 36 33 28 24 22 21 19 16 14 14 12 11 9 6 5 3 1 2 4 7 10 12 13 15 18 21 24 25 27 31 30 32 35 37 39 40 41
35 34 33 31 31 33 33 33 33 32 31 27 25 23 23 21 20 18 15 13 11 10 9 8 5 3 2 3 7 10 13 17 20 24 27 31 32 33 35 36 35 32 34 37 39 39 40
35 35 35 33 32 33 34 33 31 29 27 25 23 22 21 20 19 18 16 14 13 12 10 8 6 6 6 8 11 14 17 19 22 26 33 38 41 43 41 41 38 28 31 34 37 37 37
36 35 36 35 34 34 34 32 30 28 25 21 21 21 21 19 19 19 19 16 14 12 12 11 10 10 11 14 17 19 21 23 24 30 37 42 45 47 43 41 37 29 30 35 36 35 39
38 37 37 36 35 35 35 33 30 27 25 23 21 20 21 21 22 21 19 17 16 15 15 14 15 15 17 19 21 23 25 27 29 34 39 44 47 47 46 43 38 26 33 36 36 35 38
38 39 37 36 36 36 36 34 32 29 27 25 23 21 21 22 22 21 20 18 16 16 16 17 19 20 22 25 25 26 28 30 33 37 42 47 47 46 45 46 42 26 30 32 35 35 38
40 39 39 38 37 37 37 34 33 31 29 27 27 25 23 21 20 19 18 18 18 18 19 20 22 23 26 27 28 29 30 34 36 41 45 44 42 40 42 43 40 32 36 38 40 40 45
42 41 41 39 37 37 36 35 34 33 32 30 29 28 26 25 24 23 23 23 22 22 23 25 27 28 30 31 31 33 35 38 40 44 42 40 41 37 37 38 33 34 37 40 44 48 51
44 43 42 42 40 38 36 36 36 35 35 33 33 32 31 30 29 30 30 29 29 29 30 30 32 33 34 35 36 38 40 42 47 47 43 39 41 35 36 34 35 38 41 45 47 50 53
43 43 43 44 43 41 39 37 36 36 36 36 36 36 35 34 34 35 35 34 34 34 34 35 35 36 37 38 40 43 45 48 53 54 43 37 35 37 40 36 40 42 45 48 50 55 57

GFSGBSN_500_spd_009.txt.gz
Wind_Speed
22 21 19 17 17 14 14 11 9 12 13 16 17 17 17 18 16 17 18 18 19 18 17 19 20 25 25 22 26 25 25 23 23 23 21 21 19 20 14 12 10 11 13 12 11 10 9
21 20 19 17 17 13 11 10 13 13 10 14 17 19 12 14 15 16 17 17 18 22 25 28 28 26 27 28 24 23 21 20 17 18 20 21 17 13 14 14 13 12 13 11 9 8 8
20 20 17 18 16 12 10 11 11 10 15 13 15 14 9 14 16 17 21 25 26 30 32 32 31 30 28 27 25 23 21 18 18 18 19 19 19 17 16 15 13 10 8 6 5 6 7
19 18 16 18 16 12 14 8 4 16 11 16 17 14 14 17 24 29 33 39 41 40 38 36 35 33 31 29 28 25 23 21 19 18 18 17 15 15 15 12 10 9 6 5 6 8 8
18 16 16 15 13 12 13 7 13 10 12 15 16 20 26 32 37 41 43 44 43 40 37 35 33 31 28 26 25 23 21 20 19 17 16 14 13 11 10 8 6 3 2 6 7 10 9
17 16 14 12 14 14 13 10 13 13 11 21 27 32 38 41 41 42 43 42 39 37 35 33 31 28 24 23 21 21 20 18 16 15 14 12 10 8 7 5 3 12 8 9 10 9 8
17 15 15 14 14 11 10 12 16 15 26 32 37 40 40 40 41 42 39 37 34 32 28 28 25 22 20 18 15 14 13 12 12 12 11 10 9 9 7 7 9 11 11 12 15 12 11
17 17 15 18 14 9 13 17 19 31 36 39 40 40 38 39 38 37 35 33 32 28 26 25 22 20 17 15 13 10 9 9 9 9 8 8 9 9 9 9 10 11 11 13 12 12 12
18 18 16 19 13 11 17 21 32 39 40 41 40 37 36 36 35 33 32 29 29 26 24 21 18 16 13 12 10 8 6 6 6 7 8 10 9 7 8 9 11 12 12 11 12 11 13
18 19 19 17 14 17 22 30 38 40 40 39 38 35 35 34 33 31 29 27 25 23 20 15 13 11 9 7 6 5 4 4 5 7 8 9 9 10 11 12 12 13 13 13 13 12 9
19 19 19 17 17 21 28 35 40 40 39 38 37 35 35 34 33 30 26 21 19 17 14 9 7 5 3 4 4 3 2 2 4 6 7 8 9 11 13 14 14 16 15 16 16 16 16
21 20 18 18 20 26 32 38 40 39 38 37 36 35 35 34 30 26 22 17 13 11 6 5 2 2 4 6 7 7 5 5 5 7 9 11 12 15 17 19 19 19 19 18 18 18 19
23 23 19 19 25 31 35 41 41 40 38 37 36 35 33 31 27 23 18 13 8 4 2 2 5 8 11 11 10 8 7 7 8 9 9 11 13 13 14 15 16 17 17 16 16 16 13
24 25 20 22 29 35 39 42 43 40 37 37 36 36 32 29 25 20 15 11 8 5 8 10 12 13 12 11 10 9 7 6 6 8 9 7 7 8 7 7 7 8 9 11 13 15 14
25 25 21 24 32 38 41 41 42 40 37 37 35 34 30 26 22 18 14 11 9 10 12 14 13 12 10 9 8 6 6 6 3 2 3 3 4 5 7 8 9 10 11 13 16 18 20
27 25 21 24 30 38 42 41 42 40 38 36 34 31 28 24 21 18 15 13 13 13 13 12 9 7 7 5 4 3 4 4 3 2 1 2 5 7 9 10 12 14 16 17 18 22 23
29 27 22 24 29 38 43 43 42 41 39 37 35 31 27 24 22 19 17 16 15 14 11 7 7 5 4 4 4 5 6 4 2 0 2 4 6 7 9 11 14 15 17 19 22 23 25
30 29 25 24 28 36 43 44 43 41 39 37 35 32 29 27 24 21 20 17 15 13 9 7 4 5 5 5 6 7 6 4 3 2 3 5 7 9 13 16 18 20 23 25 25 27 27
32 30 28 25 27 32 40 44 45 43 40 39 36 33 31 28 25 22 21 19 17 14 11 9 6 5 6 7 7 7 6 5 4 2 2 6 8 13 18 23 27 26 26 27 28 29 26
34 31 30 26 27 30 36 40 43 44 43 40 38 36 33 29 26 24 22 20 17 16 14 11 9 8 9 9 9 8 7 4 2 4 8 11 15 17 21 27 33 33 31 33 33 31 30
36 33 32 30 27 28 32 37 39 41 41 40 39 35 32 29 28 26 24 21 19 18 17 15 13 12 12 12 11 9 8 7 6 9 13 15 18 21 21 28 33 33 33 33 33 33 32
39 35 34 32 30 29 29 34 37 39 40 39 37 35 33 30 29 27 24 22 21 19 18 18 18 17 16 15 13 11 11 10 10 13 16 19 21 24 23 30 35 36 35 33 31 29 29
41 38 35 34 32 30 29 30 33 37 38 38 37 36 35 31 29 27 24 24 23 22 21 22 21 20 19 17 16 15 14 14 15 17 20 23 25 27 28 33 39 40 34 31 29 30 25
42 39 36 34 31 30 29 28 30 33 36 36 36 35 34 31 29 27 27 27 26 25 24 24 24 22 20 19 19 19 18 18 18 21 24 28 31 34 35 38 43 43 36 31 29 26 27
43 40 37 35 33 31 30 28 29 30 32 34 36 34 33 31 30 30 28 29 28 28 28 27 25 25 23 22 22 21 21 20 21 24 28 32 35 38 40 43 45 38 34 29 28 28 29
44 41 37 35 32 31 30 29 30 31 32 33 34 34 33 33 32 32 30 30 30 29 29 28 26 26 26 25 24 24 24 24 26 28 31 35 37 39 42 47 47 42 36 31 33 33 36
42 41 39 36 33 33 32 31 32 32 32 32 32 33 33 34 33 34 33 31 30 30 29 28 28 29 28 27 26 27 28 28 31 33 34 38 39 39 44 48 46 41 37 34 36 38 41
41 41 40 38 35 34 33 33 32 32 33 33 32 33 34 33 33 33 34 33 32 31 30 30 30 29 30 30 30 31 32 33 35 36 38 40 40 41 45 47 49 42 40 37 38 40 43
38 39 38 38 37 36 34 34 34 34 35 35 34 34 34 34 33 33 33 33 33 32 32 33 33 33 34 34 34 35 36 37 39 40 39 37 39 41 48 44 41 42 44 44 44 46 51

GFSGBSN_500_spd_012.txt.gz
Wind_Speed
29 26 24 21 21 18 19 20 20 17 15 15 19 20 18 19 16 14 17 18 17 16 15 18 17 19 19 15 16 21 21 23 25 26 26 27 16 7 8 10 16 15 13 17 14 14 14
27 28 23 21 20 18 19 19 18 19 20 15 17 17 19 16 12 15 17 16 17 18 16 18 19 22 21 20 24 24 25 27 28 26 29 22 12 20 12 7 8 8 9 11 11 11 7
27 19 22 21 19 18 17 18 17 19 15 14 15 19 10 18 17 17 17 16 18 18 21 23 25 25 25 28 25 24 21 15 17 24 28 21 22 16 13 12 12 10 9 6 3 1 2
17 21 21 20 19 18 17 15 14 16 17 13 8 12 8 13 14 14 17 18 23 27 28 26 26 26 25 23 21 20 15 18 17 15 15 17 16 13 15 12 9 7 4 3 1 2 5
20 21 20 19 17 16 16 14 8 7 6 11 13 12 13 15 18 20 24 29 31 29 29 29 27 25 25 22 20 19 19 20 20 20 18 17 15 15 12 11 9 3 2 3 9 7 5
22 21 19 17 15 16 14 12 10 10 10 13 14 15 20 23 27 32 35 37 36 35 32 29 28 28 25 23 21 20 19 18 20 19 17 17 17 13 11 11 8 10 2 12 12 7 7
21 20 18 15 16 15 13 13 12 15 13 17 21 26 29 33 38 38 38 35 33 32 32 32 26 26 24 20 17 16 16 15 15 16 17 12 15 9 7 4 6 14 14 9 17 5 11
22 20 16 18 15 15 13 14 18 16 23 28 31 34 37 39 40 40 38 36 34 31 26 24 23 20 19 15 15 13 13 13 13 14 12 10 5 8 9 7 9 17 17 14 15 11 12
23 20 19 18 17 16 15 18 19 26 33 36 37 37 38 39 37 35 33 31 30 26 24 21 19 18 16 12 11 10 10 10 11 10 8 7 7 6 7 8 8 12 14 11 12 9 10
23 20 22 19 19 16 19 23 29 35 38 39 37 36 38 38 36 34 32 29 29 26 25 20 17 15 13 13 11 8 7 6 6 6 5 4 5 7 9 9 10 15 8 13 13 12 9
24 21 22 21 20 18 23 30 38 40 41 40 38 39 38 37 36 32 31 27 25 23 20 15 13 10 10 8 6 5 3 4 5 5 6 5 6 8 10 10 12 15 15 15 16 15 17
25 22 23 22 21 22 28 38 42 43 43 40 39 38 36 33 30 30 27 23 20 16 11 11 9 5 4 3 2 1 2 4 6 7 7 9 10 11 13 15 18 20 20 20 19 19 18
27 24 25 23 22 27 34 42 44 44 43 40 38 37 35 33 31 27 23 20 16 10 7 5 3 3 5 5 4 3 3 5 7 7 7 6 8 9 10 10 11 11 11 13 10 10 10
28 26 27 23 25 31 38 45 45 44 43 40 37 36 36 33 29 25 21 17 12 6 2 3 5 8 8 6 6 5 4 4 3 3 4 3 2 3 4 6 6 6 6 6 8 10 12
29 28 28 24 27 33 40 46 46 43 42 39 38 37 35 32 28 23 19 14 9 6 4 8 10 9 6 6 5 4 3 4 3 4 3 3 2 3 5 6 7 8 9 10 13 15 16
31 30 28 25 29 35 42 45 45 43 41 38 37 36 34 30 26 22 17 13 5 7 8 10 10 6 3 4 4 4 5 6 5 5 3 3 2 2 4 6 8 10 12 15 16 19 18
32 32 30 27 31 38 44 46 46 43 40 38 37 36 33 29 25 20 16 12 9 9 11 11 6 4 3 4 6 7 8 8 7 6 4 2 2 2 4 8 13 17 19 18 19 22 24
34 33 29 29 33 40 44 46 47 43 41 39 37 36 33 28 23 19 18 12 11 11 12 9 4 4 5 7 8 9 8 8 7 6 5 4 3 4 6 8 14 18 20 22 24 25 27
36 33 30 29 33 39 43 45 47 45 42 40 38 35 32 27 24 21 16 15 14 14 13 10 6 5 7 8 9 9 10 7 7 5 2 2 4 8 12 15 21 26 28 32 29 24 23
37 35 31 30 32 38 43 45 46 46 43 41 38 35 33 28 24 22 20 18 18 16 13 12 9 8 9 11 11 11 9 9 6 3 3 5 8 10 13 16 21 25 32 34 34 33 29
38 35 32 30 30 35 41 45 46 46 45 42 39 37 33 29 26 25 22 21 19 16 14 15 13 11 13 13 13 13 12 11 8 8 9 10 11 13 16 20 24 28 35 35 33 30 29
39 37 34 31 29 30 36 42 45 46 45 44 41 37 35 31 30 27 25 23 22 19 17 18 17 16 17 17 17 15 14 13 12 12 13 15 15 16 20 24 27 29 36 38 34 30 29
40 37 35 33 30 29 32 38 41 43 45 46 42 39 37 34 32 29 24 24 22 17 20 21 21 20 21 17 16 17 17 16 16 17 18 19 20 21 24 27 29 31 36 40 36 33 30
42 39 37 34 32 30 30 33 38 40 42 42 40 40 38 35 32 29 26 24 24 22 23 25 24 22 21 23 20 19 20 20 20 20 22 23 25 27 29 31 32 35 37 41 36 33 31
44 40 38 35 33 31 31 31 33 37 39 40 40 39 37 34 34 33 28 27 26 25 28 26 24 25 27 25 24 22 23 23 23 24 25 27 29 32 35 36 36 37 38 39 40 31 34
44 42 40 37 34 32 31 31 32 32 35 38 39 38 36 36 35 33 33 31 28 30 27 28 28 28 28 27 27 26 26 26 27 27 28 31 33 35 38 41 41 40 44 45 39 36 37
45 43 41 38 36 33 32 32 31 31 32 33 35 36 37 38 35 35 36 31 33 32 32 31 31 31 30 29 30 29 29 29 31 31 32 34 37 38 41 43 43 43 44 43 42 41 37
45 45 43 40 36 34 33 32 31 31 32 33 33 34 36 38 37 38 36 36 35 35 33 33 33 32 32 32 32 32 33 33 34 36 36 38 40 41 43 44 45 47 48 47 45 42 44
44 46 45 42 38 35 35 33 32 31 31 32 33 33 34 36 36 37 37 37 37 38 36 32 36 33 35 34 34 35 36 36 37 39 41 44 42 45 45 45 45 48 52 50 48 48 47

GFSGBSN_500_spd_015.txt.gz
Wind_Speed
33 38 32 33 27 25 24 21 20 22 23 20 19 17 19 18 18 18 18 18 15 12 13 15 16 18 20 13 12 17 16 22 23 26 31 31 26 23 35 27 22 25 23 21 22 24 14
33 37 35 26 25 23 21 20 21 22 22 22 24 20 19 19 17 15 14 16 16 16 16 18 20 21 19 14 15 17 23 30 33 35 36 33 28 17 9 16 26 26 9 6 10 8 8
35 38 33 27 21 22 19 18 20 20 20 23 19 16 17 14 15 14 16 16 16 17 17 17 19 20 18 15 21 26 29 32 33 36 39 34 26 24 24 18 8 11 11 11 10 8 4
35 33 31 20 23 20 18 18 16 17 22 19 8 11 15 13 17 17 15 15 15 17 17 19 19 20 17 16 20 21 21 20 16 7 12 10 23 20 15 15 12 9 8 10 9 5 3
32 35 24 21 22 18 17 16 14 14 14 9 10 7 8 14 16 20 18 17 17 18 21 22 22 22 23 24 20 19 19 16 17 14 15 17 18 13 17 17 16 12 6 4 8 3 3
34 24 22 20 20 17 17 12 14 12 11 8 10 12 12 14 15 16 19 21 23 25 25 24 23 23 19 20 19 18 16 17 20 20 19 18 17 17 16 15 14 15 6 2 12 5 1
28 23 21 20 18 17 14 13 12 11 13 10 11 12 14 16 19 24 27 27 27 27 27 27 26 24 23 20 18 18 18 19 19 22 22 21 22 19 15 6 6 5 13 13 13 2 4
25 23 21 19 17 17 14 14 12 19 14 13 15 19 22 25 29 33 33 33 32 28 22 22 23 21 18 16 16 14 16 16 15 18 21 18 7 10 9 8 8 14 19 16 11 7 9
22 26 22 20 19 17 17 14 16 19 15 19 24 28 31 32 32 31 30 30 30 25 23 21 20 18 16 15 15 15 14 12 15 16 16 9 11 9 7 5 9 13 14 16 12 6 9
21 30 26 21 21 20 19 17 18 18 24 29 32 35 34 34 34 33 30 30 29 26 25 22 21 19 17 15 13 13 12 10 11 11 9 10 9 8 7 5 10 7 8 12 12 10 12
23 32 26 24 22 24 20 19 21 26 33 35 37 38 38 36 35 34 30 29 28 25 25 20 18 16 14 12 10 10 10 10 9 10 8 6 6 6 4 9 11 9 12 13 13 12 15
30 31 27 27 24 25 23 22 25 35 39 39 40 40 38 35 34 32 30 28 26 21 19 18 16 14 11 9 8 8 9 10 11 7 7 7 6 8 9 12 13 16 17 18 18 17 14
34 31 28 28 27 26 26 27 33 41 42 40 40 39 37 35 32 31 29 26 20 16 16 15 11 8 6 5 6 7 8 8 8 9 7 7 7 7 7 8 8 9 10 12 14 14 14
37 32 29 29 30 29 29 33 40 45 43 41 41 39 37 35 33 30 26 23 18 15 12 9 5 4 5 6 7 9 8 7 9 8 8 8 6 4 3 2 2 3 4 5 6 9 7
40 34 31 31 30 31 33 39 44 47 44 42 41 40 39 35 33 28 24 20 16 11 6 2 3 5 5 6 7 6 8 11 9 8 6 5 5 3 0 3 4 6 7 8 8 10 10
44 35 33 35 32 34 37 44 48 48 45 42 41 40 38 34 31 28 23 18 12 4 2 5 6 4 5 7 8 9 10 10 10 9 6 4 2 1 2 4 6 8 10 12 12 12 9
46 37 35 35 33 37 41 48 50 48 45 42 41 39 38 34 31 26 20 14 9 7 5 7 6 4 4 9 10 9 11 12 11 8 6 5 4 4 6 5 6 11 15 19 19 18 16
44 38 37 35 33 39 45 51 51 49 45 41 41 39 38 34 29 24 20 15 7 9 7 8 5 6 6 8 8 10 11 10 8 8 6 7 6 3 2 3 7 11 14 18 21 21 22
44 40 38 34 35 41 46 51 52 49 45 42 40 40 38 34 29 25 19 10 11 10 8 8 6 6 7 8 9 11 10 11 10 11 9 5 3 1 3 3 8 15 19 23 27 27 22
44 41 40 35 36 42 48 51 52 50 47 44 42 40 38 33 29 24 18 14 12 10 9 9 9 9 8 11 11 12 13 12 12 10 7 4 5 7 7 9 12 16 20 24 29 31 28
44 41 39 35 38 43 47 50 51 51 48 44 42 39 36 33 28 23 20 17 13 11 11 10 12 12 12 11 12 13 13 14 12 9 7 7 9 11 11 13 16 20 22 25 27 31 33
45 42 39 35 37 42 46 49 51 51 48 45 44 41 37 35 31 28 24 20 16 15 13 13 15 17 14 15 13 14 13 14 13 12 11 11 13 15 15 17 19 22 25 28 29 31 33
46 42 39 36 36 41 45 47 50 51 49 47 44 41 39 35 33 30 24 21 22 18 17 15 19 19 14 12 14 15 18 18 18 16 17 17 17 18 19 20 23 25 28 31 33 35 37
46 43 39 36 35 38 43 45 47 49 51 47 44 41 39 36 35 30 26 27 26 19 21 17 18 17 15 19 22 21 22 22 21 19 20 21 22 22 23 24 27 30 31 33 35 37 37
47 44 41 36 35 35 39 42 44 47 47 46 48 45 41 39 37 34 31 31 29 22 22 18 17 21 24 23 24 24 25 25 23 24 23 24 26 27 27 29 31 35 35 35 38 38 37
46 43 41 38 35 33 34 37 41 42 44 45 47 44 42 41 39 37 35 34 30 27 25 21 22 25 25 24 26 28 28 27 28 26 27 28 29 30 32 34 37 39 41 42 42 40 41
46 44 42 40 36 34 32 32 33 37 40 42 42 42 41 40 39 38 39 35 33 31 29 28 27 28 27 28 29 30 30 32 32 29 30 32 33 34 36 38 39 41 46 45 43 44 45
46 44 42 39 37 35 32 31 31 31 33 37 40 42 42 42 41 41 40 37 37 35 33 31 31 31 31 33 32 32 34 34 35 34 33 35 37 37 39 41 43 46 48 47 43 46 48
45 44 43 40 38 36 34 33 30 29 31 33 35 37 39 40 41 42 41 41 40 38 35 35 36 32 35 35 34 36 37 36 35 37 37 39 39 40 41 44 44 49 51 51 49 49 47

GFSGBSN_500_spd_018.txt.gz
Wind_Speed
49 45 40 43 32 34 34 32 25 24 23 23 24 20 19 16 17 17 19 19 19 15 13 14 16 15 13 11 14 16 17 22 20 27 32 37 35 32 26 19 15 14 19 16 14 16 16
50 46 41 38 33 36 35 26 24 24 23 24 22 20 22 20 17 17 18 18 19 16 14 17 15 12 15 17 18 23 28 22 31 37 36 35 30 29 30 21 18 15 19 13 21 19 15
45 42 39 37 33 33 28 24 23 21 22 19 20 23 22 17 21 17 16 15 18 15 17 18 18 20 16 15 21 25 22 28 37 39 40 43 40 39 33 19 19 22 13 8 12 14 11
40 35 39 37 33 24 20 23 22 20 18 18 16 16 14 16 17 13 14 15 15 18 18 17 18 13 14 16 21 24 29 33 36 41 40 38 39 39 30 24 22 18 17 16 16 12 10
36 32 37 35 32 22 23 22 21 18 14 15 9 6 9 11 17 15 16 16 16 16 16 15 13 14 15 17 18 17 22 28 16 27 28 31 26 19 17 18 16 15 18 17 15 9 3
32 32 36 32 31 22 25 21 19 16 9 8 9 6 4 8 15 18 18 16 15 14 14 15 16 16 18 16 18 19 20 17 14 20 14 17 15 14 24 21 18 14 15 15 13 5 1
33 31 35 28 24 25 22 19 17 15 14 12 8 9 10 12 10 20 18 16 17 20 21 19 22 21 20 19 18 19 21 22 21 21 22 23 24 27 23 20 16 7 6 7 6 3 4
34 32 31 23 23 24 20 19 16 17 15 10 8 11 13 16 19 22 23 24 24 24 22 20 20 20 21 20 20 19 21 22 23 28 28 25 25 23 22 18 12 8 11 9 3 5 10
34 33 28 23 24 22 21 18 17 18 17 10 9 13 17 21 23 23 25 25 25 23 24 23 22 20 19 17 18 18 17 20 24 24 20 19 19 20 16 12 12 14 18 16 14 9 12
33 33 26 23 27 23 23 20 19 16 15 9 15 20 23 25 27 28 29 30 28 27 26 22 20 20 19 17 17 17 15 15 15 14 15 14 14 12 9 8 7 8 14 17 14 13 15
35 30 27 28 30 26 22 23 19 16 14 17 24 26 30 32 33 31 30 29 28 28 26 23 21 19 19 16 17 18 17 15 12 11 15 12 12 11 11 10 9 11 14 16 17 16 15
37 31 28 33 33 29 26 25 18 18 18 28 32 34 35 35 33 32 30 29 27 25 23 21 19 18 16 15 13 14 17 17 15 14 13 13 11 10 10 10 11 12 14 16 18 18 18
36 34 32 36 33 31 30 25 21 22 29 36 36 37 36 35 34 32 30 28 24 21 21 19 17 15 14 12 12 13 12 11 11 13 14 12 10 9 9 10 10 9 10 11 13 14 19
38 35 37 38 34 32 33 26 25 30 38 40 39 38 37 36 34 32 30 25 20 21 18 16 14 12 11 12 13 13 14 14 15 12 11 12 10 9 8 5 3 3 2 3 5 6 11
39 36 39 38 36 35 33 30 29 37 42 43 41 40 38 37 35 33 29 22 18 18 16 13 10 10 11 13 14 13 14 15 14 12 10 10 9 7 5 4 2 1 2 2 4 7 12
40 40 41 39 38 38 33 32 35 42 45 44 43 41 40 38 36 32 27 23 18 14 8 6 6 8 11 13 14 15 15 14 12 11 11 11 8 6 6 6 4 3 6 8 8 6 11
42 43 41 38 40 39 35 36 39 46 47 46 45 43 41 39 36 31 27 22 15 10 7 4 2 6 10 12 13 14 14 14 13 12 10 10 10 9 8 6 3 3 4 8 11 13 13
40 45 42 40 41 37 37 39 44 50 49 47 46 44 43 40 35 30 26 21 15 9 5 4 3 3 7 7 8 12 14 15 14 13 12 10 10 10 7 4 3 2 4 7 10 15 17
45 45 44 41 40 37 39 41 47 52 49 47 46 45 44 39 35 29 26 20 13 10 5 4 3 4 7 7 12 15 16 17 16 15 14 12 10 6 5 7 6 5 8 11 14 18 20
48 46 44 41 40 37 41 44 50 53 50 48 48 47 44 40 34 31 27 19 12 10 6 5 6 7 8 10 14 16 17 17 15 15 13 12 9 8 7 8 9 11 16 16 18 20 20
47 49 45 40 39 37 43 46 52 55 53 49 48 45 42 39 35 30 24 18 14 10 8 6 7 9 9 11 13 15 16 16 17 16 13 11 10 10 9 11 13 15 17 20 22 24 24
48 49 43 40 39 38 45 49 54 56 54 50 47 46 43 40 36 30 23 19 15 13 10 9 8 9 11 9 12 15 15 15 17 16 15 15 13 13 14 16 16 17 19 22 24 26 28
54 49 43 41 38 39 44 49 55 56 54 51 48 45 43 40 35 32 28 23 19 17 15 12 9 11 14 12 14 18 19 21 22 21 20 19 18 19 19 21 22 21 24 26 28 30 31
53 46 43 41 37 39 44 49 54 55 54 52 48 44 42 40 36 33 29 26 24 20 18 15 13 11 13 18 20 19 21 23 23 23 23 22 23 23 23 25 26 26 27 30 32 31 34
50 46 43 40 37 40 44 48 52 55 54 52 49 45 43 41 39 37 34 34 28 23 20 18 15 13 17 22 24 21 21 25 25 26 27 27 27 28 28 28 29 29 31 35 35 34 38
50 47 44 41 37 39 43 46 50 51 51 52 50 47 44 43 41 39 37 34 30 27 24 23 20 18 20 23 25 25 26 26 28 29 29 31 31 32 32 33 34 33 35 37 39 38 39
51 48 45 40 37 38 41 44 46 48 50 52 49 46 45 43 41 39 37 35 33 29 28 28 27 25 24 25 27 29 30 30 30 30 31 33 35 36 35 37 37 37 38 42 42 41 45
51 48 45 41 37 36 37 39 41 45 47 48 47 46 45 43 42 42 39 37 35 33 33 32 31 29 30 30 31 32 34 34 34 34 33 36 38 37 38 38 39 40 43 44 44 45 48
51 48 44 41 37 35 34 34 37 40 42 43 42 42 43 42 42 42 41 40 39 39 38 38 37 35 36 34 34 35 36 37 37 38 36 37 38 39 38 38 39 43 45 46 44 48 52

GFSGBSN_500_spd_021.txt.gz
Wind_Speed
44 44 54 44 43 42 45 42 38 33 26 22 24 24 25 24 23 17 18 19 18 17 14 12 14 11 13 17 17 18 18 18 19 21 25 34 36 34 30 29 20 15 8 7 9 7 10
48 47 53 46 43 44 43 42 35 30 23 23 24 26 27 23 20 20 18 17 18 19 16 14 14 14 14 16 16 18 19 23 28 28 33 39 37 27 24 18 18 15 10 9 12 13 13
52 52 52 47 43 44 42 41 33 23 21 22 25 27 26 26 25 20 17 14 18 20 17 15 15 15 17 15 17 19 23 27 20 30 37 33 31 32 26 16 15 15 13 7 13 17 15
52 53 51 47 47 44 40 38 29 23 20 21 22 25 20 18 15 16 16 16 16 18 16 16 18 13 10 14 17 22 28 22 31 36 36 32 30 24 23 14 17 15 17 10 9 11 12
51 52 49 44 46 44 38 36 28 24 20 18 16 13 9 7 12 14 16 15 15 15 17 14 11 11 12 16 18 25 25 26 37 38 34 30 27 18 18 17 12 13 13 14 13 8 12
52 51 47 39 45 44 38 32 25 23 18 14 9 8 3 5 11 16 17 17 14 14 13 11 11 13 15 16 22 24 23 35 38 37 35 35 32 25 19 14 16 19 21 18 15 12 11
54 52 44 32 42 41 37 29 24 22 17 14 12 11 7 6 8 16 17 14 14 12 13 14 18 16 19 18 21 25 21 32 37 34 28 31 30 25 25 27 21 20 24 19 17 13 9
57 50 38 34 42 36 33 26 24 21 17 15 12 11 12 11 11 20 16 17 14 17 20 19 19 17 14 16 20 20 24 30 30 30 18 22 24 28 28 22 20 18 24 15 11 6 8
55 47 35 39 39 34 27 24 23 20 17 16 15 12 13 13 13 14 16 15 18 20 21 21 20 18 18 17 18 22 23 26 28 30 26 29 29 28 27 23 19 16 16 12 10 10 10
50 43 38 39 37 32 23 24 22 21 17 16 15 13 13 13 15 18 21 23 22 22 22 22 23 21 21 21 20 20 23 27 27 25 25 22 24 23 19 17 14 13 12 14 15 17 21
50 43 37 37 36 29 23 25 23 22 16 17 16 13 16 21 25 24 25 26 25 26 25 23 21 22 21 20 21 20 19 17 17 15 17 14 13 20 19 16 13 11 11 12 13 17 22
51 42 40 38 37 27 26 27 25 22 18 18 15 21 27 29 30 30 28 27 25 26 23 22 21 20 18 18 18 18 19 17 15 14 15 17 15 15 15 13 11 10 11 15 16 19 23
55 50 44 41 36 29 31 29 28 22 21 18 25 30 34 33 33 30 27 26 24 24 23 21 20 19 17 17 17 15 14 15 15 15 17 18 17 15 14 12 12 14 16 18 20 21 25
60 54 49 42 37 34 34 32 30 24 24 27 33 36 35 34 33 30 29 27 26 24 21 20 18 16 14 13 13 14 15 16 16 17 18 16 15 13 11 9 9 8 9 9 10 11 12
59 55 50 45 39 40 35 35 32 27 29 36 39 38 36 35 34 31 29 27 24 21 19 16 13 13 12 12 12 13 14 16 16 16 15 14 12 10 9 8 8 7 6 5 6 7 9
60 54 48 45 43 43 38 37 34 30 36 44 43 39 38 38 35 33 31 24 19 18 16 14 12 13 14 15 15 16 16 15 14 14 14 13 12 11 11 10 8 6 5 2 1 3 6
58 51 47 46 47 42 41 38 36 35 42 48 47 42 41 39 36 35 30 24 21 17 13 9 8 10 13 14 16 17 16 14 15 15 16 14 14 13 12 10 8 7 4 2 3 6 8
57 51 47 47 45 41 41 40 39 40 47 52 48 44 42 40 39 36 30 25 21 15 10 6 5 5 10 11 13 16 17 17 17 18 17 15 15 15 11 9 6 5 5 4 7 10 14
55 51 47 47 44 41 41 42 41 45 49 52 49 46 44 41 39 35 30 24 19 14 9 4 3 7 11 11 14 18 18 19 20 18 16 16 15 14 12 10 9 9 10 10 11 11 12
53 50 46 49 43 41 41 42 42 47 52 54 51 48 45 42 39 34 31 25 17 13 8 6 4 7 9 12 15 17 18 19 19 18 17 17 16 13 12 11 12 13 14 14 15 15 15
53 48 44 47 43 41 41 42 42 50 54 54 52 49 44 43 40 36 31 26 19 15 9 7 4 8 9 10 12 15 17 18 18 18 19 18 16 14 13 14 15 16 17 18 18 19 21
49 48 43 46 42 41 42 41 42 52 56 54 52 49 45 43 41 38 32 25 20 15 9 8 6 6 10 10 12 15 17 18 19 20 21 19 18 17 17 17 19 19 21 24 23 24 25
47 42 43 46 40 41 41 39 44 54 57 54 52 48 46 44 42 39 32 26 22 17 12 11 9 6 11 13 13 17 18 21 21 23 24 23 22 22 22 23 24 22 24 28 28 27 30
44 41 44 43 38 41 38 39 45 54 57 54 50 49 46 44 41 38 33 29 25 20 17 14 11 9 11 15 17 17 19 20 23 23 26 26 27 28 28 29 31 26 28 31 33 30 33
41 41 44 42 38 39 35 39 44 54 57 54 52 49 46 43 41 41 36 32 28 24 19 17 16 13 12 17 20 21 21 21 23 25 27 29 31 33 34 34 36 32 30 34 37 34 36
41 40 43 39 39 36 34 39 44 53 56 55 52 48 46 44 43 41 37 36 33 27 24 22 21 19 17 17 20 22 24 25 25 26 28 32 35 37 38 41 41 36 35 39 41 38 39
43 45 42 39 37 34 32 37 43 49 53 53 54 51 48 45 44 42 39 38 34 30 27 26 25 23 23 22 21 22 25 28 29 29 28 33 37 39 41 43 44 39 40 42 42 42 41
46 45 42 38 33 31 32 37 42 47 50 53 53 51 49 47 44 42 41 39 37 35 33 31 30 29 29 29 28 28 31 31 31 32 33 35 38 38 40 42 44 40 43 44 43 43 45
47 45 42 37 34 28 31 35 40 43 47 49 48 48 48 46 44 42 41 40 39 38 36 36 34 33 34 34 34 35 37 37 36 37 36 38 39 40 40 40 40 43 45 44 45 46 48

GFSGBSN_500_spd_024.txt.gz
Wind_Speed
47 44 44 43 42 43 50 39 42 47 46 45 33 25 25 26 26 26 23 19 19 19 16 14 14 11 12 14 15 16 17 17 16 16 18 17 24 34 29 31 31 26 15 15 3 8 9
47 46 45 43 44 45 50 44 41 46 44 41 31 25 25 28 28 24 21 19 19 19 17 15 16 13 13 14 16 16 16 16 14 15 14 26 33 33 31 31 31 15 7 7 5 2 1
49 45 42 43 42 47 51 46 42 46 44 39 28 26 26 29 28 27 22 19 18 17 19 17 18 14 13 13 14 12 14 14 16 18 29 32 31 29 29 28 19 13 7 8 2 7 8
53 50 49 44 44 47 49 45 41 44 44 37 28 24 24 29 22 16 20 19 18 16 19 19 16 13 12 14 12 13 14 20 22 25 34 33 29 26 12 11 9 9 7 3 2 7 12
54 53 50 46 44 47 44 45 38 44 43 34 26 22 21 18 16 13 13 16 16 15 16 16 12 10 10 13 13 14 22 27 31 31 31 28 24 25 15 12 6 6 7 9 8 12 14
57 54 52 47 44 45 38 43 34 43 38 30 23 17 15 12 9 9 11 14 13 14 14 11 10 13 13 15 17 19 28 33 32 30 28 30 25 17 17 14 8 12 13 13 12 12 15
60 57 54 50 46 44 38 40 33 40 35 27 21 18 17 12 6 7 15 14 14 12 11 11 12 13 16 16 20 23 30 33 33 30 26 26 23 17 15 13 14 11 17 16 16 15 15
65 61 56 52 47 43 39 39 34 36 30 25 21 18 16 15 10 6 8 11 12 12 13 12 14 15 16 16 22 27 25 29 33 27 21 24 22 17 13 13 14 15 22 18 20 18 16
71 65 60 54 48 43 38 37 35 33 27 24 22 19 16 17 10 6 13 13 13 12 15 19 19 16 15 16 19 19 25 33 33 30 20 18 22 20 22 22 24 22 23 23 19 14 16
76 70 63 56 50 43 40 35 36 31 24 24 21 19 18 15 9 8 10 11 14 18 20 20 18 16 16 16 19 19 23 34 34 31 29 21 27 27 28 29 26 20 20 27 23 18 17
80 72 64 58 51 42 42 34 37 27 25 23 20 20 17 13 14 14 16 20 20 20 20 19 19 18 18 19 21 22 24 29 35 29 30 19 22 28 29 24 18 16 15 18 16 16 18
78 71 64 57 50 45 42 36 36 26 26 22 19 20 18 19 21 23 23 23 22 23 19 21 20 19 18 18 19 17 20 22 20 19 20 19 15 18 20 18 17 15 15 15 15 16 20
71 68 62 55 51 46 41 38 34 27 27 24 20 21 25 27 28 27 27 26 25 24 21 19 17 18 18 16 16 17 17 17 17 16 16 17 14 14 17 17 16 16 16 16 18 19 22
63 64 64 61 56 50 42 40 34 31 28 25 20 28 31 33 33 31 29 26 24 21 20 19 17 16 16 16 15 13 13 14 15 15 15 15 15 15 16 16 16 16 16 16 14 13 13
76 74 71 68 61 52 48 41 35 35 29 26 29 35 37 38 36 32 29 25 22 20 19 18 17 16 14 15 13 12 14 16 16 17 17 16 15 15 15 15 14 12 11 9 8 8 8
76 75 74 70 64 58 52 46 42 37 33 30 37 39 41 40 36 32 28 25 22 21 19 18 17 14 13 12 12 12 13 15 16 17 16 17 17 15 13 12 11 10 8 5 3 3 2
78 76 75 69 63 57 54 49 46 40 35 40 44 46 44 40 37 33 29 26 23 21 18 15 13 12 14 15 15 15 15 15 15 15 17 16 15 15 14 11 11 10 8 5 4 4 7
76 70 72 66 61 57 53 51 48 45 39 47 49 47 43 41 39 35 30 27 22 19 16 12 9 10 13 13 14 15 15 16 15 16 17 15 16 17 14 14 12 10 9 8 7 9 12
71 72 67 61 56 53 49 48 47 46 42 51 51 48 43 42 40 36 33 27 22 19 12 6 5 7 8 9 13 16 17 16 17 17 19 18 17 17 17 15 12 11 10 12 13 14 15
66 63 60 56 52 50 48 46 47 45 46 56 54 51 47 43 40 37 34 28 23 17 10 6 6 7 9 11 14 17 17 17 18 18 18 18 17 17 16 15 15 14 15 16 17 18 19
70 66 60 53 49 48 46 46 47 44 49 58 57 52 46 44 41 38 35 28 23 16 11 8 7 7 10 11 13 15 16 18 19 19 18 19 19 19 17 16 17 16 18 19 21 22 23
61 61 57 50 47 46 45 45 45 45 51 60 57 51 47 42 40 37 35 29 22 16 12 8 7 5 9 10 12 14 16 18 19 19 20 21 21 21 20 20 21 22 21 22 25 27 28
64 60 53 47 45 43 43 43 44 45 52 60 57 51 46 44 42 40 35 27 23 20 15 11 8 6 8 12 12 14 15 17 18 20 20 22 23 24 25 25 27 26 21 29 30 30 33
59 55 51 44 47 42 42 42 42 45 52 59 57 52 48 45 42 38 35 31 27 23 19 15 10 8 7 12 14 14 15 16 17 20 21 23 26 29 30 30 35 27 29 33 36 37 37
55 49 45 42 46 40 41 40 40 44 52 59 57 52 48 45 41 40 37 32 29 25 22 17 14 13 11 10 14 17 17 16 17 20 22 25 28 32 35 35 38 37 35 37 41 42 41
49 44 43 44 41 38 40 36 38 44 53 58 56 52 49 45 42 40 38 33 31 27 25 22 20 17 16 15 13 13 18 20 22 22 23 26 30 34 37 41 44 42 39 42 45 47 42
43 39 36 43 40 37 35 33 37 44 52 56 54 52 49 46 43 40 38 34 34 31 29 27 25 22 20 19 18 18 18 18 21 23 26 31 34 36 38 42 45 42 43 43 46 46 48
37 36 32 38 36 32 30 31 37 43 50 52 51 52 49 47 43 41 39 36 36 34 33 31 29 28 27 26 25 24 25 25 25 25 27 31 35 36 40 43 45 42 44 44 46 47 48
35 32 30 34 32 30 28 32 37 41 39 34 52 51 49 46 44 41 39 39 38 38 36 35 33 32 32 31 31 31 31 32 32 34 34 36 36 40 41 40 41 43 45 45 46 47 47

GFSGBSN_500_spd_027.txt.gz
Wind_Speed
53 51 48 43 40 40 40 39 40 45 43 39 45 44 45 32 27 26 28 30 23 19 17 16 15 15 11 9 11 13 14 14 13 15 13 15 21 21 25 24 22 19 14 14 15 13 16
55 53 48 45 40 39 40 39 38 45 44 41 43 41 43 31 28 28 33 28 22 18 18 17 16 15 12 11 11 12 12 13 11 12 13 16 20 28 28 23 21 19 18 14 5 11 17
55 52 50 47 43 37 38 39 38 46 45 40 43 40 39 30 28 32 30 28 24 21 17 18 17 16 12 12 12 13 12 11 12 14 17 22 36 30 25 25 24 18 13 6 6 1 7
56 51 49 48 47 38 39 41 39 43 45 40 40 36 35 29 28 28 28 23 20 19 16 16 18 15 13 13 11 11 11 14 16 24 27 25 25 25 25 21 20 18 12 8 4 4 10
56 51 49 46 47 41 41 43 41 41 43 38 37 34 30 25 27 24 22 15 15 15 14 16 16 15 12 15 14 13 13 16 24 28 30 30 24 21 19 19 13 8 11 4 1 5 9
59 57 53 49 47 43 43 42 39 40 40 36 33 32 27 21 21 20 14 13 13 13 13 13 12 12 12 14 15 14 15 23 23 25 32 26 28 21 15 10 5 6 8 5 5 5 10
62 58 56 52 48 44 42 42 39 39 37 33 32 28 24 20 16 15 9 14 14 11 10 11 11 14 14 14 14 15 19 27 28 29 18 22 14 15 19 13 9 6 10 11 9 9 12
70 60 54 51 50 45 44 42 39 36 35 32 31 26 20 18 14 17 9 6 7 10 12 13 12 12 15 16 18 18 17 28 26 27 26 24 17 17 18 17 13 12 14 15 15 13 9
70 62 57 53 51 49 46 43 39 36 33 31 31 23 21 17 15 15 11 7 9 12 13 14 12 13 16 16 18 23 25 29 25 24 20 22 21 18 14 11 12 14 17 18 13 14 13
75 67 61 58 54 51 48 43 39 35 31 32 29 21 21 16 17 14 17 14 8 12 14 14 15 15 15 16 17 20 26 25 22 17 13 11 16 18 15 17 18 19 17 18 19 19 20
73 76 69 60 57 53 50 46 43 37 32 35 26 22 21 18 18 15 14 14 13 14 17 18 16 14 13 14 16 21 27 28 28 26 24 15 16 18 21 20 21 18 15 16 19 23 22
76 72 71 68 65 60 55 50 45 38 33 35 25 23 18 19 20 20 17 20 18 18 18 18 16 14 13 15 17 18 22 24 29 27 26 25 18 14 20 23 21 17 18 17 16 18 21
81 73 72 69 71 65 59 53 47 42 35 33 26 25 20 20 23 24 25 26 23 21 17 18 17 15 14 14 17 18 17 20 24 24 23 19 18 12 16 18 20 17 17 17 17 17 18
87 72 71 71 71 67 62 55 50 45 38 34 29 26 22 22 28 30 30 27 25 23 22 19 17 16 16 15 16 16 16 17 18 17 16 18 18 15 14 16 18 18 18 18 18 16 12
88 74 69 71 73 68 64 57 54 47 42 36 33 28 23 26 34 34 31 29 28 23 21 18 17 15 14 12 12 13 14 15 15 16 18 18 17 16 14 15 17 18 17 14 11 8 5
82 76 66 68 69 70 67 63 59 51 45 39 35 29 26 34 39 37 34 31 27 21 18 17 16 14 12 12 13 12 14 15 16 17 17 16 15 14 15 16 16 14 12 10 7 5 3
67 70 72 77 69 75 73 71 64 55 48 43 40 34 34 43 43 40 35 30 26 20 20 18 16 15 14 14 15 14 14 14 17 19 18 17 17 17 18 15 13 12 10 8 6 5 5
82 77 70 72 76 81 79 73 65 58 52 47 44 38 44 49 47 41 35 30 25 22 20 18 15 14 15 17 18 18 17 18 18 19 18 18 18 17 18 17 15 11 11 9 9 9 9
87 82 78 80 82 80 75 68 64 59 54 50 45 44 50 52 47 41 35 30 26 22 19 14 13 13 14 15 17 17 18 18 18 17 18 17 16 16 16 15 14 13 14 12 13 13 14
84 71 73 80 78 75 71 64 60 58 57 54 49 53 56 53 46 41 37 31 26 25 19 14 9 9 9 11 13 16 17 16 16 16 16 16 15 15 16 17 18 16 17 17 17 16 19
65 73 77 72 76 72 65 60 57 55 57 55 55 59 57 53 47 42 38 32 28 23 16 10 6 6 9 10 11 13 16 17 17 17 16 17 16 17 19 20 20 19 19 18 19 22 23
79 80 76 77 75 68 62 58 54 53 55 55 59 62 58 50 46 42 40 35 27 22 16 9 5 4 6 10 10 11 12 13 16 17 17 18 18 20 22 22 22 22 21 20 23 26 28
82 80 78 72 65 60 56 52 50 52 53 55 61 62 56 51 47 44 39 35 27 22 16 11 6 5 5 10 10 10 10 11 12 15 17 18 19 21 23 25 26 27 20 25 29 30 34
80 68 68 61 56 55 55 50 50 50 50 52 61 60 55 52 48 42 39 34 28 22 18 13 7 6 7 7 10 10 10 11 12 14 16 18 20 24 25 27 31 26 27 30 35 37 39
71 63 58 57 56 54 50 47 46 46 48 52 58 59 55 52 47 43 39 35 30 25 21 16 12 9 8 7 7 10 11 11 12 14 16 19 22 25 27 30 32 33 34 35 39 41 43
67 63 57 52 52 48 45 44 42 44 46 50 57 58 54 50 47 43 38 34 31 28 23 18 16 14 11 10 10 7 7 10 14 16 18 21 23 26 28 32 34 33 35 38 42 43 43
61 57 54 50 46 43 41 39 43 41 44 46 55 56 52 48 46 43 39 34 30 28 25 22 20 19 16 15 14 13 13 12 13 14 17 21 25 27 29 33 35 36 37 39 41 46 47
57 51 44 44 45 39 37 39 39 38 42 46 50 52 51 48 45 41 38 35 32 30 28 25 24 22 22 21 20 20 19 19 19 19 21 24 27 28 31 34 38 39 40 42 44 46 47
46 46 27 43 44 40 39 38 34 37 42 42 48 49 52 49 45 41 38 35 33 33 30 29 29 26 25 26 27 27 27 26 25 27 28 29 31 35 35 35 37 42 44 45 45 44 44

GFSGBSN_500_spd_030.txt.gz
Wind_Speed
51 50 49 48 47 47 43 38 36 35 35 37 42 34 38 41 43 42 33 27 29 28 20 18 16 15 13 12 11 9 10 11 11 13 15 16 17 18 19 19 19 16 11 6 9 6 16
52 51 50 49 48 48 45 38 35 34 35 36 41 37 37 40 42 39 30 28 26 26 19 17 16 15 14 13 10 8 10 12 13 14 16 14 19 24 27 22 23 16 12 7 9 17 18
52 51 50 49 49 48 44 40 34 31 34 35 38 38 36 39 40 36 27 24 28 27 19 16 15 17 17 13 10 10 10 12 14 13 13 16 20 26 20 21 19 16 17 11 9 13 14
55 52 50 51 49 47 44 38 35 34 34 35 41 40 33 37 36 31 24 20 22 20 13 12 14 17 16 12 10 11 12 13 13 13 16 15 18 21 25 23 21 17 13 6 5 7 11
58 56 55 52 50 46 42 37 33 35 35 36 39 39 33 35 32 26 19 15 19 14 10 10 13 17 14 12 11 11 11 11 12 19 18 23 26 27 27 26 21 15 12 9 8 10 14
58 56 54 53 51 47 42 38 34 35 36 36 37 37 32 32 28 21 14 17 17 12 9 13 14 15 13 13 15 13 11 15 17 24 24 26 24 25 24 17 15 12 8 6 6 8 13
63 59 55 54 52 50 47 42 37 35 35 36 35 35 30 30 24 18 13 14 16 9 11 9 10 10 13 14 15 15 17 20 23 23 22 25 24 17 16 12 12 8 5 9 7 4 6
69 65 61 58 57 55 51 45 40 37 35 36 35 31 29 29 21 15 14 13 9 8 6 9 10 11 14 14 15 16 21 24 27 27 24 21 16 24 21 14 11 8 7 14 9 7 5
75 71 67 65 61 56 52 47 42 41 39 36 34 30 28 26 18 14 13 13 6 5 10 12 14 14 14 17 16 21 18 26 25 23 21 22 19 9 16 13 12 12 8 14 11 11 7
81 78 74 69 64 60 50 46 43 41 40 37 34 29 29 23 17 15 14 14 12 11 14 14 16 15 15 17 17 24 23 24 17 27 20 18 16 16 16 14 11 14 11 12 16 9 10
83 80 77 74 68 60 53 46 44 42 40 38 34 30 29 21 18 18 17 15 16 14 18 15 14 14 15 17 17 23 25 26 23 23 25 15 18 17 17 16 13 13 13 13 10 12 16
84 81 78 75 71 60 54 50 47 45 42 40 36 31 28 19 20 19 16 16 18 17 16 12 14 13 14 15 17 21 24 27 23 17 12 12 11 9 9 16 15 15 14 12 13 17 18
87 82 79 77 72 65 56 53 53 49 45 42 38 33 30 22 22 20 17 20 20 20 16 17 15 13 13 13 15 20 25 26 24 23 22 18 17 18 13 13 16 17 13 15 16 16 16
92 88 82 78 74 72 63 59 58 52 47 45 41 36 32 25 24 20 21 24 24 23 20 17 16 14 13 13 15 18 22 23 22 22 19 18 18 19 16 11 14 15 18 18 18 18 19
102 94 86 83 78 72 69 66 61 57 50 48 44 40 33 27 27 22 25 27 25 26 21 20 17 15 13 12 14 16 16 16 17 16 20 20 20 17 16 15 16 15 17 17 19 18 14
99 98 93 85 76 75 71 70 66 62 57 52 49 43 34 31 30 25 28 29 30 27 24 21 17 15 14 13 14 14 15 15 16 17 18 18 18 17 17 17 17 17 16 16 14 11 8
102 98 94 86 79 76 74 72 70 67 62 56 55 46 40 35 32 29 31 33 32 29 25 21 18 16 14 13 13 13 15 16 17 18 18 18 18 19 19 19 18 17 15 13 12 10 9
76 86 94 88 78 78 78 78 75 71 67 61 58 49 44 39 36 32 36 38 35 30 25 22 19 17 16 15 14 15 15 17 19 20 21 19 20 20 20 20 19 16 14 14 13 12 11
68 72 74 78 80 79 82 82 80 76 70 65 62 55 47 42 38 39 42 41 36 30 25 21 19 16 15 16 18 19 19 20 20 21 21 21 21 21 20 18 16 15 15 15 15 16 14
67 76 82 80 78 80 87 84 83 80 76 70 63 56 50 44 41 44 46 43 37 29 26 20 18 16 16 18 19 21 23 23 23 22 21 22 19 17 17 17 17 18 18 18 18 18 19
70 84 98 93 86 77 79 81 83 82 76 72 67 59 51 46 49 51 48 42 36 30 26 22 17 13 14 15 16 16 18 20 20 20 20 19 17 17 17 18 19 20 22 20 20 22 22
67 88 99 96 70 82 76 83 78 74 75 72 66 62 54 50 54 54 51 44 37 31 27 20 15 11 10 12 13 13 14 15 16 17 19 18 16 17 18 17 20 22 22 22 23 24 25
69 89 89 69 77 85 82 83 76 72 71 69 67 62 56 57 59 56 50 43 37 35 27 20 14 10 10 12 12 12 12 12 14 17 18 18 17 18 17 20 22 24 21 24 27 27 31
92 89 62 73 79 80 80 77 73 68 65 63 62 60 57 62 61 56 50 43 38 33 26 21 15 10 9 7 10 11 11 11 12 12 14 14 16 19 18 22 26 21 24 27 31 33 37
88 55 63 72 71 74 75 65 65 66 63 61 58 57 60 63 60 55 50 45 41 33 27 23 17 11 6 5 4 6 10 9 10 12 13 15 17 20 22 22 25 26 27 29 34 36 39
59 64 77 80 78 71 68 63 61 59 58 54 53 54 59 61 59 55 50 46 41 34 29 24 18 13 9 5 4 2 3 7 11 11 13 15 18 20 21 25 26 26 29 31 34 37 39
69 73 73 74 73 63 60 57 54 53 52 50 50 55 58 59 56 55 50 45 41 35 29 25 20 16 13 10 8 6 5 6 7 9 11 15 18 20 22 25 26 29 31 32 36 40 42
73 70 68 61 60 57 56 54 52 49 47 46 49 53 57 57 56 53 48 45 40 35 32 27 23 18 17 15 14 12 12 12 12 13 15 18 21 23 25 28 32 34 37 40 41 43 43
67 62 60 58 55 51 48 46 45 44 43 43 45 49 55 54 52 50 46 42 39 37 33 30 26 24 21 19 17 18 19 18 19 20 22 24 27 28 29 31 36 41 43 44 43 43 42

GFSGBSN_500_spd_033.txt.gz
Wind_Speed
50 49 49 48 47 47 45 43 43 42 38 35 31 29 32 32 38 38 39 37 32 30 30 27 20 17 14 12 12 13 11 11 12 11 15 13 14 12 16 18 15 16 16 15 15 16 16
51 52 50 49 48 47 46 46 44 41 39 35 31 28 30 33 37 39 37 36 30 28 27 22 19 15 13 12 12 12 10 10 11 12 15 14 17 19 21 20 19 16 15 14 13 11 13
52 52 50 49 48 49 48 47 44 41 38 35 30 28 28 34 37 38 35 33 30 21 24 18 14 13 13 13 12 10 9 10 12 13 13 12 13 18 19 18 18 18 18 14 16 17 13
56 54 53 51 48 49 48 46 45 42 37 34 32 30 29 34 35 36 32 31 26 23 23 12 13 13 14 13 12 10 11 11 12 12 9 9 11 17 24 26 25 19 11 8 12 10 10
61 60 56 53 50 48 48 46 45 41 36 32 31 30 30 35 34 33 30 28 22 22 18 8 8 11 12 14 11 10 10 11 10 8 9 12 15 21 23 21 16 13 8 13 9 9 11
65 62 60 56 53 51 50 48 45 41 37 34 30 30 32 35 33 30 29 24 21 20 11 10 14 12 14 17 8 10 11 9 9 12 13 17 23 23 25 20 13 12 12 9 4 10 13
67 63 60 57 56 53 49 47 45 42 37 33 30 31 32 33 32 28 26 21 19 15 10 11 8 9 9 9 12 14 11 12 15 16 12 27 26 20 15 19 15 11 8 7 12 9 12
69 67 64 60 54 53 51 48 46 44 41 37 33 31 32 32 31 26 23 19 17 14 7 4 4 4 9 10 13 14 14 17 17 17 24 25 20 16 21 15 16 12 6 11 10 5 7
73 70 67 66 61 55 53 52 50 49 46 42 37 33 32 33 30 25 22 18 18 15 8 5 6 7 9 12 13 14 17 19 22 10 11 14 17 18 17 16 11 9 9 12 9 7 6
77 74 71 67 64 61 56 54 51 50 49 45 41 37 35 33 29 24 22 19 20 18 13 11 11 13 14 16 18 21 20 19 27 24 20 20 13 12 23 10 10 10 6 5 11 7 6
81 78 74 71 68 64 61 57 53 49 46 46 43 41 37 34 29 27 22 20 21 21 17 16 17 16 16 16 19 20 22 23 14 19 22 6 14 16 10 15 10 12 6 9 8 9 12
85 83 80 77 73 68 64 60 53 48 43 44 44 43 38 33 31 28 24 20 22 22 19 13 12 12 11 13 16 21 24 22 20 17 23 9 15 14 9 9 11 9 8 9 8 7 13
89 86 84 81 77 74 66 60 56 49 45 45 45 44 40 36 35 29 25 22 23 25 19 13 13 13 12 12 16 18 25 25 20 15 13 17 16 13 10 8 10 12 9 7 9 10 11
93 89 84 81 78 76 69 63 59 53 47 47 47 46 42 39 36 32 25 25 24 19 15 14 16 14 13 14 16 20 21 22 24 19 11 12 14 14 14 14 8 10 12 12 10 11 8
100 94 87 82 78 75 73 67 63 56 48 52 51 48 44 42 38 34 27 28 20 20 19 18 17 15 14 15 16 16 19 21 21 19 16 14 20 18 18 17 14 14 14 16 17 16 17
106 100 95 89 83 76 73 70 67 62 55 54 52 51 48 45 40 36 31 25 24 25 22 21 19 14 12 12 14 15 17 19 19 18 23 15 17 20 16 16 15 16 15 14 17 19 13
105 102 98 94 89 81 75 73 70 65 61 60 57 54 52 48 43 41 34 23 26 26 25 22 21 17 14 14 13 14 14 16 17 17 19 18 18 16 16 16 13 16 16 17 18 15 13
97 104 101 96 91 86 82 78 73 69 68 65 61 60 56 52 47 42 30 28 29 31 29 26 24 21 19 18 17 17 17 17 18 17 17 19 20 20 16 18 19 18 17 17 18 17 15
66 78 94 102 94 89 87 85 81 76 70 67 66 65 59 55 47 44 32 34 37 35 32 29 26 22 19 17 17 17 19 16 18 20 23 20 21 22 21 19 18 19 18 19 20 19 17
55 73 85 88 96 92 90 90 87 83 75 72 72 69 63 55 48 44 36 37 39 38 36 32 27 23 19 18 18 19 20 20 21 21 21 22 22 22 20 17 20 19 21 21 22 21 19
53 61 78 93 90 94 91 92 91 87 83 81 75 70 63 56 54 48 40 40 41 41 37 32 27 22 19 19 20 21 23 24 25 24 24 24 23 23 22 21 20 20 21 22 23 20 23
44 51 60 86 99 94 91 93 90 91 88 85 78 72 68 56 55 49 43 48 45 41 36 32 26 21 19 19 20 19 21 20 22 22 23 23 24 21 21 22 21 22 21 22 22 22 24
51 49 54 77 98 101 94 92 87 80 89 84 75 75 69 60 57 50 48 51 48 44 36 33 27 22 20 19 19 19 18 18 17 20 22 23 23 22 22 20 21 19 18 21 23 24 28
55 46 54 69 98 97 96 95 90 81 82 81 77 76 72 59 57 53 54 54 50 44 39 33 27 22 17 17 16 17 16 16 16 18 20 21 21 21 20 20 21 17 19 22 25 27 32
43 43 54 66 95 96 89 90 89 78 77 80 75 74 71 63 55 60 59 55 51 46 44 36 28 22 17 13 11 13 15 14 15 16 16 18 19 19 21 21 21 20 21 24 27 30 37
44 44 57 80 94 86 78 89 78 92 82 75 76 69 70 63 58 60 63 59 55 49 41 36 30 23 17 13 10 8 10 14 15 12 13 15 16 18 18 20 21 22 23 26 29 32 34
36 53 82 82 75 82 87 86 86 76 74 72 71 66 66 59 55 62 64 59 53 48 43 36 30 24 21 15 11 9 7 8 9 10 12 13 15 16 18 19 20 21 24 27 30 35 37
79 70 61 72 76 82 81 76 76 73 66 65 62 54 57 57 58 62 62 57 55 48 41 36 32 27 22 19 15 12 10 9 9 9 10 12 14 16 18 21 25 27 30 32 35 38 40
55 57 59 63 66 72 75 70 71 73 58 55 56 53 55 55 57 62 59 57 53 49 41 36 34 30 27 24 19 16 15 14 13 15 16 18 20 22 23 27 30 34 35 37 39 41 42

GFSGBSN_500_spd_036.txt.gz
Wind_Speed
54 53 52 48 47 46 44 42 42 41 39 38 37 37 34 30 27 29 29 33 37 38 40 35 31 34 19 15 14 12 14 13 13 9 8 9 8 7 12 6 13 18 11 19 25 20 19
59 57 54 53 51 48 45 43 43 42 41 41 38 36 32 28 25 29 30 31 36 36 37 32 33 32 16 12 12 13 14 11 7 8 7 10 10 10 15 6 10 15 13 19 17 18 23
59 59 56 55 54 49 47 45 44 43 42 42 39 36 31 26 26 29 31 31 34 35 34 32 29 20 13 11 13 13 12 8 6 8 8 9 10 13 16 14 19 18 22 19 18 16 17
61 59 58 56 55 50 47 46 44 42 42 41 39 37 31 28 27 30 31 31 32 33 30 28 20 15 10 13 14 13 10 7 8 7 8 8 9 13 17 23 22 13 18 17 13 13 6
64 64 61 59 57 54 50 47 45 42 40 39 38 36 31 28 28 31 30 31 31 30 28 22 15 12 11 12 14 14 8 8 5 7 7 7 11 14 21 18 22 18 13 8 10 9 13
66 64 63 61 58 56 53 49 46 42 41 37 36 33 30 30 30 31 30 30 30 28 26 22 17 15 10 10 12 11 8 7 6 7 6 5 8 14 17 19 24 14 9 11 2 4 8
68 67 65 63 60 57 55 51 47 44 42 38 36 32 32 29 31 30 29 29 29 27 25 24 14 11 10 4 5 7 6 7 5 6 7 8 12 10 18 17 11 11 9 7 9 5 9
69 68 66 64 61 59 56 54 50 46 42 40 37 34 32 33 32 31 29 27 27 25 24 22 11 6 5 2 2 5 10 5 7 12 17 14 16 15 18 14 15 6 4 9 10 7 11
70 68 67 66 63 61 58 54 52 49 43 40 37 36 36 36 34 32 28 28 25 24 24 21 12 9 7 5 4 6 11 9 15 17 17 14 23 14 13 14 13 4 8 15 6 7 7
75 72 68 67 63 60 58 55 52 49 46 43 41 39 39 37 36 34 30 28 24 23 24 23 17 14 9 6 8 10 11 13 20 15 8 23 16 15 15 14 7 10 12 8 6 9 7
80 76 72 69 67 63 59 57 54 50 47 44 43 42 41 39 38 38 30 28 23 22 23 25 17 18 14 10 15 15 14 18 13 15 19 9 12 9 9 15 13 9 9 9 9 8 12
82 82 78 73 71 67 63 59 55 52 53 44 42 41 39 39 43 41 32 31 23 24 20 26 20 11 12 12 12 14 18 18 18 12 19 14 17 12 18 10 7 1 4 5 7 11 20
84 82 79 76 74 70 66 61 56 54 51 48 44 41 39 44 46 42 37 31 28 26 17 22 18 12 10 11 11 12 12 14 12 14 13 8 5 11 3 4 4 6 3 5 16 12 8
93 86 83 79 75 72 69 66 62 57 53 49 42 40 40 44 45 42 38 34 32 22 23 21 15 12 11 12 11 12 15 17 17 12 7 6 13 8 9 7 13 11 10 16 15 9 4
99 96 91 85 80 75 72 69 67 62 57 51 45 40 39 45 46 44 40 40 30 20 19 20 16 14 13 13 13 12 14 13 13 18 19 17 21 19 21 15 18 11 13 17 11 10 12
106 102 97 91 86 80 75 71 67 64 58 54 48 43 44 48 48 46 45 41 27 25 23 23 18 15 14 14 14 13 14 13 13 14 24 24 29 17 16 12 16 17 15 12 15 14 11
108 105 102 97 91 85 79 73 70 63 60 57 53 48 50 52 52 49 48 39 26 29 26 28 21 16 16 14 13 12 12 13 20 20 28 20 11 7 10 13 15 14 14 13 15 13 12
93 103 101 98 95 91 85 77 72 67 63 62 55 51 55 55 54 48 48 36 29 32 28 28 24 19 19 19 15 14 13 14 18 20 23 19 21 26 13 20 14 14 13 13 16 15 18
58 76 91 97 95 93 90 84 77 70 67 61 58 58 55 57 52 48 47 37 34 35 29 30 26 24 22 21 21 19 19 22 17 19 22 24 21 19 14 15 12 15 17 18 20 18 16
41 54 72 83 92 94 91 88 83 76 70 65 64 66 65 54 53 53 47 40 39 35 33 33 28 27 24 23 22 22 24 22 16 21 19 21 19 20 19 10 17 15 19 20 21 20 15
38 44 63 79 87 90 92 89 87 84 78 74 70 65 64 58 55 55 50 43 41 38 38 37 33 30 26 25 24 22 23 20 21 21 22 23 21 22 22 18 25 25 20 19 21 19 21
43 39 48 72 91 96 88 94 88 89 87 83 65 64 64 61 58 51 50 45 43 40 40 39 35 31 26 26 25 24 24 21 22 24 26 26 25 26 23 22 24 24 21 21 21 21 22
44 41 45 55 82 102 103 93 94 94 94 84 67 69 68 67 62 55 49 49 44 40 40 36 31 30 28 28 28 24 19 14 22 20 22 23 23 24 22 23 22 22 19 20 20 23 24
38 40 46 48 65 92 107 104 98 98 96 79 71 71 69 65 65 53 48 47 45 42 35 42 36 31 35 28 23 22 21 23 20 20 20 21 22 23 22 23 23 19 18 19 21 22 27
33 40 49 51 55 78 103 110 105 97 94 86 83 72 61 67 58 55 53 49 45 43 31 42 42 41 31 26 23 20 20 20 20 19 19 20 21 22 23 23 20 19 21 19 21 26 29
40 42 41 48 53 67 97 109 103 95 94 88 83 70 53 54 56 51 52 54 48 53 37 49 43 37 31 25 20 19 18 18 22 18 18 18 18 20 19 20 21 23 20 21 23 28 28
50 41 39 47 50 59 95 102 97 91 88 83 76 59 46 40 51 56 51 56 53 52 43 47 43 38 31 23 21 17 15 16 17 17 17 17 17 18 18 19 18 22 17 21 23 26 29
50 43 39 36 51 65 93 97 83 91 84 77 68 55 56 45 46 52 54 57 56 60 34 50 47 40 32 26 21 18 15 14 12 13 14 14 14 14 14 15 18 19 22 23 26 30 33
40 37 39 45 54 75 97 83 78 85 79 69 50 50 46 37 53 61 60 59 61 64 58 50 43 36 32 30 26 21 18 16 15 14 14 14 14 15 16 20 21 24 26 29 31 33 37

GFSGBSN_500_spd_039.txt.gz
Wind_Speed
56 54 52 53 51 50 49 48 44 43 42 40 38 36 36 36 33 31 25 24 27 30 34 32 35 37 31 26 18 12 10 12 12 13 5 6 6 5 8 14 16 17 16 10 20 12 20
60 57 55 55 54 52 52 50 47 45 43 42 40 37 36 36 34 30 24 24 28 31 33 31 33 30 28 17 14 12 12 11 10 5 4 7 8 11 14 21 13 14 11 12 12 22 19
63 62 61 57 56 55 55 52 51 47 44 44 41 37 36 34 33 30 26 25 29 30 33 29 31 28 28 16 15 13 13 9 5 4 4 8 8 10 14 18 20 15 15 11 15 19 14
66 64 61 61 60 55 55 53 51 49 46 44 41 38 36 33 31 30 26 27 29 31 32 28 28 26 23 18 16 16 12 6 3 5 5 4 5 8 10 14 18 22 22 13 13 21 8
70 67 64 61 58 57 56 54 51 49 47 44 40 37 36 32 30 28 26 27 28 31 31 27 27 26 23 20 16 16 12 5 3 4 5 6 9 10 13 15 16 16 23 16 1 11 7
70 67 66 63 61 59 57 56 54 50 47 43 39 37 34 31 28 26 27 28 28 30 27 25 25 24 20 17 13 10 12 4 2 4 5 4 5 9 14 16 17 14 15 11 8 4 6
71 69 68 66 63 61 58 57 57 53 49 44 40 38 35 31 28 26 28 28 27 28 26 24 24 21 17 12 6 2 3 1 3 7 8 7 10 12 17 16 13 18 13 13 6 3 9
72 70 69 67 64 61 58 57 55 54 50 47 42 39 36 33 29 28 28 28 29 29 24 21 21 19 15 8 5 4 4 2 6 10 7 7 13 17 14 14 14 14 10 7 11 4 9
70 69 68 67 65 63 60 58 57 55 53 49 43 40 38 35 31 30 30 31 31 31 26 21 20 17 15 9 6 8 3 6 7 10 11 14 13 15 15 11 10 15 3 7 12 10 4
73 70 67 65 65 61 61 58 57 55 54 50 45 43 40 37 33 33 32 30 32 31 29 21 19 15 12 11 9 10 1 7 7 9 18 14 17 9 9 17 17 12 6 7 11 4 8
78 75 73 68 63 60 58 56 55 54 51 51 47 44 42 38 36 33 31 31 32 32 27 22 16 14 14 11 16 12 8 9 9 11 13 11 13 12 12 19 17 4 2 13 10 8 10
82 78 75 74 69 63 59 56 53 52 50 49 47 43 42 40 38 37 36 36 35 33 26 24 18 15 15 12 14 19 10 11 13 12 11 10 11 14 4 15 10 4 9 9 14 19 15
87 83 80 76 72 68 64 59 55 51 49 50 50 42 39 41 38 40 37 38 36 39 23 24 20 14 14 12 14 16 9 12 13 12 7 7 9 7 11 8 8 6 11 13 13 14 11
92 89 85 80 76 71 67 65 60 55 51 48 48 42 43 35 38 36 36 39 39 35 22 24 23 16 12 13 12 12 11 13 13 10 6 6 11 10 11 6 6 4 11 13 16 17 16
99 95 91 88 81 77 71 66 64 61 57 52 50 45 42 46 49 42 40 38 36 28 22 21 23 18 15 15 12 11 12 14 14 13 13 11 15 14 12 17 15 11 7 15 18 10 9
107 101 96 92 87 82 77 70 65 63 61 59 54 49 43 47 43 41 41 35 36 24 27 23 23 19 16 15 13 13 11 14 13 16 19 18 19 19 23 20 14 15 16 14 17 16 8
99 107 103 97 93 88 83 76 69 66 64 62 59 55 48 49 48 48 42 38 34 28 30 27 22 18 18 16 12 13 13 10 8 15 18 22 21 21 27 21 16 15 16 16 17 15 13
66 90 95 101 97 93 88 83 77 70 68 64 61 57 54 54 52 50 43 41 33 31 33 30 27 23 23 16 15 12 15 17 10 17 23 18 20 18 6 9 7 13 12 14 19 15 18
38 48 76 87 98 98 92 87 82 76 72 67 61 56 60 58 52 48 47 42 35 36 37 35 26 25 27 22 27 18 21 18 21 21 18 18 21 20 15 12 15 16 17 19 19 18 15
46 43 45 72 86 94 96 91 86 80 76 71 68 64 62 58 50 49 50 43 39 38 42 35 27 29 31 28 28 19 25 22 20 19 19 19 19 17 18 18 20 17 13 18 22 23 16
40 35 39 52 81 91 93 95 90 85 80 78 75 64 57 56 57 55 56 48 42 44 43 36 31 34 33 30 33 29 26 24 21 17 22 24 22 21 22 21 26 21 22 23 18 21 19
43 36 32 40 55 90 96 96 94 89 86 85 76 63 54 54 54 59 59 51 46 46 43 38 34 36 35 33 29 25 24 24 21 21 24 24 24 25 24 24 26 25 23 22 20 18 18
41 38 30 36 46 64 93 99 95 95 95 89 75 64 56 56 57 59 58 46 43 45 40 39 32 34 38 35 31 28 28 26 23 25 26 26 27 29 27 26 26 27 16 24 20 20 21
40 38 37 37 44 51 77 97 100 100 98 85 74 69 62 60 58 58 53 41 45 46 44 39 34 37 42 38 30 28 27 25 22 28 22 21 25 26 24 25 26 18 21 19 20 22 24
41 39 42 45 42 41 61 92 103 102 95 85 79 73 67 62 59 59 53 41 45 47 46 41 40 42 43 36 32 29 28 26 24 28 24 23 23 23 24 24 22 22 19 16 21 23 24
38 40 42 42 44 41 49 78 100 102 94 88 84 76 71 59 58 57 54 46 47 49 46 43 41 38 40 36 36 33 28 23 25 25 24 24 22 23 23 23 22 22 21 18 23 26 23
37 40 37 36 35 38 47 68 94 100 94 91 85 79 71 54 57 46 55 49 45 48 46 43 42 45 44 38 34 31 27 24 26 22 23 24 22 21 20 20 20 18 18 22 24 24 21
37 33 30 28 29 30 49 61 92 98 95 88 84 79 73 50 37 43 46 48 51 49 46 47 48 51 44 40 38 31 26 23 22 19 22 21 20 18 17 18 19 17 18 19 20 20 24
35 32 33 36 43 38 37 60 88 98 90 83 76 71 65 48 46 39 41 45 41 50 46 42 41 42 42 39 36 31 26 23 20 17 19 17 16 16 16 15 17 18 19 19 20 24 29

GFSGBSN_500_spd_042.txt.gz
Wind_Speed
60 58 56 57 53 51 50 49 47 46 44 43 41 39 37 35 35 34 33 29 26 24 26 28 30 31 33 34 23 21 13 12 14 17 8 3 5 10 13 19 19 21 21 32 32 20 7
63 63 61 59 58 55 54 52 50 49 48 46 43 42 40 37 35 35 33 28 26 24 25 28 30 29 32 31 26 22 14 13 12 12 4 8 9 8 11 18 19 18 23 20 14 14 13
66 65 63 63 61 59 57 55 52 50 48 46 44 43 41 39 36 36 33 29 24 24 26 28 30 27 30 30 25 22 14 12 10 7 4 4 7 5 8 10 22 25 16 16 7 5 8
68 67 67 66 63 63 61 60 56 51 49 47 45 44 42 41 37 37 33 30 24 23 25 27 28 26 28 27 23 18 13 13 9 7 6 5 6 9 9 14 25 20 16 12 10 3 11
69 69 69 68 67 65 64 63 61 59 52 48 43 43 41 39 38 36 33 30 23 22 25 26 27 24 26 24 22 17 12 9 10 8 9 7 9 13 13 14 19 17 11 6 6 2 2
74 73 72 71 71 69 67 65 61 57 55 50 45 42 40 37 37 35 31 29 23 22 25 26 24 22 23 20 19 12 11 9 10 11 9 8 10 13 17 16 14 15 22 20 15 4 8
70 72 70 70 71 70 69 65 61 59 54 51 47 45 40 36 36 33 31 28 25 24 24 24 23 19 21 18 14 9 3 3 5 7 6 6 8 13 16 14 17 15 13 11 8 6 2
65 67 68 69 69 68 67 66 62 59 56 52 49 45 42 39 38 36 31 31 27 24 23 22 24 19 21 15 13 10 7 9 4 4 2 4 9 11 16 20 17 15 18 14 10 5 3
67 66 65 66 68 67 66 65 62 59 56 54 50 47 44 44 40 35 33 34 25 26 24 24 23 18 20 14 11 12 8 10 6 4 2 8 9 10 14 14 15 15 11 15 13 7 1
73 70 67 64 67 65 65 64 61 59 55 53 50 47 46 43 40 39 36 34 26 30 26 24 22 17 16 15 12 14 12 8 8 3 2 4 8 10 7 12 16 19 16 19 14 13 11
78 75 71 69 67 64 63 62 59 58 57 53 51 49 46 45 40 41 38 34 31 29 29 23 19 14 17 15 13 12 16 12 7 6 3 6 6 11 7 15 17 8 10 11 19 15 11
84 79 76 72 70 68 63 60 57 55 54 52 49 49 46 41 41 44 37 35 34 31 29 22 19 16 18 17 13 18 17 14 14 4 2 3 5 6 10 18 17 12 15 13 12 12 13
89 86 81 78 74 70 67 64 59 55 53 51 49 46 45 43 42 43 39 38 37 38 25 23 19 16 17 15 15 18 17 16 17 8 3 3 4 9 13 21 14 12 13 13 14 14 13
98 92 87 83 79 75 71 67 64 60 56 52 50 47 42 39 45 43 41 41 42 36 29 27 24 19 18 14 15 17 16 18 17 13 11 9 8 4 15 19 17 16 15 14 15 14 7
102 98 93 88 85 81 75 70 67 63 61 57 54 51 47 48 45 44 45 46 40 36 27 26 27 26 17 14 16 18 16 18 20 19 15 15 15 9 13 10 16 16 16 15 16 16 13
92 102 98 94 89 85 80 77 71 67 64 62 58 54 49 50 54 48 47 45 41 33 29 31 29 24 18 15 16 18 19 18 19 20 20 16 14 16 17 17 15 16 14 16 15 16 15
54 78 91 98 93 89 86 81 76 70 68 66 64 60 54 55 52 58 49 42 39 31 30 32 29 25 19 17 17 18 18 16 17 21 25 22 20 16 17 21 21 23 19 18 18 18 15
48 43 61 84 94 93 90 85 80 77 73 70 67 64 61 60 60 50 44 42 42 32 35 34 33 28 24 18 20 20 22 16 16 20 26 25 24 21 16 14 20 29 17 16 17 18 21
49 46 44 51 83 89 94 90 87 82 79 75 70 66 68 64 61 52 47 45 41 37 39 37 34 31 24 21 23 20 26 17 20 17 16 13 16 18 17 18 16 16 20 16 21 18 19
53 47 45 36 51 83 90 97 92 88 84 80 77 75 71 66 59 53 50 44 41 38 41 40 37 32 26 24 26 24 27 21 23 20 19 16 19 18 15 19 22 21 19 18 23 25 22
52 48 44 42 34 50 90 98 97 93 89 86 83 77 69 61 63 58 56 51 47 46 44 43 41 35 29 29 29 24 27 26 26 25 26 23 20 18 16 19 22 23 21 23 22 21 22
52 49 48 42 39 37 58 99 101 96 93 92 86 77 66 58 57 58 56 52 51 47 47 47 40 34 32 33 30 29 29 25 26 26 24 20 22 23 22 24 26 28 25 23 27 27 22
50 49 44 41 41 39 42 78 102 101 101 95 88 79 69 61 58 59 55 54 51 46 49 47 40 37 34 31 32 31 30 29 28 28 25 24 26 26 27 27 29 34 27 25 26 31 27
46 45 44 41 39 34 36 54 96 100 103 96 88 80 72 65 58 52 57 57 50 48 47 46 40 37 31 35 36 33 34 33 32 29 28 27 30 31 31 31 36 29 29 31 27 26 28
42 43 42 44 40 33 36 42 66 90 99 96 88 82 73 67 59 56 58 62 50 46 49 46 42 36 37 37 41 39 39 37 34 31 26 25 30 27 29 29 30 27 27 26 25 26 25
44 45 45 46 41 37 35 39 48 72 95 94 88 82 75 70 59 59 60 57 50 53 51 49 45 42 44 38 40 40 41 39 35 31 27 25 29 31 27 25 26 22 25 24 25 26 22
42 44 44 46 44 38 37 36 40 59 86 94 89 84 77 66 64 61 60 57 48 52 53 53 50 47 44 42 40 42 42 39 35 30 28 29 28 29 26 26 24 19 23 24 25 20 20
42 43 44 42 40 39 40 33 34 53 81 94 90 83 77 67 63 64 63 51 54 48 54 52 48 47 45 44 42 43 40 34 35 30 26 28 28 26 24 25 21 19 20 20 18 20 20
35 37 38 37 36 38 40 37 37 55 75 91 90 85 78 70 43 48 56 53 52 47 51 51 44 44 43 40 41 42 41 32 32 29 28 28 24 24 23 22 19 17 15 14 15 19 24

GFSGBSN_500_spd_048.txt.gz
Wind_Speed
56 57 56 52 51 51 50 50 50 47 49 46 42 42 41 41 41 40 40 37 36 34 35 34 32 32 30 30 32 34 36 37 35 23 19 21 14 9 10 10 8 11 24 24 24 17 19
61 60 60 60 57 55 52 52 51 51 49 45 47 46 44 42 41 42 42 39 37 35 35 34 33 32 30 30 31 32 34 35 32 21 18 17 9 7 10 10 9 9 15 17 20 12 12
64 63 63 63 61 59 56 53 53 51 52 51 50 52 44 45 42 42 44 41 37 35 34 33 33 31 29 30 29 30 32 33 30 20 15 13 11 7 7 8 11 9 9 13 13 14 17
67 67 67 67 65 62 60 59 55 55 52 51 51 51 49 47 49 43 43 41 37 34 34 35 34 30 29 29 28 29 30 31 28 21 12 11 8 8 9 9 14 11 8 8 9 10 11
64 65 68 69 68 67 65 62 62 59 57 55 53 50 49 51 49 46 48 44 41 36 35 35 33 29 30 28 27 27 29 29 24 15 9 10 8 11 11 13 13 13 10 12 12 6 11
67 65 65 66 69 70 68 69 65 67 63 57 56 55 50 49 49 49 51 49 43 40 35 34 32 29 27 26 26 26 27 28 22 11 8 9 9 10 9 9 12 10 13 14 13 7 5
74 71 69 66 66 69 68 67 69 69 69 66 57 54 53 51 48 47 49 49 47 44 36 34 31 30 27 28 24 24 24 24 19 9 11 11 12 10 9 12 12 11 11 9 7 7 12
81 78 75 71 68 66 65 68 68 68 70 70 62 56 57 53 49 46 45 46 43 47 40 34 31 29 28 27 24 22 21 21 16 11 11 11 10 12 12 13 13 12 13 11 12 8 15
86 83 79 76 72 69 66 64 62 65 66 68 63 57 57 55 49 48 45 43 39 44 42 32 32 28 30 27 24 22 19 17 14 11 8 10 9 12 10 13 16 14 15 13 15 14 11
93 88 85 81 77 72 70 66 63 61 62 64 62 58 57 54 51 48 47 41 39 37 38 30 34 29 30 27 24 22 18 16 15 13 11 12 10 11 9 11 17 17 17 17 17 17 13
100 93 89 85 80 77 73 70 67 63 60 58 59 57 56 52 47 48 46 41 38 37 34 31 35 32 28 26 25 20 20 17 15 16 14 14 14 11 9 10 13 17 19 17 23 21 14
103 99 94 89 86 81 78 74 70 68 63 59 57 57 55 51 47 48 45 43 38 35 35 31 30 30 29 27 26 23 19 15 18 15 15 15 15 13 12 9 10 18 15 19 19 18 15
75 90 97 94 89 86 82 79 74 70 67 63 59 57 54 49 43 48 46 43 40 40 34 33 29 25 27 29 26 25 21 14 15 16 16 19 15 13 13 13 10 14 16 15 17 18 16
58 56 67 82 92 87 87 84 79 74 71 67 62 59 56 50 49 50 46 43 42 38 37 35 32 30 30 29 27 26 23 16 15 15 20 21 16 17 13 12 13 20 18 19 20 18 16
61 59 53 55 75 82 84 87 84 79 74 70 66 64 59 53 51 52 50 48 41 37 36 34 36 33 36 34 30 28 24 17 15 15 17 20 20 20 15 19 16 21 23 22 23 20 18
65 61 61 55 51 76 80 86 88 84 79 76 71 67 61 57 57 56 54 46 42 39 38 38 37 38 33 30 32 28 25 17 13 14 16 19 21 21 17 17 18 20 19 21 19 20 18
69 65 60 59 51 53 79 85 89 88 85 80 77 73 65 62 62 62 52 47 44 41 40 38 40 40 37 36 34 31 24 18 17 16 17 19 24 24 21 19 22 23 22 21 20 22 24
78 70 63 60 57 50 58 84 90 91 89 86 81 78 71 67 69 62 51 49 46 41 42 41 41 40 37 36 34 31 25 19 19 17 17 18 24 27 23 24 27 27 27 27 26 26 25
82 77 67 63 62 54 47 67 88 94 92 89 85 80 78 75 74 61 55 51 47 43 45 44 43 44 40 41 41 32 25 21 22 22 20 20 22 25 26 28 27 30 27 21 22 30 30
73 76 73 64 64 60 54 48 76 92 94 91 90 89 85 83 68 64 59 54 49 43 48 48 45 45 42 39 38 32 26 25 24 24 24 23 24 25 26 22 24 28 28 29 24 22 21
65 70 68 66 62 60 57 51 52 82 95 95 96 94 86 85 75 64 63 58 54 47 48 48 47 46 44 41 41 34 28 23 26 28 27 26 23 21 22 26 29 30 30 28 28 23 23
64 68 68 64 62 60 57 50 43 57 85 96 97 93 88 78 72 71 69 60 55 52 52 51 50 45 44 41 39 34 29 25 26 28 28 29 24 23 24 24 25 26 28 27 30 27 25
65 62 65 61 61 59 57 52 45 46 65 97 97 93 89 81 81 77 65 62 58 54 53 51 46 40 47 39 37 36 34 32 29 32 28 28 25 25 26 26 25 26 23 24 26 26 28
60 62 63 60 60 56 57 51 46 43 43 77 96 94 91 89 83 72 69 66 62 55 53 47 47 47 44 39 43 41 38 35 32 30 33 29 28 27 28 27 29 21 21 25 29 30 32
53 63 60 60 54 55 54 48 44 40 38 45 71 92 91 89 81 77 75 71 68 61 56 51 46 50 49 49 45 44 43 41 39 36 31 32 29 31 31 28 27 23 20 26 28 27 29
56 54 58 54 52 52 52 45 42 39 36 37 49 83 91 89 86 80 77 73 69 63 60 53 49 47 46 46 52 50 47 48 44 38 32 34 33 35 31 29 28 24 24 27 30 29 25
53 54 55 52 50 52 49 42 39 37 33 29 44 68 86 89 85 83 78 74 72 63 60 55 50 50 51 52 53 52 50 49 47 40 35 33 33 34 29 30 30 29 29 30 33 22 27
47 49 48 48 49 49 45 40 38 38 34 28 35 61 77 87 84 84 81 77 72 66 59 58 56 58 58 56 56 59 56 52 47 41 38 34 33 31 30 31 30 28 31 31 28 29 27
47 44 43 45 48 46 41 38 40 37 32 28 30 58 70 81 87 84 81 77 71 67 62 60 56 58 59 58 57 58 57 52 44 43 35 35 32 33 34 28 30 29 29 30 29 27 25

GFSGBSN_500_spd_051.txt.gz
Wind_Speed
59 61 58 55 54 54 51 49 50 49 48 45 43 43 41 39 38 35 34 37 36 32 33 33 32 32 32 32 34 34 35 35 36 36 35 20 20 19 10 11 10 5 13 18 14 11 14
65 64 62 60 58 57 56 53 52 51 50 49 47 45 45 44 43 40 37 37 36 36 34 33 31 31 31 31 33 33 33 34 33 32 30 17 18 16 8 9 7 4 5 12 18 14 11
64 64 63 60 62 60 59 58 56 55 53 52 50 47 47 46 42 44 44 44 36 37 37 33 30 30 31 31 32 32 31 31 31 30 27 14 15 13 10 9 5 5 5 5 6 6 11
64 66 66 64 63 66 61 60 58 59 58 55 52 49 49 48 46 45 46 42 38 37 36 34 30 31 31 31 32 32 30 30 29 28 25 12 11 6 10 13 10 3 3 6 6 8 7
63 63 63 63 62 63 64 63 63 61 61 60 58 54 50 48 45 43 45 42 41 41 40 37 35 33 31 30 32 31 27 27 27 25 20 11 9 5 7 12 9 5 5 7 9 7 4
69 68 66 66 62 62 61 60 62 63 63 61 61 60 56 52 49 46 47 43 42 43 43 40 38 37 32 29 31 30 26 25 25 22 16 11 8 6 6 10 6 5 6 5 8 4 5
74 75 74 71 69 66 64 61 61 61 63 62 62 61 60 59 54 49 45 46 41 37 39 43 38 38 35 31 32 28 26 23 23 20 14 10 8 6 6 9 6 6 6 4 12 4 5
83 81 80 79 76 73 69 66 64 62 62 63 62 63 62 60 60 53 46 44 44 39 37 37 36 36 40 34 31 28 25 22 21 19 14 12 8 7 6 9 12 8 9 8 6 7 10
91 90 88 85 83 80 77 71 68 65 63 63 64 63 61 60 59 57 50 48 44 41 39 33 33 31 37 30 29 25 24 22 19 19 15 13 10 9 9 8 12 12 12 13 10 10 10
101 100 98 94 90 85 82 78 72 68 66 63 62 61 61 61 57 55 50 47 46 43 40 32 33 32 37 30 30 28 24 22 19 18 14 13 12 11 8 5 10 10 11 14 12 9 12
105 106 106 103 98 92 85 81 77 71 68 66 63 60 59 59 56 51 51 45 44 43 42 32 31 32 34 30 24 24 23 22 19 18 15 15 14 11 9 3 4 11 16 16 15 14 12
62 67 73 81 92 96 92 85 81 76 71 67 65 62 59 57 54 51 50 43 42 42 44 33 30 28 32 30 30 29 26 23 21 17 13 12 14 12 10 11 8 12 16 18 15 15 14
64 63 58 56 61 70 79 88 85 81 75 70 67 64 60 57 50 53 50 45 44 45 39 36 32 28 29 30 32 32 26 22 18 15 11 15 17 15 10 15 9 12 17 16 14 14 13
55 60 61 62 60 52 67 73 77 84 82 74 71 67 63 59 52 55 52 49 48 45 38 36 36 30 27 29 34 32 28 25 19 15 17 16 17 17 15 15 14 14 16 18 16 13 11
59 59 59 60 62 59 50 61 80 83 84 81 75 72 67 61 55 56 55 55 47 42 39 37 39 35 31 33 32 30 27 21 19 17 17 15 17 19 20 19 18 17 18 19 20 17 16
70 71 65 64 62 62 59 53 62 85 85 86 82 76 70 64 60 60 60 55 49 41 40 40 39 38 34 35 34 31 28 22 17 16 17 17 19 22 22 22 21 21 23 23 22 20 20
75 77 79 73 68 64 61 56 47 71 85 86 87 82 73 70 66 66 65 55 49 47 43 40 40 38 37 35 34 33 28 23 21 19 18 19 18 23 24 21 22 21 22 22 22 24 22
80 78 76 76 74 69 62 60 56 48 83 84 86 86 78 77 74 71 65 56 52 51 47 43 41 40 36 36 35 32 30 23 21 20 17 19 20 21 22 23 22 24 25 26 27 24 23
75 71 62 64 72 71 65 60 61 52 64 86 86 85 85 82 80 72 65 60 56 51 48 45 45 41 39 38 40 38 32 25 25 23 21 19 18 19 25 27 24 23 28 30 28 26 23
61 65 60 55 60 68 67 61 60 57 51 73 88 89 92 85 77 70 69 64 59 54 50 50 47 44 43 40 39 37 30 25 25 25 24 24 20 20 19 19 22 24 23 27 31 31 26
53 59 60 60 55 67 66 61 61 60 53 59 83 91 91 88 83 71 70 66 63 55 50 50 48 47 44 41 41 37 31 28 26 27 28 27 21 20 20 23 26 27 30 30 31 31 32
56 57 57 54 55 68 66 63 62 61 55 52 68 86 89 84 74 78 75 67 64 58 52 49 48 47 45 42 40 39 35 31 31 31 32 30 25 23 22 22 24 26 27 29 30 29 31
66 62 58 56 54 67 67 63 63 61 56 48 56 72 85 83 83 81 72 68 65 60 54 50 47 43 47 42 41 40 41 37 34 33 33 31 28 25 23 23 25 26 22 19 22 23 23
49 59 56 57 59 67 65 62 60 61 52 43 35 56 84 87 86 77 73 70 67 61 54 51 46 42 41 37 43 43 43 40 39 36 33 32 29 27 28 26 28 13 17 20 18 21 24
40 51 51 56 66 63 63 59 58 56 51 44 35 40 69 85 83 78 77 73 72 66 58 53 47 44 43 39 44 46 40 40 41 38 36 31 27 33 35 31 27 20 16 18 22 15 23
37 45 49 58 58 63 60 56 53 51 48 36 30 31 49 72 82 81 80 77 74 68 62 57 52 49 50 53 47 49 49 45 44 42 38 34 29 32 34 36 29 16 18 20 22 11 19
37 53 55 52 55 59 58 55 51 48 42 36 32 29 45 66 81 83 83 78 77 72 63 61 55 50 49 48 55 49 52 51 45 44 42 36 33 34 33 35 29 21 21 22 23 22 22
44 47 46 47 52 55 53 51 47 44 39 35 31 30 37 64 76 83 83 82 79 75 67 61 57 55 51 52 52 56 51 49 49 40 40 36 36 34 33 35 34 21 25 26 22 22 24
44 40 39 44 51 49 49 48 48 42 38 31 28 27 34 56 71 78 86 82 79 77 70 65 54 52 52 51 53 51 54 53 54 45 43 41 33 33 34 32 30 26 26 25 24 24 25

GFSGBSN_500_spd_054.txt.gz
Wind_Speed
54 54 55 56 56 56 56 54 51 48 46 46 45 43 43 41 40 40 37 35 32 33 28 30 32 28 29 30 30 30 30 31 31 32 30 33 29 20 12 8 7 5 5 11 14 4 7
59 56 57 56 57 56 56 57 54 51 48 47 46 47 44 43 44 41 39 36 35 34 35 31 32 33 30 29 29 28 29 30 29 30 29 30 24 17 11 8 6 3 2 4 14 14 10
60 59 58 57 59 59 59 58 58 56 54 53 50 48 49 47 46 43 41 39 37 37 38 37 29 31 30 29 30 29 28 28 28 29 26 27 19 15 9 5 7 5 2 3 3 5 8
60 61 58 59 59 60 62 60 58 57 57 54 53 51 50 49 46 46 42 40 39 39 41 35 32 30 30 29 30 30 28 26 26 28 24 23 18 13 8 6 6 6 1 2 7 5 8
66 63 60 59 59 60 60 60 59 58 58 59 57 54 51 49 47 46 44 42 39 38 38 35 35 33 34 33 31 29 30 25 25 26 21 20 16 11 8 5 4 3 2 6 8 9 12
63 64 65 63 62 61 59 59 56 56 55 55 59 58 56 53 51 48 46 44 41 39 39 36 35 33 34 34 34 30 32 26 24 24 19 18 13 9 8 5 1 4 3 5 6 5 3
67 68 68 67 66 66 64 63 61 60 58 55 56 57 57 55 54 52 51 49 45 42 40 40 38 35 35 38 35 34 31 26 24 24 17 14 12 8 7 8 6 7 4 7 12 10 3
74 74 74 74 74 72 70 68 66 64 62 59 58 57 56 56 56 54 54 52 51 47 40 37 39 36 34 34 34 36 31 25 24 23 15 13 11 8 7 7 8 8 8 10 6 7 5
81 81 81 80 80 80 78 75 73 70 67 64 63 61 58 57 57 56 56 53 50 51 44 36 39 37 35 34 32 32 31 23 23 23 16 12 13 9 6 8 9 8 9 11 9 7 11
88 89 89 89 88 87 86 84 80 77 72 69 66 64 63 60 58 57 55 53 49 52 47 38 37 39 35 33 32 33 30 24 24 22 16 13 14 10 7 6 6 10 12 14 14 10 8
89 89 89 89 90 91 93 92 89 85 81 74 69 67 65 63 59 55 54 51 49 50 44 40 38 40 34 34 29 31 27 26 24 22 16 14 15 10 9 7 6 8 13 16 12 8 7
63 64 63 64 65 67 71 76 81 82 83 83 75 69 68 65 62 57 55 51 49 47 48 41 38 35 32 31 34 34 30 28 26 24 16 16 15 11 11 9 11 6 11 13 13 13 13
57 57 58 58 56 54 51 51 58 63 69 72 78 75 70 67 61 59 56 52 51 51 48 44 38 34 34 32 34 36 31 27 24 23 16 14 16 14 14 10 12 11 12 14 13 14 11
53 55 57 58 59 57 56 55 53 49 61 74 78 79 74 69 64 61 59 55 57 51 46 47 38 38 36 34 35 34 33 32 28 24 20 16 18 14 15 15 15 16 14 14 12 11 10
50 51 51 53 55 55 56 55 53 54 51 62 81 82 76 73 70 66 65 65 54 52 48 46 42 37 39 37 40 39 37 30 26 23 19 18 19 16 18 20 17 19 21 18 19 17 15
58 57 57 58 57 57 59 57 54 50 55 52 69 82 78 77 75 70 69 65 57 52 52 45 44 42 41 37 40 40 37 32 29 26 24 19 22 20 20 21 22 21 23 20 20 18 18
64 64 64 65 63 61 63 60 58 56 51 59 54 78 79 76 79 77 78 62 59 58 54 45 46 45 45 39 41 37 32 29 28 26 23 22 22 21 21 20 23 23 26 26 23 24 19
71 72 73 74 75 70 68 68 63 60 55 60 61 54 75 83 82 82 76 60 63 61 57 49 49 49 45 43 44 39 35 27 27 27 25 21 24 23 21 21 26 25 24 26 26 23 26
81 84 84 81 81 80 75 75 67 65 62 60 63 56 69 85 87 82 69 69 69 66 59 50 49 49 48 44 47 44 35 32 31 29 26 23 27 24 24 24 26 26 22 24 27 29 25
80 71 63 61 68 72 74 75 69 66 66 65 64 66 62 80 84 78 75 75 71 67 60 53 51 47 48 43 46 45 36 34 33 31 29 30 30 24 24 19 20 25 23 23 26 32 28
58 60 62 63 67 64 73 73 68 63 68 70 68 73 57 58 87 84 79 74 73 70 63 56 53 53 48 45 47 43 37 36 36 32 30 34 33 26 23 23 26 28 28 28 30 28 29
66 69 68 65 61 57 71 71 69 68 73 73 69 67 56 47 69 82 82 82 77 70 61 55 53 50 51 48 45 40 38 38 38 36 32 35 33 28 25 23 26 28 28 31 31 29 27
61 59 56 53 54 51 58 61 59 70 70 74 63 63 58 45 64 82 84 78 75 71 63 56 51 49 50 46 45 40 44 41 42 40 36 36 36 29 25 24 26 28 26 28 23 22 23
54 52 49 54 53 55 60 58 60 68 62 62 56 58 54 49 60 75 79 79 78 71 65 62 58 53 48 46 48 43 37 44 44 41 37 36 35 31 30 27 34 19 20 23 22 21 21
35 40 45 52 53 57 60 59 57 62 56 59 56 55 48 34 49 71 81 83 79 77 69 64 56 52 45 40 47 48 48 45 46 42 40 35 37 35 34 29 28 25 21 21 20 19 20
17 30 49 56 56 57 54 56 59 57 57 57 53 48 39 31 42 65 79 83 79 77 70 61 57 52 46 45 52 52 53 45 45 43 42 39 35 36 34 34 32 18 22 22 25 14 18
7 31 52 58 56 51 54 54 60 56 56 54 49 42 34 30 41 63 77 81 79 79 70 63 58 53 49 48 46 48 46 49 44 46 40 44 41 39 32 33 29 20 22 25 31 12 24
18 35 49 52 50 49 52 54 51 55 54 50 44 37 29 28 39 59 58 77 80 80 74 66 62 56 51 49 48 49 47 45 51 50 39 38 40 38 35 35 31 16 21 26 24 27 27
27 31 41 47 47 53 52 50 51 51 46 42 38 32 28 24 28 50 67 46 79 81 75 69 58 57 54 54 54 53 54 50 48 51 47 45 44 40 40 36 29 24 23 26 29 31 30

GFSGBSN_500_spd_060.txt.gz
Wind_Speed
58 56 55 55 55 54 53 49 49 48 48 48 48 47 48 46 43 40 38 37 34 32 31 28 28 28 28 26 29 29 29 28 26 26 25 23 21 21 24 20 11 13 15 11 11 22 12
61 59 59 59 57 57 59 57 54 52 48 47 47 47 46 48 45 42 39 35 36 34 31 29 29 29 27 27 31 27 29 26 24 25 23 21 19 18 22 19 13 8 9 9 11 17 13
53 55 55 55 55 55 54 54 55 59 55 52 50 46 46 46 44 43 42 39 39 37 36 33 32 28 25 24 30 28 27 26 26 24 26 21 18 16 19 18 15 9 9 11 8 15 11
50 51 53 54 54 54 53 54 53 52 53 54 52 52 48 48 46 45 44 44 43 40 38 37 34 33 23 29 31 26 24 26 28 26 24 23 17 15 17 16 14 8 5 13 19 19 8
51 52 53 53 53 54 55 54 54 53 52 54 54 54 51 49 49 47 46 46 45 42 39 37 35 34 28 28 29 26 22 26 28 29 24 24 17 14 16 15 9 15 14 15 24 12 12
50 51 52 51 51 52 52 52 53 52 54 55 57 55 48 49 50 48 47 47 48 46 44 39 35 34 36 28 29 28 27 25 28 30 29 27 17 14 15 15 7 2 13 18 23 17 23
51 52 52 52 52 51 52 53 54 55 54 53 50 51 51 47 48 48 47 47 48 48 46 43 42 36 37 35 30 32 29 28 27 28 29 32 19 12 14 16 12 14 17 10 20 16 18
55 57 57 58 58 57 56 56 55 55 55 55 54 53 50 47 49 48 48 48 51 48 47 44 44 40 38 38 35 32 31 27 28 26 30 31 16 14 11 12 11 12 10 13 14 21 12
62 62 63 63 62 62 61 62 62 60 60 58 57 57 55 53 50 50 50 51 51 50 49 40 41 43 35 41 37 36 33 29 28 29 30 31 16 14 11 12 12 12 11 11 15 20 7
67 67 66 66 65 65 65 65 65 66 65 64 63 62 60 58 56 55 53 53 52 52 49 44 38 41 40 39 40 35 37 30 35 26 30 29 17 14 13 14 15 11 7 11 21 23 11
74 73 72 72 71 71 69 68 67 67 68 67 67 66 65 62 61 60 60 58 54 52 49 44 43 40 39 41 38 31 34 35 33 27 32 23 18 18 16 14 17 10 12 13 20 25 19
74 74 73 72 73 72 71 70 68 67 67 66 66 67 66 64 63 63 62 61 57 55 53 49 48 45 39 39 39 40 37 38 31 33 35 27 22 23 18 18 18 16 11 10 13 18 15
70 70 69 69 69 66 63 60 58 56 56 57 59 60 62 62 60 66 64 64 61 62 53 50 52 49 45 39 39 36 38 37 38 36 36 31 28 23 21 20 18 16 14 10 12 14 6
60 59 57 55 54 52 50 46 44 44 44 44 45 47 50 54 59 66 67 69 70 59 56 53 52 53 49 44 36 37 39 36 39 39 34 33 32 23 20 19 18 18 16 16 14 12 14
49 48 46 45 45 45 44 44 43 44 45 46 47 44 42 41 45 57 69 74 66 56 56 54 56 54 52 44 40 37 37 36 37 38 37 35 31 25 27 22 24 20 20 12 15 20 17
44 45 46 45 42 40 40 40 41 40 41 43 44 45 44 47 49 49 55 70 55 48 55 49 53 55 53 49 44 39 40 39 39 38 35 35 26 26 19 25 26 27 16 21 24 24 18
40 41 41 41 41 41 42 43 42 42 42 44 43 43 40 47 53 57 54 38 39 50 58 58 58 57 58 31 39 43 42 43 40 35 38 34 25 22 30 33 25 21 27 26 24 27 23
39 40 41 44 46 47 45 46 46 45 47 50 51 48 45 50 54 54 42 27 27 35 59 59 59 61 54 43 29 38 44 45 38 36 40 39 36 31 34 29 26 25 19 26 28 26 23
45 46 47 48 48 49 50 48 49 49 49 51 53 52 53 56 55 47 41 36 35 32 45 63 65 65 55 47 44 31 30 40 36 40 40 41 46 33 34 33 33 27 29 24 25 28 30
48 49 50 52 52 53 55 55 55 55 55 57 59 59 58 60 54 49 45 39 41 42 46 60 63 59 61 51 49 44 31 36 47 43 38 39 46 48 45 29 23 24 28 28 19 25 29
53 55 56 56 57 58 59 60 60 60 59 60 64 66 59 58 54 52 55 50 46 47 45 51 62 62 54 52 46 50 33 34 47 46 45 48 49 49 44 36 28 24 21 27 29 31 34
56 59 62 65 65 64 66 67 69 68 68 66 68 69 67 63 57 61 56 53 46 45 49 49 56 66 62 44 44 48 46 40 41 44 50 50 51 49 47 42 35 34 26 24 22 28 31
61 65 67 69 69 70 72 73 75 74 74 71 74 68 69 69 67 67 64 54 50 48 49 48 47 61 60 54 49 45 44 44 50 36 43 48 50 44 50 44 40 44 32 31 26 24 23
70 75 76 74 71 71 72 68 70 72 71 74 74 63 66 64 61 63 58 54 53 55 49 44 50 63 61 47 45 46 38 47 39 50 47 42 52 49 43 41 49 42 39 40 41 36 34
64 60 58 58 58 56 57 56 56 57 60 66 69 65 65 60 55 57 58 57 54 54 53 47 46 55 60 63 58 51 51 37 33 48 51 48 56 54 50 48 45 44 35 39 32 30 25
51 51 52 54 57 52 50 51 57 66 60 61 70 66 57 51 52 43 52 59 58 56 53 47 42 51 53 62 63 58 54 40 35 41 41 44 49 48 42 48 46 38 36 34 32 34 22
44 47 47 48 46 48 46 43 54 53 65 64 66 56 56 55 46 44 47 46 52 50 47 41 43 53 52 59 66 68 48 59 51 34 46 48 47 51 51 46 37 36 34 33 35 18 19
34 39 38 36 46 47 42 45 52 52 61 68 74 70 66 59 48 48 44 36 40 43 44 41 40 53 47 48 51 66 68 51 53 47 36 49 40 46 47 48 46 37 29 39 28 16 22
26 21 21 35 35 37 39 46 45 52 53 66 68 61 54 51 53 43 42 32 37 40 36 40 41 50 66 40 47 53 59 56 57 54 41 48 46 43 47 47 42 38 32 31 28 32 31

GFSGBSN_500_spd_063.txt.gz
Wind_Speed
59 59 63 60 60 60 59 59 55 51 51 47 45 44 43 42 42 41 41 38 37 34 31 31 30 27 26 20 26 17 19 20 23 19 20 18 18 21 19 17 19 20 11 10 13 9 12
59 60 59 60 61 62 61 61 58 55 53 52 49 47 44 43 44 43 42 41 40 37 33 31 30 30 24 17 30 22 21 20 23 19 21 20 18 21 20 17 16 19 12 10 9 9 15
58 58 60 57 53 54 59 59 57 57 56 58 58 52 48 44 42 40 40 40 40 38 35 33 33 32 27 19 33 21 19 22 21 19 21 22 20 21 21 18 14 17 11 6 1 13 18
52 55 53 51 50 50 52 54 57 57 55 52 47 49 58 53 48 46 40 40 41 40 39 37 36 35 27 30 32 25 23 21 18 18 22 25 24 20 21 16 13 10 9 6 4 8 13
48 46 47 46 44 46 44 45 49 48 49 47 47 46 46 46 48 51 44 41 42 42 42 41 38 39 29 30 34 30 24 23 21 17 21 24 24 22 21 14 14 10 6 7 11 17 29
39 40 40 39 38 39 41 45 46 43 44 45 45 45 46 45 45 46 49 46 45 43 43 41 41 39 36 30 31 30 29 28 25 24 21 24 22 22 22 16 13 14 16 13 13 16 18
43 44 44 44 43 42 41 42 43 43 43 43 42 43 43 44 45 47 48 52 46 47 45 41 42 41 38 34 30 29 32 33 29 25 22 25 23 19 17 18 16 11 10 12 16 17 14
46 46 47 47 48 47 46 47 47 46 46 46 45 45 46 46 43 40 39 46 49 48 44 40 39 40 36 38 35 32 35 33 32 25 28 28 17 18 19 19 22 7 9 8 13 14 12
52 52 52 52 52 51 51 51 51 51 51 51 49 50 49 47 45 45 44 42 47 48 49 39 37 40 31 40 38 34 38 32 31 32 28 28 15 24 21 18 23 7 8 9 22 19 14
59 57 57 57 56 57 57 56 55 55 55 55 54 53 53 52 50 50 49 47 47 46 46 42 34 38 35 36 38 32 34 33 36 33 29 34 20 24 22 17 19 11 12 14 24 22 19
63 62 61 61 61 61 60 61 60 60 58 58 58 57 57 55 54 53 52 51 50 46 48 42 42 39 39 38 35 30 32 35 35 32 36 26 24 23 21 17 17 12 16 15 17 23 21
67 67 67 66 64 64 63 62 63 62 60 61 61 60 60 58 57 55 55 55 53 52 48 48 47 43 38 36 35 32 33 36 35 34 38 35 27 27 21 20 22 18 19 18 17 17 14
69 69 67 68 67 66 65 64 62 62 62 61 60 61 61 59 58 57 57 58 57 57 49 48 50 48 43 39 36 36 32 34 38 35 38 33 29 28 26 29 25 22 20 19 18 13 7
66 64 63 61 60 60 60 59 58 56 55 53 55 58 57 55 56 57 58 60 62 51 51 52 52 54 51 45 41 37 39 36 37 37 37 37 33 25 24 30 22 20 16 21 22 16 12
58 55 53 52 51 51 50 50 48 47 46 44 45 49 51 48 48 53 55 61 56 52 54 52 53 57 56 50 47 41 42 38 35 35 37 37 34 24 28 25 26 21 25 13 21 25 15
49 48 45 42 41 42 43 43 42 41 41 43 43 44 42 43 46 48 51 53 47 45 51 57 54 49 48 42 41 38 38 38 37 35 34 35 35 28 29 30 31 30 21 24 26 25 22
43 42 42 41 41 42 43 43 41 40 38 40 42 43 39 46 51 53 48 38 30 37 50 54 55 61 56 44 34 28 31 34 35 35 31 31 36 28 28 38 35 31 29 31 28 28 27
41 41 41 40 40 40 39 40 40 39 38 41 43 41 38 43 46 41 30 24 26 29 36 46 51 57 61 54 40 38 34 45 36 38 38 33 36 35 34 37 32 32 25 28 33 26 27
40 40 40 40 39 38 39 41 42 42 42 44 46 44 43 44 39 30 24 24 29 34 39 37 46 55 51 57 54 48 41 34 40 27 39 34 38 40 38 41 39 35 32 29 32 32 35
39 39 40 40 39 40 42 43 45 46 46 49 51 49 47 46 39 34 31 32 30 33 36 35 36 49 56 56 57 55 49 40 38 35 30 32 36 41 43 42 38 41 32 34 30 32 28
39 39 40 41 42 43 44 45 45 47 48 51 56 53 50 44 37 38 37 34 32 33 33 35 38 35 51 62 51 53 56 43 44 41 35 38 44 41 41 44 41 35 33 27 30 35 35
40 42 43 44 45 46 47 47 46 47 47 52 56 54 52 49 48 46 42 35 33 31 35 37 36 32 40 59 65 54 46 47 38 44 45 42 46 44 44 47 45 43 32 31 29 29 36
45 46 48 49 50 51 51 51 52 53 54 54 55 52 54 53 55 51 45 37 36 40 40 41 35 34 33 40 68 68 59 51 54 38 48 48 47 47 47 46 52 52 49 37 34 29 28
51 52 54 56 56 58 58 58 57 59 61 57 59 56 59 60 61 53 48 45 47 47 41 44 43 44 29 40 49 54 56 63 46 53 34 52 52 56 51 47 52 48 49 46 38 38 33
55 58 62 65 67 69 69 69 70 67 65 60 56 61 62 62 60 55 55 54 50 50 50 48 48 43 31 41 47 56 51 60 60 47 29 41 40 52 51 52 49 47 46 48 41 37 37
57 58 60 62 66 67 68 69 67 67 66 64 64 58 58 58 60 51 51 49 52 54 56 57 51 45 42 37 51 56 58 53 59 41 46 22 48 45 48 47 46 45 42 42 45 49 42
37 41 47 53 55 54 53 53 54 57 62 63 65 60 64 69 56 52 48 42 44 51 58 54 48 42 43 38 45 50 58 51 54 53 47 25 43 47 49 44 39 41 38 39 50 39 25
42 45 45 46 47 49 50 50 51 54 52 54 50 47 68 63 54 58 47 38 40 41 43 50 46 47 45 41 43 49 56 56 48 43 34 25 37 34 36 43 47 34 40 47 36 33 33
32 35 36 41 49 50 47 48 43 46 54 55 56 47 51 54 52 48 40 34 39 34 28 42 42 39 43 44 41 41 57 65 66 61 50 38 33 39 38 45 45 45 41 36 36 40 38

GFSGBSN_500_spd_066.txt.gz
Wind_Speed
64 62 63 62 61 62 63 63 62 63 62 56 56 50 50 48 45 43 42 40 39 37 35 32 30 27 27 18 25 15 20 19 19 18 19 18 15 13 14 17 19 18 23 23 8 1 7
61 59 62 62 61 61 58 59 58 57 56 56 58 59 60 52 47 45 44 42 40 39 37 37 34 31 28 16 30 22 20 21 21 18 18 16 17 15 14 15 17 17 19 14 9 5 8
58 60 59 59 57 58 58 59 56 54 59 63 64 58 56 50 49 49 46 44 42 40 39 38 36 33 26 24 30 24 23 23 22 20 18 16 17 14 17 17 15 15 16 11 4 4 5
53 55 55 54 55 55 55 58 59 61 59 58 60 62 56 55 55 53 49 45 43 42 38 38 36 36 26 31 32 28 27 25 27 20 19 18 16 15 18 16 15 15 15 15 14 11 2
44 39 38 40 45 47 49 55 55 55 50 51 56 60 57 56 51 53 55 54 49 46 42 40 36 36 30 33 35 32 28 26 31 25 21 21 18 14 18 16 15 17 19 17 18 9 7
34 37 34 34 35 33 32 37 42 43 42 39 41 45 44 46 46 46 48 47 51 55 52 46 39 37 34 34 34 34 34 31 31 31 24 24 22 16 15 18 13 19 18 18 21 11 9
35 34 36 36 37 36 35 33 33 31 31 30 34 32 34 39 43 43 42 45 46 45 47 47 48 41 37 36 35 36 34 35 34 29 23 27 23 14 16 22 20 20 19 17 23 14 14
42 41 40 39 39 41 39 38 37 36 36 36 34 34 32 32 32 32 34 37 43 43 42 39 42 44 37 38 39 35 38 36 35 29 28 30 17 19 21 24 23 20 17 18 23 18 16
47 46 45 44 43 43 43 42 41 41 40 39 40 38 37 36 35 36 36 36 39 40 40 35 39 45 33 42 36 33 37 37 37 36 31 31 18 28 24 23 23 18 16 20 22 21 21
53 52 50 48 47 47 47 47 45 44 44 44 43 42 41 40 40 40 40 40 40 41 40 36 31 43 37 37 43 28 35 35 39 36 31 36 23 27 26 21 23 18 16 21 20 23 23
60 58 57 55 54 52 50 49 48 48 48 47 48 47 45 43 43 43 42 42 42 41 44 38 35 38 38 37 36 28 29 34 34 30 35 30 25 27 28 16 25 14 22 23 21 23 22
68 66 63 61 60 57 55 53 53 52 52 52 51 50 50 47 48 47 44 44 43 43 45 42 40 36 36 37 38 35 34 33 32 36 38 34 30 32 27 24 23 23 26 24 23 24 19
72 70 69 67 66 64 61 59 58 56 56 56 56 56 54 51 52 50 50 49 49 46 44 46 48 44 38 35 36 35 30 35 33 34 35 32 29 29 31 29 27 31 27 24 25 24 10
72 70 68 68 68 66 64 61 60 58 57 57 58 59 57 54 55 53 53 54 52 45 46 51 52 50 47 44 40 38 37 37 36 32 31 34 33 31 27 27 27 32 27 26 27 25 18
66 64 64 63 62 61 61 60 58 57 56 56 57 57 56 53 56 56 58 56 49 48 50 50 56 56 53 44 40 45 43 41 40 36 34 30 32 26 31 29 27 31 31 17 27 29 27
58 57 57 58 57 56 54 53 51 50 50 49 50 52 49 51 55 56 59 53 49 48 50 57 56 55 56 52 50 45 43 42 41 39 33 32 34 27 29 31 33 35 25 30 34 32 29
58 57 56 55 52 49 46 44 41 38 37 38 42 44 39 48 51 54 55 47 44 46 50 53 49 50 57 51 52 52 47 45 44 39 35 35 34 31 33 39 36 34 34 37 34 37 32
53 55 52 48 45 41 37 35 34 34 35 38 41 38 37 45 47 45 43 37 40 42 44 47 48 41 53 49 49 48 46 40 47 46 46 40 33 37 35 35 36 35 39 34 35 36 33
48 47 44 43 39 38 36 36 35 36 38 41 46 39 39 40 40 33 29 34 38 40 42 41 35 30 45 57 51 48 46 43 45 49 48 39 42 41 39 39 40 43 40 41 36 37 39
37 37 37 37 38 38 38 38 38 39 39 41 46 45 41 37 33 34 34 34 35 34 36 39 36 32 29 52 56 52 46 46 43 44 48 41 48 47 44 38 39 41 36 39 40 44 38
31 34 36 36 38 39 40 41 42 40 40 43 49 47 42 36 33 33 33 31 29 27 31 31 31 27 30 30 55 65 53 50 45 48 45 39 43 45 46 41 39 42 39 42 44 44 42
32 34 36 38 40 41 42 42 44 43 42 44 50 49 46 41 39 36 36 31 29 30 30 26 24 23 28 26 38 58 61 59 54 49 44 45 42 44 46 42 39 45 48 43 42 42 43
34 36 38 39 40 41 41 42 44 46 49 48 48 48 49 44 41 38 30 30 35 34 32 31 28 28 26 25 26 43 55 55 56 61 47 37 40 43 46 43 40 50 49 47 44 43 44
36 38 39 40 40 41 42 43 45 48 50 51 52 50 51 46 44 36 39 40 36 36 36 35 35 32 25 28 28 33 51 54 56 60 64 55 35 50 46 42 49 43 44 47 49 44 38
40 41 44 43 43 44 46 47 47 48 49 52 55 56 53 51 44 46 41 44 46 43 42 39 39 34 30 31 33 35 34 36 35 52 59 62 58 33 49 51 49 49 46 45 47 49 40
46 46 46 47 48 50 52 53 54 54 55 56 55 52 54 55 51 42 47 45 47 45 45 42 38 39 36 38 37 37 36 36 39 47 54 68 56 48 31 39 58 47 53 44 47 51 49
46 47 50 53 55 56 58 62 64 64 63 59 57 55 58 59 51 52 51 49 47 48 47 44 44 43 43 42 41 38 41 40 40 40 48 60 60 61 44 40 47 47 50 50 49 42 48
39 36 36 41 44 46 49 50 49 50 54 57 57 58 65 68 54 55 52 51 50 50 49 46 48 50 49 49 46 41 46 46 41 42 46 52 50 55 56 35 50 51 43 43 42 47 45
32 37 39 42 46 48 51 51 49 46 45 47 60 60 61 65 61 60 54 44 39 36 35 41 45 48 49 51 51 47 50 49 40 43 50 53 46 36 47 23 26 46 42 39 36 35 39

GFSGBSN_500_spd_069.txt.gz
Wind_Speed
63 62 63 62 63 64 63 62 62 62 62 64 63 62 57 55 53 49 48 45 47 46 42 40 38 35 33 26 25 29 21 21 20 22 21 19 19 19 16 18 16 14 14 19 19 20 17
54 52 54 56 60 61 59 59 61 65 63 62 59 65 62 58 56 51 50 48 49 45 45 44 41 39 35 26 33 30 25 23 24 22 21 20 21 18 16 18 17 18 16 18 20 20 15
56 56 54 51 55 56 59 58 59 57 59 61 59 54 57 55 55 54 49 50 49 50 47 47 45 41 37 31 36 31 28 26 25 25 23 23 21 17 16 18 17 15 18 20 21 20 17
44 44 49 47 52 49 53 55 55 51 55 55 55 56 52 50 51 56 58 61 60 60 50 48 47 43 36 36 39 34 31 28 29 27 26 27 22 16 16 17 17 15 17 22 22 21 20
43 38 37 36 36 41 39 39 42 47 51 54 55 54 55 56 57 57 62 60 54 52 49 48 49 44 35 37 42 38 33 31 35 31 29 31 25 18 18 17 16 17 19 22 25 21 23
33 33 32 34 33 29 29 31 28 31 35 40 49 51 53 54 55 54 60 59 59 54 53 52 51 46 36 37 42 41 38 33 35 36 33 31 28 19 18 17 13 25 21 23 19 21 28
36 35 36 37 36 34 34 34 34 34 33 27 27 34 32 41 40 48 57 58 63 58 54 53 51 49 43 40 41 44 44 38 37 37 32 32 32 14 15 19 24 26 23 21 20 21 25
42 41 42 41 42 39 38 37 37 35 34 34 33 30 26 19 26 30 35 50 52 53 52 48 48 45 47 52 47 45 45 42 38 35 35 36 30 22 23 26 24 24 26 21 20 26 26
49 48 47 45 44 43 42 40 39 38 35 37 38 33 30 25 27 26 27 26 39 47 45 39 41 43 35 46 47 46 46 43 41 40 38 36 28 29 30 28 23 22 22 24 27 29 27
56 54 54 52 49 47 46 45 42 40 39 38 39 37 36 32 30 32 29 30 29 31 40 35 35 39 34 43 43 39 45 42 43 40 37 41 31 29 33 27 26 21 21 23 29 30 27
61 61 60 59 57 55 53 51 48 45 43 41 42 39 38 38 39 38 33 33 33 29 36 31 34 37 34 34 39 35 36 40 40 35 38 37 28 29 36 19 31 18 25 24 28 31 26
66 67 67 66 65 62 60 58 55 51 48 45 44 43 40 41 41 41 38 39 36 37 37 33 31 30 30 33 34 35 37 38 35 38 40 40 33 38 34 30 34 23 25 27 28 31 25
65 66 68 69 68 68 66 63 61 57 54 50 48 47 45 45 44 42 42 41 40 39 37 39 41 36 32 30 29 32 34 37 35 36 37 36 36 34 35 35 30 29 26 28 32 31 22
62 64 66 68 69 68 68 66 64 61 58 54 52 51 49 48 48 46 45 44 42 40 41 49 46 42 39 38 36 33 32 35 35 40 40 38 36 33 30 28 27 29 28 30 31 32 29
64 65 64 65 67 68 65 64 62 60 58 56 55 53 49 51 51 51 51 48 43 42 45 49 50 49 46 40 39 41 41 38 37 37 37 39 38 31 32 31 31 31 35 26 34 37 35
65 62 60 60 61 62 60 57 56 55 55 54 55 55 50 53 53 53 53 48 46 46 51 51 50 52 51 50 46 44 41 44 44 42 40 38 37 30 30 35 38 37 32 33 36 38 36
57 55 54 53 54 56 54 51 50 50 49 48 48 53 47 50 53 56 52 50 50 51 53 51 49 48 49 49 49 47 47 49 48 48 46 40 42 37 34 38 39 38 39 36 35 39 40
54 54 54 53 51 51 53 48 47 46 42 38 36 46 46 45 50 53 51 53 55 51 52 51 51 46 46 49 50 51 46 44 47 49 50 49 47 47 37 36 38 38 38 37 39 41 39
53 53 51 51 51 50 49 48 46 42 35 33 38 36 36 36 47 47 47 48 47 47 48 48 41 41 45 52 52 54 50 46 46 50 50 51 50 48 44 43 45 45 44 42 41 39 40
48 49 49 49 48 47 46 47 43 38 34 38 44 44 43 34 33 34 37 38 39 39 40 44 40 36 40 47 57 54 51 47 44 47 50 53 52 51 52 46 45 45 44 43 41 40 41
39 39 40 42 43 42 42 43 42 39 40 50 49 45 38 33 29 30 30 30 32 35 35 36 35 35 38 38 44 62 55 48 49 45 45 43 49 51 53 50 44 46 44 43 42 40 44
34 33 32 33 35 38 40 42 41 42 45 53 51 45 42 38 35 35 32 30 32 31 30 29 28 31 35 36 35 34 58 59 50 52 44 47 45 48 51 48 41 43 49 46 44 45 44
29 29 28 28 29 33 37 40 43 45 46 50 46 45 46 43 39 35 31 31 30 29 29 27 29 29 29 32 35 36 34 48 63 54 53 49 50 43 44 45 45 46 45 50 50 47 45
29 28 29 30 32 33 36 39 43 46 49 50 48 45 47 45 39 36 36 35 32 29 28 29 32 27 29 31 29 27 29 29 47 63 55 62 51 45 43 48 43 44 42 41 47 48 47
34 33 33 34 35 37 40 43 45 47 50 51 50 47 49 47 43 40 37 36 36 33 31 29 30 28 30 32 31 27 27 27 26 28 43 59 59 55 58 45 32 46 49 42 42 40 46
40 40 39 39 40 41 41 42 45 47 49 51 49 49 51 50 39 41 39 40 37 36 37 34 30 32 32 33 34 30 28 26 26 25 29 31 41 58 63 62 50 28 40 38 43 46 38
49 47 45 44 44 45 46 47 47 48 49 50 50 52 53 50 49 45 40 39 39 39 40 38 34 36 36 37 37 34 32 30 30 30 27 27 36 42 48 53 58 39 24 28 47 42 41
43 55 52 50 50 50 49 49 49 49 49 51 51 51 50 49 51 50 48 45 43 41 42 39 41 42 44 41 40 38 38 35 34 34 32 31 32 37 43 50 56 53 48 26 35 45 47
23 33 46 51 54 53 51 51 52 53 54 56 56 54 52 53 52 51 48 48 47 41 39 41 39 38 40 43 44 42 42 41 40 39 37 36 36 37 40 41 43 53 53 33 38 33 39

GFSGBSN_500_spd_072.txt.gz
Wind_Speed
57 60 62 61 63 63 62 61 64 63 64 61 61 62 59 58 57 56 56 59 55 53 47 46 42 41 41 36 31 38 33 27 28 27 24 22 21 23 24 21 20 16 19 21 22 22 19
59 61 60 61 59 59 58 57 57 54 56 58 58 58 59 61 59 58 57 62 58 56 52 49 43 43 41 36 37 40 34 31 30 28 25 23 22 21 23 21 20 17 17 22 23 22 20
56 57 54 55 53 54 55 55 56 54 49 50 55 56 55 55 60 59 57 55 63 57 55 51 47 46 44 38 39 40 37 36 31 33 31 28 24 20 20 23 20 19 18 23 25 25 19
52 49 48 50 48 49 50 50 50 47 49 50 53 52 53 55 54 57 55 55 54 59 57 56 53 49 45 44 42 41 44 37 35 34 35 32 27 21 19 22 22 21 18 23 27 26 23
47 45 42 43 43 44 43 36 36 34 36 39 42 46 49 53 51 52 51 52 51 55 51 53 49 51 46 44 43 45 46 40 40 38 36 36 29 26 22 21 23 21 21 25 27 28 25
43 40 41 39 36 34 33 32 31 30 30 30 28 26 33 44 47 49 51 51 51 49 51 53 49 48 46 47 42 46 45 44 43 42 42 37 33 29 22 21 19 20 27 22 23 31 31
42 40 41 39 38 36 34 36 36 33 36 34 33 31 29 26 37 48 49 55 51 51 54 55 49 44 43 48 44 48 47 46 45 46 43 37 38 24 20 23 26 28 27 20 21 26 32
45 47 45 42 43 41 39 39 39 40 38 37 35 34 33 31 29 25 39 42 46 50 50 52 51 48 47 51 48 47 49 46 45 45 43 44 40 24 28 29 28 27 25 20 19 25 31
48 50 48 47 47 46 45 42 41 41 41 39 38 36 35 32 32 32 28 23 35 45 45 45 49 53 54 55 50 50 51 49 45 47 47 45 37 32 31 31 32 29 21 22 23 30 30
50 51 51 52 52 52 51 49 46 45 43 42 40 38 35 37 33 36 33 26 23 25 41 29 42 43 47 53 50 47 58 54 49 47 45 48 41 34 34 31 31 30 21 26 27 29 29
55 55 56 55 55 56 55 54 53 52 49 47 43 46 40 34 35 36 38 32 28 19 35 24 36 34 38 42 42 38 41 53 56 48 46 46 38 37 36 28 33 26 27 32 30 31 30
57 58 58 59 60 60 60 59 58 57 56 53 49 47 44 38 36 36 36 36 35 27 31 22 23 24 31 34 37 34 35 39 40 47 46 47 41 41 39 33 38 30 32 34 30 29 30
59 60 60 61 63 63 63 62 60 58 59 58 55 52 49 44 41 37 37 37 35 37 30 29 31 25 21 25 30 29 32 35 35 38 47 43 35 37 39 39 40 36 34 34 33 31 26
61 61 61 61 62 62 62 61 60 58 58 58 57 56 52 48 46 41 39 36 34 36 39 38 37 31 31 27 27 28 28 33 33 33 36 35 33 34 34 36 36 35 34 35 33 32 30
62 61 62 62 62 61 61 61 60 60 59 57 57 57 54 49 48 45 43 39 37 38 39 40 44 41 37 33 35 33 30 32 35 37 36 36 38 33 33 34 36 36 37 31 34 37 36
64 64 65 65 63 62 62 62 61 59 59 55 55 55 53 50 50 48 46 41 41 43 43 43 44 43 42 40 38 38 38 36 36 36 39 42 41 40 35 36 39 41 36 38 40 40 36
66 67 67 65 64 64 62 58 55 53 52 51 51 54 51 50 51 52 49 44 45 46 45 44 44 44 44 41 42 42 41 42 41 40 39 40 42 39 38 39 40 42 42 42 40 40 39
65 66 66 65 65 62 55 51 48 45 45 47 48 51 49 46 51 53 49 48 48 46 47 46 45 48 46 47 43 39 44 46 47 45 45 44 43 42 39 39 40 41 43 41 45 44 40
64 62 58 54 51 50 50 49 48 44 44 44 47 45 46 41 49 50 51 48 48 47 45 47 47 48 49 48 46 44 43 48 46 47 47 47 48 48 46 43 44 46 44 43 44 45 42
54 53 52 51 50 49 48 47 46 44 42 43 43 40 40 42 40 41 43 44 46 41 41 44 44 43 46 49 49 50 44 49 48 48 45 47 48 49 48 47 45 47 46 46 46 46 46
40 39 38 40 43 45 47 45 43 42 42 45 44 47 45 40 31 25 30 35 37 35 33 37 39 39 41 46 49 53 50 49 50 50 48 46 48 49 52 50 47 51 49 49 49 48 48
40 40 38 36 35 36 39 46 46 44 44 50 53 49 48 36 31 31 29 26 25 25 25 26 30 28 34 40 42 45 53 53 50 49 48 50 51 50 51 53 51 47 50 51 48 50 50
32 32 32 34 36 37 36 35 39 43 47 56 49 47 47 36 34 30 24 24 25 27 25 24 25 26 28 34 39 40 45 48 50 51 50 51 44 47 47 45 45 48 46 48 53 50 49
32 31 29 28 28 28 31 35 39 43 51 56 51 52 52 46 41 31 29 28 28 29 28 29 26 21 25 33 35 36 36 38 38 36 45 55 50 52 52 49 47 45 39 43 46 47 47
38 34 32 29 26 27 26 28 34 42 50 53 52 50 49 45 42 39 34 29 29 33 31 29 24 22 26 28 32 34 35 35 36 34 30 35 59 58 57 55 47 42 37 34 37 44 44
33 41 36 34 31 30 31 32 35 40 45 48 48 46 45 43 40 37 35 32 28 30 33 26 23 25 29 30 31 32 33 32 31 30 27 26 31 49 55 57 58 51 48 43 27 43 39
30 32 45 39 36 35 34 34 36 39 45 44 44 44 44 43 41 39 37 34 30 28 30 31 26 26 30 31 32 31 30 29 27 25 22 19 19 22 27 38 50 55 55 55 46 42 34
30 29 35 49 43 40 40 40 41 43 45 46 46 47 48 46 42 42 40 36 32 29 27 29 31 32 32 32 32 31 30 30 29 26 24 23 22 21 23 24 23 25 33 48 55 54 39
23 28 27 40 52 47 45 44 45 45 46 48 48 47 46 45 46 45 42 39 36 29 27 30 31 34 34 36 34 32 32 32 31 31 29 28 26 26 25 21 24 28 32 31 32 49 51

GFSGBSN_500_spd_075.txt.gz
Wind_Speed
48 50 50 50 51 53 55 57 59 61 62 62 63 59 58 58 60 62 58 58 57 57 54 53 51 49 46 42 39 38 37 36 36 33 32 29 28 27 26 21 17 17 19 21 23 23 18
52 51 51 52 54 55 57 59 59 61 58 58 58 57 55 54 56 56 58 59 58 58 56 54 51 51 50 44 42 41 38 36 34 34 32 31 31 29 25 20 18 19 17 20 23 22 18
51 51 52 52 55 55 55 54 53 51 51 51 50 50 50 52 54 53 55 56 58 58 57 54 50 52 53 46 46 41 41 39 37 34 33 33 33 28 22 22 18 22 18 21 24 23 18
52 51 51 51 51 52 49 47 46 45 45 45 45 46 46 48 52 52 51 54 53 52 53 52 53 52 54 52 49 43 44 42 40 37 35 36 34 31 26 24 19 23 21 22 28 24 19
54 50 50 50 51 50 45 42 40 40 38 37 36 38 36 39 43 47 46 47 50 48 51 51 52 53 51 55 49 49 45 41 41 40 40 39 36 32 30 26 22 21 19 24 30 25 23
52 51 49 49 46 44 41 39 36 34 33 32 31 30 31 32 32 34 35 38 43 48 50 49 48 47 45 55 47 50 47 45 44 45 47 44 39 35 31 26 19 22 23 29 27 28 25
52 49 47 44 43 40 39 38 36 35 34 35 33 35 36 36 33 33 29 24 35 40 40 47 47 46 51 48 53 54 48 50 50 51 50 43 44 37 25 29 30 29 30 28 26 29 28
47 45 45 44 43 43 43 39 41 40 37 38 36 38 37 36 35 36 33 27 23 33 36 41 46 45 49 48 49 53 49 48 52 51 47 48 48 31 31 35 33 31 30 26 24 29 29
50 49 48 47 47 46 45 44 46 44 43 41 40 40 40 38 35 36 35 34 29 26 33 25 41 48 51 51 49 49 49 44 49 51 48 45 42 36 36 35 35 33 31 27 26 32 31
50 51 50 49 49 47 45 45 48 49 49 48 45 46 40 38 37 34 34 35 33 30 30 20 29 34 41 47 45 45 46 47 46 49 49 48 44 40 40 37 37 37 29 31 30 34 31
52 51 51 51 50 49 50 51 52 52 51 51 50 49 46 40 41 41 38 35 35 31 38 22 23 25 30 38 40 41 46 46 48 50 51 47 40 38 39 35 36 32 33 36 36 37 36
56 55 55 54 53 53 53 54 54 54 54 53 54 53 50 46 44 43 40 38 34 35 34 27 15 17 23 27 32 31 37 45 42 48 53 52 46 42 40 38 38 37 37 37 38 39 38
60 58 57 56 56 57 57 56 54 54 54 54 56 55 52 50 48 45 43 40 38 38 29 29 21 20 14 20 18 24 29 37 35 39 39 47 50 45 43 39 40 40 38 37 39 40 33
62 59 59 58 58 58 59 58 55 54 53 55 56 57 53 51 51 48 46 45 41 41 33 32 29 27 24 17 17 24 22 27 29 29 29 33 40 43 36 34 35 37 38 40 40 39 35
64 62 62 61 59 60 60 59 57 55 54 55 56 57 55 49 50 51 50 49 44 40 35 34 33 32 29 23 27 21 22 28 27 31 32 31 31 32 38 34 35 38 43 34 38 41 40
64 62 60 60 60 60 60 59 58 57 57 57 57 57 56 53 51 52 54 51 47 43 39 36 35 33 32 32 31 28 28 26 25 27 30 33 32 33 30 31 33 37 35 38 42 42 41
61 61 59 59 60 60 60 59 58 59 59 59 59 60 55 53 53 54 57 53 49 45 44 39 33 33 33 31 29 31 32 33 32 31 32 33 33 36 35 36 32 32 34 35 38 41 42
56 58 58 58 59 60 61 60 59 59 61 62 60 60 55 50 54 57 57 53 49 44 45 43 36 36 36 33 32 34 37 36 37 36 34 35 35 38 38 37 38 39 38 38 41 41 43
51 53 55 57 57 58 59 60 60 59 60 59 57 53 51 46 55 55 54 51 45 44 43 42 40 36 37 37 37 38 39 40 40 40 39 38 40 38 35 34 35 38 39 40 41 42 41
48 50 52 55 57 57 55 52 48 47 49 51 50 50 46 47 48 49 50 45 42 38 41 41 39 37 37 39 40 41 42 43 44 44 43 45 45 44 43 40 38 38 40 43 43 43 43
48 51 51 49 49 45 45 48 49 48 48 50 49 47 44 45 43 42 45 39 35 32 34 35 35 34 34 38 39 43 44 45 45 46 47 47 46 47 48 46 45 46 45 44 46 46 45
40 38 36 35 36 36 34 33 36 46 51 53 49 44 45 45 37 39 38 32 25 23 25 24 27 25 31 35 38 41 44 47 47 49 48 49 47 47 47 47 44 45 44 46 47 46 46
38 39 40 39 38 38 38 38 36 35 45 51 45 41 42 42 41 39 35 28 23 22 20 22 21 21 23 26 35 40 43 44 46 47 48 49 50 46 47 44 46 46 40 43 45 47 51
28 33 36 37 36 36 35 37 39 41 37 43 45 41 43 43 45 39 33 28 23 20 20 23 22 22 23 25 28 30 35 38 42 42 46 47 45 45 45 46 48 46 38 40 41 44 46
23 23 26 33 36 35 33 33 35 39 41 36 42 43 43 41 43 43 32 26 24 22 20 23 24 24 25 26 22 24 29 31 33 35 36 39 43 42 47 47 47 47 40 39 32 34 37
30 29 28 26 34 35 33 31 32 32 38 40 36 40 45 45 39 37 34 30 26 21 21 21 26 25 25 24 23 25 28 29 33 34 36 37 35 32 33 39 38 35 45 44 43 41 39
26 26 26 30 29 36 33 30 28 28 29 35 34 40 48 47 38 35 29 26 26 24 20 21 26 25 26 26 27 26 26 28 29 28 30 31 30 26 24 19 16 21 34 44 48 49 46
26 27 28 30 33 35 36 32 30 27 26 29 31 38 46 41 36 30 25 25 24 23 21 21 23 28 28 28 30 28 25 23 25 23 24 23 22 19 15 11 10 13 18 20 23 29 47
34 35 32 29 33 32 40 36 34 31 30 27 33 37 43 42 35 29 27 24 23 24 25 23 22 28 31 31 31 27 26 24 25 26 26 23 20 18 17 14 16 19 20 21 20 19 21

GFSGBSN_500_spd_078.txt.gz
Wind_Speed
61 57 56 54 53 52 53 52 52 52 53 53 51 54 55 56 58 59 61 63 63 62 60 60 58 53 51 51 46 50 46 43 41 39 38 38 36 33 31 27 27 21 24 20 24 23 22
63 60 59 56 53 52 52 53 54 53 53 55 55 54 57 58 59 58 58 58 58 56 55 54 56 53 54 53 51 51 48 44 41 40 39 39 38 35 32 27 27 24 24 19 21 25 20
58 59 58 55 54 52 52 52 52 52 53 54 53 50 51 51 52 51 51 50 51 51 53 52 56 54 55 52 54 54 49 46 44 40 39 38 40 37 31 29 26 25 23 22 20 25 21
54 56 54 53 54 52 53 52 52 48 48 46 45 43 41 42 43 44 44 44 47 47 51 52 50 53 54 54 54 54 51 51 48 42 41 41 40 36 30 29 26 26 24 22 21 27 24
52 52 53 54 54 53 53 51 48 45 45 45 42 39 36 37 35 35 37 38 44 45 45 48 48 51 51 53 58 56 54 48 50 49 45 42 41 37 33 30 31 27 23 23 26 30 28
54 54 55 56 53 53 50 47 47 45 42 41 38 35 34 33 30 32 33 34 35 39 39 40 44 46 50 53 56 53 54 55 52 49 49 46 44 40 36 30 27 28 25 28 28 33 30
57 57 55 55 53 49 47 45 45 42 40 38 35 35 33 32 33 34 32 33 33 30 28 30 34 38 45 51 51 48 48 55 55 52 51 46 48 47 29 30 31 35 29 30 30 33 29
58 56 55 53 51 49 48 47 45 43 41 38 38 36 34 34 34 35 32 31 31 32 26 27 29 28 36 48 50 46 43 51 54 54 48 49 55 39 33 36 36 37 32 28 32 35 33
57 55 54 53 51 50 49 48 46 44 41 42 40 38 39 38 37 36 37 35 32 32 34 25 30 32 32 42 37 42 46 46 52 50 51 51 50 39 38 37 41 38 34 28 34 38 36
55 55 54 53 53 53 51 49 48 45 43 43 42 43 43 41 40 38 37 34 37 36 37 30 25 28 31 30 32 34 40 47 52 53 53 49 57 48 41 40 42 40 32 34 37 41 38
57 56 54 54 52 51 50 49 47 46 45 43 43 43 42 42 42 41 39 39 39 37 40 31 25 24 25 26 25 31 30 43 45 49 53 51 49 49 44 38 39 37 38 37 41 41 41
59 57 56 54 52 50 49 47 47 47 47 46 47 46 44 44 45 45 43 41 40 41 40 36 29 25 27 19 20 24 31 35 46 53 52 52 52 52 48 42 41 41 40 40 39 39 44
62 59 58 56 54 52 51 50 49 49 48 48 48 47 44 46 46 45 43 41 43 43 39 36 30 24 25 25 18 16 22 29 38 46 46 50 50 52 51 45 43 45 42 41 39 41 43
64 62 61 58 56 54 53 51 51 49 49 48 50 47 46 47 47 46 45 44 45 44 41 38 34 28 25 23 18 14 15 20 27 36 38 37 40 43 47 48 43 43 42 43 43 42 41
65 63 62 60 58 57 55 53 53 51 50 50 50 49 48 48 49 49 48 46 45 44 43 39 36 32 26 24 20 21 16 17 17 19 31 37 35 30 35 45 45 42 46 42 44 47 46
65 65 62 60 59 58 56 55 53 52 51 51 51 51 49 50 51 52 54 51 46 45 45 39 39 34 29 25 26 21 24 17 18 14 16 25 24 27 26 35 38 43 42 42 43 44 45
60 60 61 59 58 58 57 55 53 52 52 52 52 52 49 52 53 55 58 53 47 43 46 41 39 35 31 27 28 32 29 25 23 21 22 23 24 30 29 30 30 35 40 39 41 43 40
44 51 54 56 54 54 54 53 52 52 53 53 52 53 50 53 55 55 55 52 48 39 45 43 41 37 34 32 31 30 31 31 29 29 24 24 22 26 30 30 30 34 36 36 40 38 39
34 37 43 45 46 47 49 52 52 51 52 54 54 53 52 55 57 55 55 53 51 43 44 45 42 40 37 36 37 35 35 35 33 32 30 25 24 23 25 28 29 28 30 33 34 36 40
29 32 37 41 42 45 47 49 51 52 53 54 56 56 55 58 58 55 54 54 52 42 44 46 42 41 37 38 40 39 40 38 39 37 35 33 34 30 25 30 31 31 31 30 30 32 34
20 26 32 36 38 41 43 45 47 49 51 55 56 54 52 53 50 47 48 48 45 41 42 42 42 41 37 38 40 41 41 42 42 40 41 40 39 38 38 36 34 33 32 33 35 36 38
19 23 27 31 35 37 39 41 44 45 46 50 50 47 45 40 37 38 37 40 36 35 37 37 35 34 36 36 40 41 42 42 42 41 42 41 39 39 39 40 41 41 40 40 39 39 40
18 20 24 27 30 33 34 36 37 39 38 33 31 41 44 38 37 36 29 32 31 31 33 29 25 27 29 30 37 38 40 39 41 40 40 41 41 39 37 37 38 42 41 40 40 40 40
10 11 12 18 27 33 35 37 40 41 39 38 35 30 38 36 39 34 40 35 33 35 30 27 24 24 25 28 30 33 37 39 40 39 41 42 41 42 40 38 41 40 39 35 38 36 39
16 18 18 21 20 20 27 34 36 37 38 38 36 31 29 36 35 35 37 35 34 38 30 25 21 23 24 25 25 25 26 30 33 34 37 38 41 41 41 41 39 41 39 37 39 38 39
20 22 25 27 26 27 23 26 32 36 35 35 35 34 30 33 35 34 38 34 34 33 27 21 17 22 23 25 25 23 20 22 24 27 29 32 36 37 36 35 34 35 35 37 36 37 42
21 23 23 24 26 28 30 26 27 34 33 32 30 31 33 30 34 36 36 36 35 30 25 20 17 20 25 24 24 22 22 22 23 23 25 27 29 28 26 25 23 27 27 28 33 37 43
29 29 31 32 29 27 27 28 26 32 31 29 26 27 30 28 32 34 37 37 32 26 22 20 17 20 25 25 24 23 26 21 19 17 19 22 23 25 24 23 23 21 22 23 23 23 28
30 28 27 30 34 32 30 29 27 32 29 27 22 23 28 30 31 36 37 32 25 22 21 18 18 19 25 26 25 27 25 23 21 21 21 19 18 19 20 19 18 18 16 11 11 12 13

GFSGBSN_500_spd_081.txt.gz
Wind_Speed
63 64 60 57 56 55 55 56 55 56 56 56 55 55 55 56 56 55 55 55 57 55 55 56 59 61 59 60 54 54 49 47 47 47 46 43 42 41 38 36 37 35 28 30 27 26 25
59 60 59 57 57 59 60 60 58 57 57 58 56 56 57 56 57 56 56 56 55 55 57 58 59 60 61 61 53 52 52 49 49 48 48 47 45 42 42 38 38 33 31 29 28 27 25
60 58 60 60 60 60 62 60 59 57 56 56 56 55 56 56 56 54 56 55 55 56 57 57 55 55 58 50 49 51 52 51 52 50 48 48 49 47 42 38 37 35 32 29 27 27 25
62 62 62 60 60 61 62 58 58 56 54 53 54 52 52 51 52 50 51 51 53 53 51 51 47 48 48 48 50 47 51 51 56 54 53 49 50 47 44 38 36 34 33 29 24 28 26
62 62 63 61 59 59 61 59 56 54 52 50 49 48 47 46 44 43 44 44 46 43 42 42 41 41 42 46 50 49 50 52 55 57 56 53 52 49 44 40 38 36 30 28 25 26 30
58 59 58 57 60 57 57 55 55 53 52 50 47 45 44 41 39 42 39 38 37 37 35 34 34 35 36 42 45 48 49 51 56 54 58 55 54 52 48 45 38 29 30 28 25 22 33
60 57 57 57 57 54 56 56 54 54 50 49 47 45 42 39 38 38 34 34 34 34 30 30 30 29 33 36 39 46 46 50 54 58 51 56 58 57 51 40 32 31 32 27 21 25 38
63 62 60 59 59 58 58 57 55 54 52 48 46 45 41 40 38 36 34 32 35 35 29 29 29 33 31 36 34 37 43 46 49 50 45 56 57 56 52 44 41 38 37 32 26 33 40
65 64 60 58 58 58 57 56 54 51 50 48 46 46 43 41 38 37 37 35 35 34 34 33 29 30 34 35 34 31 32 36 44 46 47 54 52 49 51 46 45 41 39 30 29 33 47
70 66 61 59 57 56 55 53 53 51 49 49 47 46 44 42 41 40 37 39 36 34 35 35 31 33 29 29 29 29 29 29 37 42 46 53 52 52 47 47 44 43 36 32 35 40 43
70 68 64 60 57 56 55 54 52 52 51 50 48 48 46 44 43 41 41 39 35 34 35 38 31 28 25 31 31 28 27 27 29 45 48 52 49 56 48 39 42 40 36 36 39 43 43
63 63 63 61 59 57 54 53 54 53 52 51 51 49 47 44 42 40 39 34 35 34 40 37 35 31 28 30 28 28 30 21 27 45 53 53 50 50 46 46 46 40 41 41 42 42 45
59 61 60 60 59 57 55 53 51 50 50 48 46 43 42 42 42 38 36 35 36 35 36 38 35 31 29 31 28 27 28 22 24 33 45 52 59 52 51 44 47 49 44 44 43 44 46
56 58 59 59 59 58 56 53 50 48 49 46 44 43 42 42 40 37 36 37 36 36 34 35 36 32 31 31 28 25 29 26 17 27 36 50 51 54 54 50 49 48 48 44 39 34 33
51 55 58 59 59 59 56 55 51 50 49 47 44 44 43 40 37 38 38 40 34 35 33 33 36 32 32 31 28 24 25 27 23 18 26 30 46 49 53 51 53 51 54 45 37 34 34
43 45 50 55 57 58 58 55 54 51 49 47 45 45 41 39 41 41 42 41 36 34 33 31 35 34 31 32 29 24 24 27 23 17 13 21 28 36 42 42 48 51 48 48 50 45 45
40 41 42 45 53 54 56 55 53 51 50 48 46 44 42 41 44 46 44 40 37 36 36 33 35 36 32 34 31 28 26 25 25 22 17 12 22 9 32 38 37 43 46 45 38 40 37
35 36 37 37 44 50 52 53 51 50 50 48 46 44 43 44 46 47 44 40 42 37 38 36 36 37 33 35 35 33 31 30 29 25 23 17 10 21 20 20 22 27 35 38 36 30 27
28 27 27 27 35 42 46 47 46 46 47 48 46 45 45 46 48 45 43 41 41 40 40 39 38 37 36 34 36 36 34 33 30 30 26 22 13 9 8 18 22 27 31 30 28 24 25
21 19 16 18 27 33 38 40 41 42 43 45 47 46 45 46 45 43 41 41 41 40 41 43 42 40 38 36 39 38 37 34 34 32 31 26 21 16 19 18 15 15 17 19 23 30 31
16 14 11 12 19 26 32 36 39 42 43 45 45 43 44 45 42 41 42 45 44 45 45 43 44 42 39 38 40 41 40 39 35 36 34 32 30 28 23 24 20 25 21 23 23 24 26
15 12 11 12 14 20 26 30 33 36 38 39 39 37 41 42 42 44 44 44 42 39 43 39 41 38 39 40 42 43 43 44 43 40 36 37 34 33 30 30 29 25 25 26 27 26 28
9 11 13 15 17 20 24 28 32 35 36 35 36 38 40 40 41 41 34 31 32 27 25 28 29 33 35 38 42 46 46 46 43 42 38 35 31 32 34 32 31 34 31 32 30 32 32
7 6 5 5 9 18 24 26 30 32 34 33 30 30 30 25 28 34 31 27 27 31 33 28 28 29 31 36 40 43 44 44 44 42 43 44 43 38 34 34 36 31 31 32 30 29 26
11 10 11 12 13 14 14 16 26 32 31 32 33 33 32 29 26 29 31 26 26 29 28 30 29 30 29 31 35 38 39 42 42 39 40 41 41 41 41 38 35 31 34 34 31 25 37
13 13 14 15 16 19 21 21 19 20 30 33 30 30 30 28 22 27 35 35 38 31 29 29 29 27 26 28 29 30 28 31 31 36 33 35 37 38 38 37 37 31 35 37 31 28 40
17 18 19 22 22 21 20 24 25 23 21 25 29 28 28 26 25 25 35 37 42 32 27 32 28 23 23 24 25 24 21 24 23 20 24 27 30 31 29 30 30 32 29 23 25 30 36
22 24 26 27 25 25 26 26 28 29 24 23 21 26 24 20 24 24 34 31 36 31 23 28 27 21 22 24 23 23 24 23 23 21 19 22 25 25 26 28 29 26 23 23 26 27 30
23 27 28 30 28 27 27 28 29 30 27 26 25 24 23 23 22 28 35 34 37 33 28 26 21 19 23 25 24 24 19 23 20 20 20 14 17 18 19 19 23 22 24 23 19 20 22

GFSGBSN_500_spd_084.txt.gz
Wind_Speed
60 62 62 65 63 62 62 62 62 56 55 55 54 53 53 53 54 55 56 57 56 55 56 57 59 59 59 55 52 50 50 50 47 47 46 44 46 45 45 41 41 43 38 32 33 35 34
60 60 59 60 61 62 62 62 62 59 57 55 56 54 57 56 55 56 56 56 56 56 55 57 58 58 56 57 53 49 53 48 50 46 47 46 47 47 47 48 46 40 40 37 35 35 33
59 60 60 60 60 60 61 61 62 59 57 58 57 55 56 57 56 55 55 55 54 54 55 55 56 57 54 56 55 55 50 52 50 50 47 47 49 51 50 52 46 43 47 39 36 32 33
59 60 60 62 62 62 62 61 60 60 58 57 57 55 55 57 55 54 53 51 52 48 49 49 52 55 50 52 54 57 54 48 46 44 45 49 52 53 55 52 50 49 45 43 30 33 30
58 57 56 60 61 62 63 63 61 60 61 59 58 54 52 53 52 50 47 46 46 44 43 44 48 48 51 47 50 54 51 45 43 46 46 49 54 58 57 54 52 51 45 39 32 32 29
64 62 61 62 61 60 59 60 61 61 61 59 57 51 50 47 48 43 42 41 42 41 41 39 45 47 49 48 47 44 41 41 41 43 47 49 57 61 60 55 55 45 43 37 35 23 26
67 68 68 64 63 63 62 59 57 58 58 58 56 49 46 45 44 39 38 38 40 42 38 39 41 37 39 40 40 40 39 37 37 40 45 50 57 59 52 58 51 45 44 40 34 18 20
71 69 70 71 68 65 62 61 60 58 56 52 50 49 48 45 42 39 38 38 38 40 37 37 35 37 29 35 39 35 35 31 32 35 43 51 53 49 49 59 51 51 46 41 36 25 25
70 71 72 72 71 70 66 61 59 59 57 54 51 49 48 45 42 40 37 37 38 38 41 34 35 33 34 31 32 32 31 28 30 33 39 48 45 47 54 61 53 54 45 42 38 31 31
74 71 71 71 69 67 67 64 59 55 54 52 51 48 46 45 43 42 39 39 39 39 40 41 34 34 31 29 31 30 27 28 29 31 34 40 43 45 57 59 59 52 44 44 40 37 39
66 64 63 62 61 62 63 61 59 54 52 50 48 46 44 44 43 42 39 39 40 38 37 41 36 34 30 27 27 25 26 26 29 27 34 33 41 46 54 55 52 54 46 42 45 40 39
51 54 55 53 54 54 57 58 56 53 51 49 46 45 44 43 42 42 42 42 39 39 37 38 35 29 26 27 29 26 25 26 27 30 28 37 41 46 51 52 32 44 48 49 45 41 48
41 41 43 48 51 50 53 55 54 51 50 48 46 44 43 42 42 42 42 42 38 36 34 34 35 28 26 24 25 26 26 26 25 29 28 32 43 44 49 54 57 44 44 43 40 42 45
42 42 42 40 42 47 49 52 52 52 48 48 44 42 42 41 41 39 41 40 38 34 30 34 29 25 24 24 24 25 28 28 26 28 30 24 34 36 46 54 49 48 45 37 42 38 38
46 45 44 42 42 42 46 46 50 51 49 47 44 42 42 41 40 39 39 39 34 34 34 32 21 23 22 24 21 26 26 29 29 23 24 17 18 38 39 43 47 46 47 37 36 36 36
38 39 39 40 41 41 41 46 46 48 50 47 45 44 41 41 39 39 39 38 33 31 29 25 22 24 19 25 19 20 20 28 27 24 22 21 12 28 41 47 44 45 36 39 44 33 30
36 36 35 36 38 40 38 40 45 47 48 48 46 45 42 41 40 41 41 34 30 30 29 26 25 26 22 26 22 24 24 27 28 23 21 26 16 12 24 41 45 45 43 43 43 44 35
36 34 33 34 34 33 34 36 42 45 47 47 47 45 43 42 43 43 40 34 31 29 30 27 26 25 23 26 24 26 24 32 30 26 23 22 18 10 7 19 25 28 31 40 38 42 47
34 32 30 28 28 28 30 31 36 41 43 45 46 45 43 43 43 41 37 36 32 31 31 29 28 26 24 27 28 26 30 33 30 27 28 23 21 14 12 10 19 33 25 22 35 35 23
31 28 26 22 20 19 21 21 29 36 39 41 43 44 42 42 42 41 38 36 33 32 32 31 30 29 28 28 29 30 31 33 31 30 28 26 23 18 12 2 12 13 28 23 26 30 29
27 23 21 18 14 8 7 13 25 32 35 38 38 37 39 41 40 37 37 36 34 34 33 32 32 31 31 31 31 33 32 34 33 31 29 32 23 24 19 13 16 13 16 19 27 29 29
21 18 16 14 13 6 4 9 20 27 32 34 33 32 37 39 40 39 38 36 36 34 32 33 34 34 35 36 35 37 36 38 38 36 33 34 29 27 26 24 21 20 22 16 19 13 23
17 12 11 10 10 9 9 10 14 20 28 29 30 33 36 36 37 39 37 36 34 33 31 31 28 32 34 31 41 41 40 39 39 37 36 37 34 29 28 31 30 27 20 19 25 27 24
17 12 9 8 6 6 11 14 17 20 22 24 26 29 32 31 33 32 32 33 29 26 30 26 22 24 28 34 38 41 41 40 40 37 35 39 38 37 30 30 33 27 23 20 16 21 23
17 14 12 9 8 8 8 8 16 21 24 25 26 29 29 28 28 25 23 20 28 21 21 24 21 20 27 30 31 30 32 39 38 38 37 38 42 41 38 32 31 26 21 25 26 22 20
19 16 14 12 11 10 11 12 13 12 15 23 26 27 27 27 26 27 26 22 28 25 28 30 33 36 32 29 26 23 19 19 25 34 36 38 38 46 46 44 43 37 34 36 32 26 31
20 20 18 17 16 17 15 15 14 17 17 14 12 23 29 29 26 26 27 22 32 31 23 26 31 24 24 23 25 24 20 18 18 17 21 29 33 36 38 39 39 34 38 37 33 32 34
22 22 22 22 22 21 20 18 18 18 19 21 14 15 17 24 23 25 26 23 37 39 29 27 21 22 27 22 17 21 20 21 21 18 12 17 22 29 30 32 33 29 28 25 25 25 29
23 24 25 23 24 25 25 23 21 20 22 25 24 16 13 21 20 25 29 26 35 40 37 25 21 24 25 19 24 22 23 21 20 23 22 16 14 17 20 17 19 23 26 30 28 29 28

GFSGBSN_500_spd_087.txt.gz
Wind_Speed
66 67 66 66 67 67 66 66 68 68 65 64 61 59 59 58 57 54 53 53 53 52 52 53 53 53 53 54 55 55 55 55 51 48 47 46 47 45 46 42 42 45 43 41 38 37 38
62 61 63 64 65 66 66 66 66 64 65 63 63 61 58 59 57 56 55 53 54 55 55 55 53 53 53 54 53 53 55 55 48 49 49 46 46 46 51 48 46 44 46 45 43 43 37
49 51 55 57 60 61 62 62 62 60 60 60 62 60 62 58 56 54 55 53 54 53 54 53 52 51 52 49 49 50 51 52 48 48 46 43 45 51 52 52 48 47 49 48 50 47 40
51 52 52 53 53 55 57 58 61 63 62 62 60 58 58 55 54 51 50 49 51 51 50 52 51 50 45 45 45 45 45 45 46 45 45 43 46 50 49 46 47 51 53 52 50 42 39
55 56 58 58 60 60 59 57 57 59 60 61 61 58 57 54 52 51 49 48 47 46 48 47 47 46 40 38 38 40 42 41 44 45 46 46 46 50 45 48 51 53 53 50 46 42 39
60 61 62 64 64 65 64 65 62 58 60 59 59 58 56 53 54 52 48 47 43 43 44 42 43 42 40 32 35 36 37 38 42 47 43 42 43 44 47 52 50 47 52 50 47 37 37
59 61 65 65 67 69 67 67 66 64 60 59 60 60 55 51 51 50 45 42 42 42 40 39 39 35 34 35 31 28 36 35 38 41 42 42 44 49 46 47 47 50 59 57 49 42 34
62 64 66 68 70 71 71 66 65 64 64 60 58 57 56 51 51 48 44 39 39 40 36 37 37 31 32 34 31 29 33 33 35 38 39 41 43 39 46 50 51 56 52 54 53 36 36
65 69 72 72 72 72 73 72 67 63 61 60 57 54 55 52 49 43 40 40 37 38 38 34 34 33 32 32 32 31 29 32 31 35 38 42 38 43 45 51 51 49 48 50 50 35 45
72 68 63 61 60 60 60 64 65 62 59 57 55 52 49 48 46 44 40 38 36 37 38 34 34 33 33 31 31 29 28 31 34 32 37 35 35 39 42 46 49 48 45 55 54 47 47
60 53 48 47 47 46 48 51 53 53 52 52 51 48 46 45 43 40 40 39 37 36 38 37 33 34 33 31 29 27 29 29 28 28 32 32 32 35 39 36 45 45 49 56 59 48 50
55 48 44 42 42 42 40 40 46 44 44 46 46 45 44 42 39 39 38 37 36 35 35 36 32 30 30 29 28 30 30 30 27 28 25 26 28 32 33 34 38 44 41 52 49 49 50
49 48 44 43 42 42 40 38 37 41 41 42 45 44 42 39 40 39 37 36 35 35 30 33 36 33 30 28 27 26 26 25 24 24 26 25 26 30 30 34 33 33 40 38 42 44 49
46 47 45 42 40 39 40 40 36 36 39 40 42 42 41 38 37 38 38 37 35 31 24 27 33 30 23 24 25 26 26 20 20 21 21 22 24 25 21 29 27 40 40 41 46 54 50
44 45 46 44 41 40 38 37 38 34 36 39 41 42 39 38 37 38 37 37 33 27 32 33 32 23 22 24 23 25 23 23 22 18 18 19 19 24 15 27 31 38 45 37 40 43 45
43 46 46 44 40 38 37 35 35 36 34 37 40 41 37 39 38 38 37 35 33 34 33 29 24 24 23 24 26 21 22 23 22 17 15 16 15 22 19 25 32 31 43 39 40 31 37
42 47 45 41 38 35 35 34 33 35 33 36 39 39 39 39 40 40 40 35 30 31 29 27 26 27 27 26 26 16 17 20 20 18 17 17 17 18 18 18 33 33 40 45 44 38 33
41 44 41 39 35 33 33 29 26 30 30 32 39 38 37 37 39 39 37 31 31 29 26 24 24 25 25 23 25 23 25 23 23 20 21 20 16 17 15 15 25 44 38 32 35 37 36
39 38 37 34 32 30 29 28 23 23 26 29 37 35 35 35 38 38 36 31 31 27 27 27 23 24 24 24 29 24 27 24 20 19 21 20 18 16 13 7 6 25 37 43 37 33 38
37 37 36 31 27 27 24 22 18 19 23 27 33 32 33 33 34 35 34 31 30 28 29 29 28 28 26 27 29 28 26 28 20 19 20 19 19 17 16 15 9 12 25 26 28 31 33
35 30 27 27 22 22 19 12 8 12 18 26 32 33 34 36 30 31 32 32 32 31 30 29 27 28 28 29 29 28 28 27 25 21 22 21 20 19 17 21 18 9 14 23 24 23 33
29 26 25 23 19 16 14 10 4 7 16 24 29 31 35 36 37 37 33 30 29 29 30 30 29 30 30 30 30 30 31 30 27 26 22 23 23 24 24 21 24 15 8 25 28 23 23
24 23 21 19 17 15 11 9 3 5 9 15 21 26 30 32 35 36 35 34 32 31 30 29 30 29 28 30 32 30 30 31 28 27 25 23 25 29 24 24 24 19 19 25 21 25 31
24 21 20 17 16 12 10 8 8 6 9 13 18 23 28 28 33 34 33 33 34 32 29 30 30 29 26 30 27 31 33 33 32 31 30 27 25 28 26 26 26 18 20 19 18 13 16
23 21 19 16 13 10 8 8 6 8 9 13 19 20 23 23 25 26 28 29 29 30 28 26 26 23 20 18 15 19 26 31 31 32 31 32 31 33 35 32 29 21 23 23 20 20 17
24 21 19 17 15 12 9 8 7 7 6 14 15 18 21 23 23 26 27 28 28 26 25 20 22 23 22 18 25 17 19 20 22 26 29 34 34 35 37 40 37 23 25 21 20 28 25
24 21 19 19 18 16 13 11 11 10 10 8 12 15 20 19 20 26 26 26 25 23 25 23 29 24 17 27 27 23 26 20 13 6 11 17 28 33 33 38 40 34 35 29 29 33 35
23 22 22 22 22 20 19 16 13 13 12 11 13 13 12 13 22 23 25 29 29 24 29 26 34 29 23 19 17 24 20 19 18 12 11 11 16 22 29 34 36 34 39 41 42 42 35
25 25 24 23 22 22 21 19 17 15 15 16 15 15 12 7 12 23 26 30 30 27 31 27 31 27 21 26 18 17 14 19 19 19 9 7 8 12 17 20 20 19 21 22 27 28 28

GFSGBSN_500_spd_093.txt.gz
Wind_Speed
65 63 62 63 62 63 62 61 62 60 61 62 64 65 67 68 70 70 69 68 66 65 64 61 61 56 54 53 48 53 46 46 45 45 44 43 44 46 46 44 44 47 46 44 42 38 38
58 58 57 54 48 47 47 48 50 50 51 54 55 57 59 60 63 65 65 67 65 65 64 64 63 62 58 54 53 55 47 49 51 50 51 51 47 48 51 51 48 45 46 43 42 41 40
46 41 40 40 42 44 47 49 52 53 55 54 53 52 54 54 54 57 62 64 63 60 60 60 62 63 61 48 54 54 52 50 49 47 47 47 47 48 50 49 46 46 46 43 43 44 39
37 40 41 43 45 47 49 50 53 54 56 57 59 59 57 57 56 53 53 52 53 54 54 53 57 59 57 49 56 49 53 48 48 47 44 45 46 47 47 49 46 43 46 47 44 40 39
39 42 43 44 45 49 51 54 58 61 63 64 63 60 59 58 61 59 56 51 49 49 49 50 51 53 51 48 48 51 49 45 44 45 41 42 44 45 47 46 44 43 46 43 41 38 39
40 42 43 46 48 52 55 58 61 62 64 66 67 68 64 60 60 60 60 56 51 48 45 46 47 45 46 46 47 46 41 39 40 41 41 38 40 41 43 39 38 38 39 39 40 39 38
39 41 43 47 50 52 55 54 52 50 51 54 60 64 67 64 60 61 58 56 54 53 48 42 42 41 42 42 41 41 41 40 40 38 38 38 38 37 31 34 39 41 42 41 40 38 37
40 42 45 47 50 51 51 47 47 47 48 46 47 48 53 59 57 60 57 56 55 55 50 44 40 37 41 42 40 39 40 40 38 37 38 37 36 29 33 36 36 36 35 35 34 34 40
40 42 44 45 48 49 49 48 48 48 49 49 44 44 46 48 47 53 55 55 51 52 54 40 39 36 37 41 36 36 37 38 38 36 34 34 33 32 33 33 34 33 34 31 34 36 40
39 41 43 47 48 48 51 49 47 47 49 50 46 44 42 40 41 46 52 49 47 46 49 39 41 37 36 39 34 36 37 36 35 33 34 33 31 30 33 32 32 32 29 32 36 39 44
39 41 45 47 48 48 53 49 47 47 49 50 45 43 42 38 34 39 44 45 42 39 44 38 37 40 36 39 35 36 37 37 35 32 33 33 32 33 33 31 30 29 29 32 35 39 46
39 43 45 47 48 50 54 49 47 48 49 48 43 40 39 37 31 35 36 38 38 37 39 27 31 37 37 38 38 38 38 36 34 33 33 32 31 32 32 29 28 30 31 31 33 39 49
41 44 45 47 48 51 55 48 46 48 50 44 39 37 35 33 32 30 33 35 36 37 31 28 23 28 33 36 36 35 35 34 33 32 31 31 32 31 29 28 28 29 31 33 36 39 39
42 44 46 47 49 52 53 46 47 47 48 40 36 34 31 32 30 28 32 33 34 32 31 27 28 31 27 33 37 34 34 34 34 33 33 33 32 29 27 26 26 29 30 28 33 37 36
43 45 46 47 49 53 51 45 46 44 42 38 37 31 28 30 25 27 32 33 30 30 26 27 33 32 31 32 33 33 32 34 36 36 34 32 31 28 25 23 25 25 25 26 29 30 33
45 45 47 47 49 53 48 45 43 44 41 40 33 26 27 23 20 27 32 30 29 27 30 33 33 35 34 35 35 34 34 35 34 33 32 29 27 27 25 21 21 21 23 23 28 30 29
45 46 47 46 49 51 46 40 42 42 39 39 24 21 19 19 20 28 30 30 31 29 38 31 40 35 34 38 38 36 36 35 34 33 32 31 29 27 23 21 17 19 21 24 28 22 31
45 46 46 45 48 47 40 37 41 39 38 33 17 18 17 17 20 27 31 30 35 35 40 28 37 37 33 33 31 27 26 27 31 29 30 31 28 24 23 20 14 15 17 21 28 30 33
43 45 44 44 46 42 35 37 39 35 34 25 10 14 13 16 21 28 30 30 41 36 41 20 35 34 32 33 32 33 34 30 29 33 33 29 27 22 19 18 13 14 11 17 33 31 18
43 43 42 41 43 36 33 35 36 31 29 18 7 6 10 18 23 28 28 30 42 41 30 22 28 38 33 32 30 28 31 30 30 30 30 27 26 24 22 21 18 17 13 11 20 31 31
42 42 41 39 40 32 31 33 31 26 26 14 4 6 15 19 17 23 25 34 38 47 31 29 26 25 27 29 33 34 32 34 30 31 29 23 24 23 21 21 22 20 19 17 19 20 32
41 40 39 37 37 30 27 27 26 22 21 11 2 11 18 19 19 21 23 28 33 35 35 29 36 31 30 30 32 34 34 33 31 29 28 30 26 23 21 21 21 24 19 16 15 25 28
39 39 36 34 33 27 24 23 20 19 15 11 5 14 19 19 20 20 24 20 23 34 32 30 33 31 31 28 29 29 28 27 26 24 23 24 25 25 22 23 22 22 25 19 11 12 21
38 37 34 32 31 25 22 19 15 14 12 9 4 11 19 22 25 21 27 25 24 21 26 27 28 29 31 34 31 28 29 26 26 24 23 23 22 24 24 23 24 21 23 16 11 3 10
36 35 31 31 29 23 20 17 13 10 9 8 3 7 18 24 28 27 25 27 27 25 25 27 28 28 29 29 30 28 24 25 25 25 24 24 24 25 25 24 25 19 27 22 20 10 9
34 33 29 30 27 23 18 16 14 10 6 5 5 6 12 21 28 32 28 29 28 30 27 26 25 27 27 28 25 24 23 22 23 25 25 25 25 26 27 27 28 22 28 22 20 20 13
33 31 28 28 25 21 17 16 15 11 7 5 4 8 11 16 22 25 27 33 32 31 29 26 24 21 20 21 23 22 21 24 21 18 19 21 24 26 30 32 30 26 28 28 27 22 17
32 30 27 27 23 21 18 17 17 15 10 7 5 4 10 16 19 21 22 23 25 26 25 24 24 22 21 21 22 21 22 23 22 19 12 14 17 19 26 33 38 27 32 33 35 30 20
31 30 27 27 23 23 20 18 17 17 14 9 10 6 7 12 17 19 20 20 22 22 22 23 22 21 18 17 15 21 19 20 18 17 17 16 17 17 19 16 18 24 33 33 36 38 31

GFSGBSN_500_spd_096.txt.gz
Wind_Speed
62 61 64 63 62 60 59 58 56 55 55 56 56 55 55 56 58 59 60 64 69 73 74 71 69 68 62 59 56 58 55 53 49 49 49 47 46 44 44 42 41 44 42 40 39 39 40
57 57 56 54 53 49 48 47 47 47 48 50 51 53 54 54 55 58 58 59 60 63 68 70 71 68 66 62 59 58 59 53 49 49 48 48 47 44 45 45 42 41 42 41 42 42 42
49 48 44 43 42 43 43 46 49 50 50 53 54 56 57 58 60 61 59 58 58 58 58 61 62 65 66 54 58 60 59 53 51 49 49 47 48 47 48 47 45 46 47 46 44 44 42
40 38 39 40 42 44 46 48 50 52 53 56 58 61 64 65 64 63 64 61 61 60 56 55 57 63 63 51 54 55 57 54 52 49 48 48 48 47 48 51 49 46 46 46 45 45 43
37 38 40 42 44 46 47 49 50 53 56 59 61 64 66 66 68 67 66 66 62 62 59 56 53 53 52 49 50 53 52 48 49 47 46 48 47 48 47 48 48 47 46 44 44 44 46
39 41 41 42 44 45 46 48 51 55 57 58 60 59 60 60 59 62 63 66 63 63 60 58 53 49 48 48 47 49 47 44 44 45 45 45 46 45 46 46 42 39 42 43 45 45 46
40 41 42 43 44 45 47 50 52 55 56 55 56 55 52 51 51 50 52 55 62 62 62 59 55 49 45 48 47 46 47 48 48 42 42 42 45 44 36 37 40 42 43 46 46 47 47
40 41 42 44 45 46 47 51 54 55 55 55 57 53 50 51 51 50 48 49 51 58 60 56 53 52 42 48 48 44 44 43 43 44 40 41 41 36 38 38 39 41 42 44 46 45 47
39 40 42 43 45 46 48 51 53 54 55 56 58 51 49 50 52 50 46 48 48 47 57 50 50 51 42 48 41 40 39 41 40 39 40 40 39 39 37 37 38 38 40 41 41 42 43
38 39 42 44 45 46 49 52 53 55 55 60 55 48 49 50 52 48 45 45 43 43 48 48 45 49 42 44 42 38 40 40 38 37 38 39 38 37 35 33 34 37 37 37 38 39 39
37 38 41 44 45 47 50 51 53 55 57 58 48 48 48 50 44 44 42 43 36 36 41 32 35 45 42 41 44 38 38 39 38 38 36 36 35 34 33 33 34 33 32 34 35 36 37
37 40 43 45 46 48 51 53 53 54 59 52 48 46 44 44 43 43 42 38 30 31 34 16 21 37 37 39 43 35 38 38 38 40 37 38 36 33 31 32 32 31 32 32 33 35 38
38 41 44 46 47 49 52 54 53 55 55 51 47 43 45 44 47 45 37 31 28 31 22 23 21 31 37 37 38 34 36 34 36 36 36 36 33 31 33 31 31 32 31 32 33 31 30
40 42 45 47 49 51 53 53 52 57 53 45 44 44 45 49 46 34 28 27 29 25 24 18 23 25 29 36 39 33 36 38 37 37 38 36 34 33 32 31 31 31 31 29 27 27 27
41 42 45 47 48 51 53 54 52 55 46 44 46 46 48 46 33 27 25 24 20 18 21 20 21 24 29 34 34 36 34 37 39 38 37 36 37 34 32 31 31 32 30 26 24 24 27
42 42 44 45 47 50 53 53 52 49 44 47 48 50 48 31 24 22 22 19 20 19 22 21 16 25 29 28 32 36 35 38 40 38 36 36 32 32 32 33 33 31 26 23 23 24 24
42 43 43 44 46 49 51 51 51 45 45 48 50 50 31 22 16 16 15 18 21 23 23 17 21 30 25 31 31 31 35 37 37 36 35 34 34 34 33 33 32 26 25 22 21 23 23
43 43 42 43 45 48 50 48 48 42 45 48 49 43 18 10 11 13 15 21 26 34 21 21 20 36 21 28 30 31 33 32 33 33 33 32 32 33 32 30 26 25 23 22 22 22 25
44 42 41 42 44 46 48 46 45 40 43 45 43 31 10 10 10 9 19 23 30 35 21 18 14 34 31 35 32 23 25 30 31 32 31 29 30 30 29 28 25 23 21 18 19 25 24
43 42 41 41 42 44 45 43 41 38 39 40 36 19 4 5 8 11 18 21 33 37 21 17 9 30 27 28 30 26 22 19 21 20 28 27 27 27 27 27 24 23 20 17 17 20 25
43 41 39 39 41 43 42 40 36 35 33 34 28 14 4 4 9 9 15 20 25 30 16 15 1 10 23 26 31 31 37 30 20 20 22 24 26 25 26 26 26 23 22 21 20 20 22
41 39 38 38 38 40 39 37 32 31 28 28 21 10 0 5 7 9 14 19 25 16 11 15 10 10 24 38 27 23 26 22 24 26 23 22 24 25 19 25 27 22 24 23 16 16 25
39 38 38 36 36 38 35 35 28 26 22 23 15 7 2 7 9 12 15 18 19 17 10 28 12 11 10 12 22 27 26 28 27 26 26 25 26 28 24 24 23 21 19 20 20 15 22
39 38 36 33 34 36 32 32 26 21 18 19 13 5 7 10 11 15 16 15 18 24 26 22 26 16 21 18 15 18 21 25 27 25 25 22 23 26 27 25 23 20 19 18 17 17 15
39 37 34 31 32 32 30 29 23 18 16 15 11 7 8 14 16 17 19 17 14 13 16 19 18 18 21 19 21 20 23 22 22 23 23 20 19 22 25 23 23 20 19 16 17 17 11
37 34 31 30 30 29 28 26 21 16 14 13 12 7 7 14 21 19 22 21 21 21 16 17 18 19 19 22 23 27 29 26 26 28 27 27 27 23 24 23 24 17 20 21 18 19 23
35 33 30 29 29 27 26 24 19 16 14 12 11 8 8 10 16 23 24 23 23 21 22 17 17 18 19 22 22 22 23 23 23 19 18 19 20 21 24 25 24 21 22 24 21 20 21
33 31 30 28 28 25 25 23 18 16 14 14 9 8 9 10 10 16 22 24 22 25 24 24 22 23 21 20 20 20 18 17 17 19 20 16 15 15 19 21 21 23 24 28 26 25 25
33 30 30 29 27 25 24 22 19 17 15 16 13 9 9 8 10 11 16 20 24 28 28 26 24 22 20 20 19 18 19 17 18 19 21 20 17 14 16 17 18 16 21 28 30 29 30

GFSGBSN_500_spd_099.txt.gz
Wind_Speed
50 49 52 55 59 54 53 51 49 48 48 48 49 50 51 52 54 54 54 54 53 52 55 57 62 68 73 68 63 69 64 62 59 55 54 54 54 51 48 46 45 46 45 44 43 38 37
50 49 50 55 50 47 43 41 42 42 45 46 48 50 51 53 56 57 58 59 61 60 58 56 54 60 64 66 63 64 67 63 61 58 54 53 53 52 51 51 49 47 46 43 41 39 39
48 48 47 45 41 39 38 40 42 44 47 48 50 51 52 55 58 61 63 65 66 67 66 63 63 57 56 49 62 60 63 62 61 59 57 54 54 54 53 52 51 49 48 45 41 40 38
51 47 42 39 37 38 40 41 44 45 48 49 51 53 55 59 63 66 68 69 70 70 68 67 66 63 49 50 52 53 57 59 59 56 55 55 54 53 54 53 51 51 50 47 44 43 44
46 39 36 35 37 40 41 43 44 47 48 50 53 55 59 61 63 64 64 64 66 67 67 66 66 66 58 56 50 50 51 52 54 53 53 55 53 52 51 52 51 51 51 47 47 47 45
39 35 35 37 39 41 42 44 45 47 49 52 55 58 60 62 62 64 62 60 59 57 54 53 59 63 63 60 51 47 49 51 51 52 52 53 52 51 51 52 50 45 43 45 47 48 49
35 35 37 38 39 41 42 45 46 47 49 53 57 60 61 60 61 61 61 59 52 51 46 47 49 53 59 57 54 46 47 49 52 51 50 50 50 50 46 45 46 47 47 48 49 50 49
37 37 38 39 39 40 42 44 45 47 51 55 58 60 60 59 61 62 58 53 51 52 45 43 47 45 53 54 54 46 45 47 49 48 48 49 48 46 44 45 46 47 45 44 45 46 48
37 37 38 38 38 41 43 44 45 48 52 56 58 59 59 59 60 54 50 49 52 53 51 35 41 44 47 53 49 45 45 46 47 50 47 47 48 45 43 42 43 42 43 43 43 43 43
37 37 38 38 39 41 42 44 47 49 54 57 58 59 58 60 56 51 50 47 46 46 48 41 36 35 43 46 48 41 42 45 45 43 43 47 49 46 43 42 39 38 38 40 40 40 39
37 38 37 38 40 42 42 46 48 51 55 58 59 58 60 58 52 49 45 45 45 48 47 27 20 20 36 39 44 41 41 42 40 39 39 37 37 40 43 36 35 37 38 38 36 36 37
38 37 36 38 42 42 44 47 49 51 55 57 60 58 59 52 48 44 43 46 47 45 40 23 14 10 24 38 41 39 40 40 38 38 37 36 37 33 31 31 33 34 34 32 32 31 33
38 37 37 40 42 43 46 48 49 52 53 58 58 59 54 50 48 49 50 49 45 39 27 16 14 13 16 29 38 35 37 39 37 37 38 35 31 31 31 31 31 32 30 29 29 28 28
38 38 38 41 41 44 47 47 50 51 53 58 56 57 52 53 53 54 48 41 34 22 15 13 20 5 11 24 33 33 33 34 32 35 34 33 32 28 29 30 30 29 28 27 27 25 24
39 39 40 41 41 45 46 46 49 49 53 56 56 54 53 57 57 49 36 24 16 12 9 13 13 10 12 23 25 32 32 31 32 31 33 31 32 31 32 31 28 28 27 26 25 25 24
40 40 41 41 42 45 44 45 47 48 53 53 55 52 55 58 52 34 16 11 9 14 14 15 5 14 21 21 18 29 32 33 32 33 32 32 32 33 30 29 28 29 26 25 24 24 23
41 41 42 41 42 43 43 43 46 48 52 51 52 51 56 53 34 14 9 10 15 22 20 14 6 17 22 24 20 27 29 30 32 30 30 30 28 28 27 30 30 25 25 26 24 23 24
42 41 42 41 42 42 41 42 44 47 50 50 47 49 52 43 15 10 9 8 18 22 18 10 8 18 30 28 25 27 27 31 30 29 28 27 25 24 24 25 25 25 27 26 24 23 24
44 41 40 40 41 41 39 40 42 46 47 46 44 46 45 32 11 9 6 11 18 24 17 17 7 18 21 31 27 22 24 26 26 26 22 23 24 24 26 26 25 24 25 25 24 23 24
43 44 40 40 39 38 37 38 40 43 43 41 39 41 34 24 12 8 2 12 19 28 19 18 14 12 18 20 21 22 20 22 22 21 16 22 22 22 24 24 24 24 24 24 24 22 20
44 41 40 39 36 35 36 36 37 40 39 36 35 33 25 16 9 3 7 12 13 21 8 16 13 10 19 27 29 23 23 23 23 24 28 22 21 23 26 25 25 23 24 24 21 20 18
41 39 38 36 34 34 33 33 35 36 36 31 30 28 18 10 4 2 9 10 9 14 6 3 13 11 4 21 29 27 25 19 20 14 10 13 20 20 19 25 27 23 24 23 20 20 18
38 36 34 33 32 32 32 31 31 32 33 28 26 24 15 11 4 4 12 12 16 4 7 8 7 11 6 11 24 26 11 9 10 11 15 15 13 16 22 24 24 21 20 21 19 17 22
37 35 34 33 32 31 29 28 29 28 30 24 21 21 15 9 7 6 12 13 10 13 17 17 9 2 4 3 7 4 5 8 9 12 13 13 15 15 20 21 22 20 17 17 13 14 15
37 35 34 33 31 29 27 26 26 25 26 21 17 18 14 11 7 8 12 12 10 15 17 18 19 13 7 5 3 6 4 11 11 12 14 15 13 13 14 17 17 18 15 14 11 13 13
36 35 33 32 30 27 26 24 24 23 22 19 15 15 13 10 9 9 14 14 10 11 11 10 12 9 10 8 9 11 11 13 13 16 19 17 16 14 15 13 12 14 17 16 14 13 15
34 33 32 30 28 26 25 23 22 21 18 16 13 14 12 10 8 11 14 18 17 15 13 11 10 10 10 10 10 11 13 15 18 22 23 22 19 19 21 19 17 14 16 17 16 16 16
35 33 31 28 26 25 24 22 21 19 16 15 13 14 10 9 8 10 15 19 19 18 16 16 15 12 12 11 12 13 13 14 17 20 20 18 15 14 16 17 16 18 20 21 21 19 18
37 34 32 29 26 25 24 22 20 18 14 15 14 14 11 8 6 10 11 14 19 21 20 19 19 17 15 15 15 15 14 14 16 18 16 17 16 11 11 14 13 15 17 20 21 22 22

GFSGBSN_500_spd_102.txt.gz
Wind_Speed
44 44 42 41 41 42 43 47 44 43 44 43 42 43 43 44 44 45 47 50 52 53 55 55 53 53 51 49 46 61 62 65 67 65 65 62 60 57 57 54 51 50 49 49 49 46 45
48 47 43 44 44 43 42 42 40 38 38 38 38 40 42 44 46 46 49 53 55 57 60 62 62 61 58 51 51 56 59 60 65 67 64 64 63 61 57 58 56 53 53 51 50 49 46
48 45 43 44 44 43 41 38 37 38 37 39 39 43 44 46 48 52 54 57 60 62 64 65 65 67 65 57 63 60 58 57 59 62 64 63 64 64 61 58 57 56 55 54 53 51 47
47 45 44 42 43 40 38 35 37 37 38 40 42 45 47 51 53 55 56 58 62 65 66 68 70 71 68 65 66 65 62 58 56 56 59 62 62 63 64 62 60 55 57 56 53 54 49
44 42 41 42 39 38 35 35 36 38 40 42 45 47 51 54 55 56 56 59 63 65 66 67 67 67 67 67 64 63 63 60 55 53 56 60 62 61 63 62 61 58 56 57 55 52 51
40 40 40 39 36 35 35 35 37 40 42 44 47 50 53 54 56 57 59 61 63 62 60 60 59 55 55 53 53 56 58 58 55 52 54 59 61 62 62 62 61 59 53 50 51 52 52
38 39 37 36 34 34 35 36 38 40 42 46 50 53 54 55 58 62 64 64 59 58 55 50 47 45 41 45 47 48 52 51 52 52 52 58 60 59 59 58 56 53 52 51 54 53 50
37 36 35 35 34 33 35 38 40 41 44 48 51 52 53 57 61 66 66 61 58 57 51 39 44 47 46 47 45 40 47 48 48 50 53 54 55 55 56 56 54 53 52 50 52 51 51
35 35 34 34 33 35 37 39 39 42 46 48 50 53 56 59 64 67 60 58 55 54 51 37 44 42 42 45 40 38 46 44 43 47 47 48 48 52 56 52 50 50 49 49 48 49 49
33 35 32 33 34 37 37 39 40 43 46 47 51 54 57 61 66 60 58 55 52 50 50 45 43 35 36 40 38 40 42 42 44 42 43 46 50 50 49 45 44 47 45 45 46 45 44
34 33 33 34 35 35 37 39 41 45 46 48 52 55 59 63 64 56 56 53 52 52 55 48 41 30 28 28 27 34 43 43 43 42 42 39 43 47 46 41 41 43 43 41 38 39 42
35 33 35 33 34 35 37 38 42 45 47 49 52 55 59 63 60 58 54 54 56 53 55 43 35 24 18 22 18 28 40 42 40 37 38 37 37 44 44 43 44 45 42 38 35 36 41
34 35 35 34 34 36 36 39 42 45 48 50 53 56 60 63 58 58 57 59 58 51 39 33 22 16 15 13 14 25 35 40 39 37 37 34 29 37 41 45 44 41 33 32 32 35 36
35 36 36 35 35 36 37 40 42 44 47 50 53 55 61 58 59 59 61 62 48 30 24 19 12 17 12 7 13 23 33 36 36 35 34 32 34 33 31 27 27 27 28 29 29 29 30
37 37 37 35 36 36 38 40 41 43 46 49 51 55 58 57 59 61 63 37 22 16 7 11 14 17 8 17 8 21 31 31 35 33 33 30 30 27 25 23 26 27 28 27 27 26 25
38 39 36 36 36 37 39 40 41 42 44 46 49 54 54 56 58 60 38 17 11 7 8 11 8 1 13 20 15 20 30 31 33 31 29 28 25 28 28 26 26 28 25 24 24 24 22
39 39 37 36 37 37 38 38 39 40 42 44 48 51 51 52 54 48 19 13 7 10 16 13 8 5 27 24 21 22 25 29 31 32 29 25 22 21 23 26 26 22 22 23 23 22 21
39 38 37 37 36 37 36 36 36 37 39 42 46 46 46 48 48 29 12 4 9 16 14 16 16 10 23 23 22 22 25 25 27 24 25 24 22 20 24 23 22 22 23 22 22 22 21
39 39 37 37 36 37 34 34 33 34 36 39 43 42 41 42 37 19 8 6 15 16 21 22 19 10 14 16 25 18 20 20 20 23 23 23 24 21 22 24 24 23 22 20 20 19 19
41 38 37 38 36 35 34 31 30 32 33 35 38 38 36 33 27 11 5 13 17 15 20 17 16 15 17 16 23 20 19 20 17 17 17 21 22 23 21 20 19 18 17 19 20 19 18
38 39 38 38 35 35 29 27 28 29 31 32 33 34 30 27 20 8 12 15 15 5 13 10 14 11 25 22 22 29 16 16 24 19 16 17 21 22 21 19 19 18 21 20 20 20 16
38 39 38 33 33 29 26 25 26 27 28 29 29 30 26 22 15 5 17 15 12 4 2 6 15 11 12 32 33 28 32 28 27 27 20 29 17 16 18 22 21 20 20 20 20 18 18
38 35 31 29 28 25 25 24 24 25 24 26 27 26 22 20 10 4 14 18 8 13 2 9 13 15 10 18 23 27 26 30 31 25 22 15 16 16 15 15 19 20 21 19 19 19 18
34 30 29 28 26 25 24 23 23 22 22 23 23 23 19 17 8 4 9 19 14 14 8 8 2 9 10 6 14 16 19 13 18 14 10 9 8 7 8 13 17 17 17 16 17 17 15
29 30 29 29 27 25 24 22 22 20 20 20 20 18 16 14 8 6 8 15 15 17 15 15 17 14 9 7 6 8 9 8 6 4 3 6 6 7 8 10 13 15 16 15 17 16 14
33 32 31 28 26 25 24 22 20 18 18 18 17 16 14 12 8 8 9 12 13 14 12 11 8 5 4 2 3 3 2 2 3 3 2 2 6 10 10 7 8 14 15 15 15 16 15
35 33 31 28 27 26 24 21 19 18 17 17 15 14 11 9 9 6 11 12 13 13 9 7 5 5 4 3 2 1 3 5 5 6 8 9 9 10 13 14 13 12 12 14 15 17 16
33 31 30 28 26 24 23 21 19 18 17 16 13 13 10 8 9 8 9 14 16 17 16 12 11 9 7 7 6 4 5 5 8 10 10 12 12 11 12 17 19 17 16 13 14 14 16
34 31 30 28 26 24 23 22 21 19 16 15 13 11 10 8 8 8 8 11 15 18 18 17 14 14 12 10 8 7 6 7 9 12 11 13 14 12 11 12 15 18 20 20 20 19 19

GFSGBSN_500_spd_105.txt.gz
Wind_Speed
49 48 46 44 42 41 39 40 40 38 38 40 39 39 41 41 42 42 41 43 44 48 49 55 56 57 54 53 50 57 55 53 50 56 63 64 64 65 66 63 60 58 53 52 51 52 54
48 50 48 49 46 42 41 41 40 40 41 40 40 40 39 40 41 41 41 42 46 50 53 57 60 61 59 57 57 59 57 59 57 54 55 62 64 65 66 67 66 62 63 58 56 56 54
51 50 51 48 46 46 42 41 42 41 42 41 39 38 38 40 42 42 43 46 50 54 59 62 64 66 65 60 64 62 61 59 60 60 58 56 60 64 66 67 67 66 66 65 60 58 55
54 51 50 48 47 45 42 41 43 42 40 39 38 39 39 40 41 43 46 50 55 59 60 63 66 69 67 67 69 69 68 65 63 62 63 61 58 59 62 66 67 67 67 66 62 60 58
55 53 50 48 47 44 40 42 43 39 38 37 37 37 39 41 43 45 50 55 57 59 61 66 69 69 72 71 71 71 70 67 65 65 64 64 60 55 59 62 65 66 66 66 63 60 61
57 54 48 46 47 43 41 40 39 36 35 37 37 38 40 44 46 51 54 57 60 62 62 67 69 69 66 63 66 63 61 60 57 56 60 63 64 58 57 62 66 66 66 66 62 61 61
59 51 48 46 44 41 38 37 36 35 36 36 37 39 43 46 50 55 57 59 61 65 64 66 64 64 50 53 49 42 43 44 45 48 53 58 61 62 50 56 57 61 54 55 64 62 60
57 52 49 44 42 36 36 35 35 34 35 35 38 42 44 48 52 56 59 61 64 68 66 60 53 50 46 46 46 39 44 43 41 39 41 54 61 50 50 52 59 62 62 64 63 58 62
58 55 45 42 37 33 34 33 33 34 35 38 40 42 45 50 53 56 60 64 68 73 72 57 54 49 47 48 43 38 45 41 40 39 41 47 47 51 49 52 60 65 64 60 56 55 60
56 45 42 39 32 33 32 32 32 34 37 39 40 43 47 51 53 57 62 65 69 71 68 65 60 54 50 43 37 33 40 39 39 38 38 41 43 46 46 48 53 62 61 55 54 55 55
49 44 39 34 30 32 31 31 32 35 38 39 41 44 48 49 53 58 64 66 67 65 65 51 48 48 39 36 31 28 29 36 38 34 34 39 40 43 49 45 48 53 48 44 47 48 50
45 39 36 31 31 32 30 31 34 35 37 39 41 44 47 50 55 61 65 66 66 66 56 22 24 22 27 26 23 21 24 30 32 31 26 30 38 41 35 36 44 42 41 41 36 33 44
41 39 33 29 32 31 31 32 33 35 36 39 41 44 46 51 57 61 63 66 67 60 29 21 27 27 23 13 9 15 19 27 38 39 30 33 32 34 33 34 38 42 38 30 30 34 41
42 37 31 33 32 31 33 32 33 35 36 38 40 43 46 52 56 59 63 65 67 31 22 22 17 8 2 8 8 14 16 26 36 34 29 31 29 24 33 32 33 38 37 31 29 22 24
40 35 33 34 32 33 33 31 33 34 36 37 38 42 45 52 54 56 60 64 41 23 14 11 10 4 7 10 11 19 11 22 30 34 24 29 26 23 20 24 32 32 36 33 18 25 25
38 36 35 34 33 33 33 31 32 33 34 34 36 39 46 48 50 53 57 42 19 13 17 17 13 8 10 9 14 12 13 21 30 30 21 24 30 22 20 26 29 20 32 33 29 24 21
38 37 36 34 33 33 33 31 32 31 32 31 33 37 43 44 45 48 46 17 15 15 17 26 20 11 5 10 15 10 12 18 29 31 26 9 23 16 21 25 23 29 26 26 25 25 19
38 38 37 35 34 32 32 31 32 29 28 28 30 35 39 39 39 41 26 15 16 22 23 23 20 10 16 6 8 18 18 13 26 29 39 24 19 19 16 22 22 21 21 24 24 24 23
40 39 36 35 34 31 30 31 29 27 24 25 28 32 34 34 34 34 8 13 10 15 15 17 17 17 11 11 11 16 17 13 18 23 22 24 19 15 16 22 23 21 24 25 21 18 19
40 38 36 35 33 31 32 29 27 24 21 22 25 29 29 29 28 26 3 13 8 12 12 16 11 12 5 18 5 16 12 17 14 16 24 20 17 17 18 14 19 20 19 21 21 19 19
39 38 35 34 34 33 31 27 22 19 19 20 23 25 24 25 23 19 6 17 2 4 8 13 8 10 17 14 21 18 15 15 13 17 19 22 19 22 17 20 19 19 19 19 19 17 14
37 35 34 36 32 31 29 25 20 16 17 19 21 22 21 20 20 15 10 20 8 3 7 11 14 12 17 20 21 19 20 15 17 10 13 18 20 24 16 19 19 17 17 16 15 15 17
37 34 32 33 33 32 21 19 16 16 17 17 18 20 18 17 17 13 9 27 15 8 5 3 13 17 9 17 18 22 18 16 18 16 25 18 12 18 17 16 16 17 19 15 15 19 16
34 33 32 31 27 22 18 17 17 18 16 16 17 17 15 16 15 12 8 26 28 20 11 9 5 12 14 10 23 20 24 23 25 22 23 17 32 22 22 19 18 18 17 15 19 13 15
33 30 30 29 26 20 18 18 19 18 17 15 16 15 13 14 13 12 9 14 27 28 25 20 17 18 12 10 10 15 17 21 15 14 13 10 10 10 7 7 8 13 14 15 16 13 14
32 32 31 27 21 21 19 20 20 19 17 16 15 14 12 13 12 12 10 12 17 23 18 24 25 17 13 6 8 9 10 13 13 11 8 7 4 5 5 6 11 14 12 15 13 15 16
29 28 25 22 23 21 21 23 22 20 18 16 15 13 12 12 12 10 10 11 14 18 16 17 20 16 10 3 1 3 5 6 7 6 6 4 4 5 10 12 11 9 11 13 15 18 17
25 25 25 24 26 26 26 24 22 19 19 18 14 13 12 12 11 10 9 10 13 17 19 15 17 16 10 7 6 3 2 1 1 2 3 1 1 3 5 14 15 16 14 12 14 16 18
31 30 29 30 28 26 25 24 22 20 20 19 15 13 13 12 12 10 9 10 9 15 18 19 17 15 14 12 11 9 7 5 3 5 5 5 4 5 7 11 16 19 20 21 19 18 17

GFSGBSN_500_spd_108.txt.gz
Wind_Speed
45 43 44 43 45 48 47 46 43 46 44 41 37 39 40 40 39 40 41 41 43 44 44 47 48 51 52 54 52 56 59 60 58 58 56 56 55 59 63 62 66 66 58 59 56 51 50
48 48 46 47 48 45 45 45 43 41 43 40 36 38 40 41 41 41 40 41 43 44 47 50 52 55 59 60 62 63 63 62 57 59 59 58 58 59 59 62 65 64 64 62 62 58 56
55 53 53 51 49 48 48 49 46 44 42 39 36 39 41 42 42 41 39 40 43 46 47 50 53 58 62 59 65 66 66 66 62 61 60 61 59 63 61 60 58 62 69 66 67 64 62
57 55 54 51 51 51 50 49 46 46 45 42 42 43 41 41 40 40 39 41 44 47 50 54 57 60 65 66 68 67 70 69 69 68 66 62 63 62 64 63 61 62 65 71 65 68 65
56 53 58 61 58 55 53 51 48 48 46 43 42 43 41 40 40 40 41 43 46 49 51 56 61 66 68 68 67 66 68 72 74 76 74 72 69 68 66 64 64 60 63 65 67 66 64
65 60 59 62 57 58 55 52 51 49 45 44 43 42 39 40 41 40 42 45 47 51 56 60 64 66 65 69 72 71 71 69 68 68 68 67 62 66 69 67 68 60 59 59 63 65 63
66 65 64 60 59 60 57 53 52 48 42 42 40 39 38 40 39 42 44 47 51 57 62 66 66 71 67 72 73 66 60 59 54 54 52 47 52 61 62 62 59 56 55 52 56 59 51
63 70 69 61 61 62 58 55 52 43 39 37 36 37 38 37 40 44 47 52 56 61 63 65 67 70 76 71 69 53 52 51 47 46 41 42 51 50 48 52 55 56 53 51 46 35 32
61 69 63 61 63 63 59 51 44 39 34 34 35 36 36 38 41 45 48 52 56 62 70 66 77 84 79 66 52 43 48 46 45 44 41 43 37 34 45 48 52 54 51 51 49 40 36
64 67 62 62 68 64 52 43 41 33 32 33 34 32 35 39 41 45 50 54 59 66 70 65 71 68 58 26 37 29 32 36 40 38 37 38 30 28 34 45 45 46 42 48 50 40 39
65 61 60 62 70 57 42 41 33 31 31 33 30 33 36 38 41 45 48 54 61 67 66 49 46 49 27 21 19 22 18 29 23 28 35 30 28 25 23 33 38 40 34 39 49 55 52
65 57 57 60 65 43 39 34 29 28 31 30 31 34 36 39 42 44 50 56 63 67 43 61 51 49 46 37 34 24 30 22 22 21 31 27 22 26 33 16 34 35 38 40 45 48 56
52 51 60 60 44 38 34 27 25 28 29 29 31 34 35 37 40 44 50 57 64 60 57 44 35 22 6 16 14 21 14 23 21 21 28 29 32 29 29 28 32 39 40 39 37 40 41
54 54 57 46 38 34 27 24 27 29 28 28 32 33 33 36 38 43 50 56 52 42 28 28 23 22 22 19 11 11 13 8 18 18 25 24 20 20 27 32 33 34 33 32 34 37 36
51 53 49 40 38 29 24 26 28 28 28 28 30 30 30 32 37 41 48 47 34 20 20 19 15 16 19 17 10 11 8 12 12 27 32 17 23 28 15 25 26 23 24 24 28 14 23
53 48 42 40 35 28 27 28 28 27 27 28 28 25 27 30 34 38 42 35 23 16 16 19 18 22 21 10 8 3 1 5 18 33 20 14 18 23 19 15 22 21 21 34 21 20 22
50 44 41 39 31 28 27 28 28 26 25 28 25 23 23 27 32 34 35 22 9 9 12 15 15 17 18 10 7 4 10 7 16 31 16 16 15 16 17 18 17 20 29 30 28 18 16
49 45 43 35 29 28 29 28 27 25 24 25 22 20 21 26 28 28 28 16 13 10 13 14 20 15 14 12 5 12 13 13 12 17 8 5 9 16 10 14 24 18 24 24 29 25 23
46 46 38 30 29 30 29 28 26 24 23 23 18 16 19 22 24 24 22 13 9 9 13 13 19 23 17 15 3 12 10 11 22 23 17 10 0 18 16 16 23 19 26 33 19 24 31
45 42 34 31 32 31 29 27 26 25 22 19 15 15 16 19 20 21 20 10 9 12 14 12 14 16 15 16 10 20 8 9 11 16 21 21 9 16 16 15 18 19 24 23 27 18 26
43 37 34 34 33 31 30 27 25 24 19 15 14 13 14 16 17 17 16 7 10 11 13 14 16 16 8 8 6 5 2 5 7 14 15 23 12 12 9 12 17 19 19 19 17 18 19
34 35 36 34 34 33 31 27 25 24 17 15 15 11 13 14 15 14 12 8 16 12 11 13 18 14 6 11 8 4 5 2 6 11 16 12 14 13 16 22 21 17 21 21 20 20 20
32 33 33 33 32 30 28 26 26 19 16 16 14 12 13 13 14 12 11 10 18 19 18 14 10 6 10 4 6 6 7 4 9 6 13 17 13 21 9 15 20 17 15 17 15 17 22
33 32 33 35 33 29 27 26 21 19 16 16 14 14 13 13 12 11 10 11 13 25 21 17 10 4 12 6 9 12 11 9 9 13 9 12 7 12 12 8 10 13 15 16 15 16 15
35 35 35 32 31 29 26 23 22 19 19 17 16 15 13 13 12 11 11 11 13 16 23 22 15 10 7 9 7 7 17 14 14 16 17 21 23 11 12 16 16 13 14 13 14 13 12
33 32 33 31 29 26 24 23 22 21 19 18 17 16 15 14 11 11 12 12 12 13 16 23 23 17 6 10 5 6 9 18 15 5 11 13 13 14 12 8 7 7 7 11 11 13 14
36 33 33 29 29 27 27 26 23 21 22 18 18 17 15 14 11 11 13 13 12 13 15 15 20 25 20 13 7 5 3 7 10 9 8 8 6 4 5 5 7 7 7 9 12 15 14
35 34 31 29 27 29 29 25 23 23 22 20 19 18 16 14 11 12 13 13 13 12 13 12 14 19 26 20 13 7 3 3 3 2 4 6 7 4 5 7 10 10 10 10 11 11 13
36 36 34 33 32 30 26 25 25 25 22 21 20 18 17 14 13 13 13 13 12 11 12 14 15 17 19 18 14 13 8 6 5 2 3 5 4 4 4 6 8 10 13 15 16 14 14

GFSGBSN_500_spd_111.txt.gz
Wind_Speed
40 40 41 44 41 40 41 42 43 40 42 43 43 44 46 51 50 45 38 39 38 42 44 45 44 43 44 44 41 47 48 49 52 58 61 62 63 59 56 56 59 63 55 64 65 63 58
44 43 41 40 44 44 46 46 46 45 43 43 44 40 42 38 39 39 38 37 41 47 47 47 45 46 45 45 47 50 52 56 62 63 68 64 63 61 62 60 62 61 58 59 62 67 63
46 47 47 45 44 49 47 50 48 46 45 46 44 41 42 40 39 38 38 42 46 46 47 45 44 44 43 48 51 54 60 64 67 64 64 63 64 62 62 62 61 61 64 63 60 62 68
51 51 52 47 47 47 46 48 53 53 52 49 47 45 44 44 44 42 42 43 43 44 44 44 45 47 46 53 55 60 64 66 67 69 70 68 65 64 63 61 61 63 66 67 52 56 64
57 55 54 54 48 49 53 53 53 59 58 53 52 50 47 46 45 45 42 42 42 41 43 45 47 51 52 56 60 66 72 72 72 73 74 73 70 70 70 69 68 66 67 64 58 61 59
60 57 55 59 50 50 55 60 58 62 63 60 57 52 49 46 45 43 42 41 41 41 42 48 50 54 56 61 70 75 76 75 75 76 78 76 70 72 74 74 75 67 65 61 59 58 56
62 64 59 61 52 55 59 55 56 62 63 63 61 54 47 42 41 43 42 40 39 40 42 47 53 59 63 67 73 74 80 83 77 70 64 54 57 66 54 50 51 57 64 63 58 52 48
67 63 62 63 56 55 62 59 52 52 63 67 63 54 44 38 38 39 40 39 39 41 43 51 58 64 69 73 73 72 71 64 58 57 53 52 54 43 38 40 46 50 55 57 57 54 29
64 63 61 59 57 60 53 50 51 56 66 70 53 42 38 34 33 35 37 37 40 43 49 57 62 67 71 74 73 66 45 39 39 43 42 50 40 37 36 36 40 46 49 48 49 46 41
64 64 58 62 58 52 50 54 55 58 64 58 44 41 34 28 29 34 35 37 41 45 51 61 65 65 67 62 58 47 39 23 25 26 28 40 33 37 31 28 33 40 39 41 36 36 43
61 65 67 65 56 48 51 56 58 56 60 45 39 31 25 25 30 31 33 36 41 46 56 59 60 61 57 45 45 16 24 31 22 23 25 24 30 29 27 20 7 27 27 29 32 40 42
61 66 69 67 55 51 53 56 53 55 46 37 30 22 22 25 27 30 32 37 42 47 53 55 48 46 30 28 30 29 21 34 26 26 25 19 22 24 22 21 17 16 25 29 34 37 40
66 73 67 50 42 44 45 52 47 48 39 27 20 19 21 25 26 29 31 37 42 47 51 46 41 32 25 27 23 25 17 14 26 15 10 12 19 23 23 20 21 30 30 32 33 34 40
63 73 68 43 36 41 49 46 44 41 28 19 16 18 20 22 25 26 30 35 41 46 43 31 27 28 33 24 17 21 16 13 13 13 9 14 20 16 22 24 23 28 32 29 31 34 32
53 43 42 37 40 45 50 44 42 30 20 16 15 16 18 20 22 22 28 33 37 40 37 28 19 26 24 31 31 25 14 17 4 8 12 17 23 22 16 19 24 28 30 27 26 27 24
40 40 38 42 47 48 44 41 34 22 18 15 15 15 17 17 18 20 25 29 31 31 24 23 23 23 25 27 26 20 12 9 7 6 16 16 10 12 16 21 24 21 17 29 30 20 13
40 40 39 40 42 45 43 37 28 21 17 17 14 15 14 15 14 17 21 25 25 24 21 21 22 28 31 32 30 18 11 8 5 9 15 3 8 8 22 10 11 17 22 25 27 26 25
37 37 40 38 44 46 41 34 23 19 18 15 14 12 12 12 13 13 18 21 21 21 19 19 23 28 29 25 25 5 5 18 5 12 2 12 14 15 9 10 12 16 18 31 26 26 11
33 37 37 44 48 44 37 28 22 20 18 15 12 12 12 11 11 11 14 17 15 17 18 16 21 23 25 20 16 11 3 6 6 10 12 3 13 10 11 12 11 14 20 27 26 26 12
29 34 43 50 47 41 33 26 23 21 18 14 12 10 11 9 9 10 12 14 13 13 17 14 18 20 25 24 15 3 7 4 10 12 11 2 5 9 11 9 11 13 14 28 18 17 19
29 41 51 51 44 37 31 27 23 21 18 15 11 10 11 9 9 9 10 11 10 11 14 15 16 18 21 18 13 3 11 5 8 13 11 11 7 3 6 8 15 11 16 14 24 20 18
36 43 52 47 42 36 32 27 26 23 19 15 12 12 11 9 8 9 9 8 9 12 13 12 11 14 19 14 13 13 2 6 2 7 4 5 7 9 12 14 19 13 28 11 18 23 16
39 46 51 48 39 35 32 30 26 25 18 16 14 14 13 10 9 9 9 8 9 11 13 17 11 9 14 10 7 14 13 8 5 3 9 9 6 6 23 24 18 15 19 18 16 20 17
46 52 49 46 39 34 33 31 26 23 18 18 17 16 15 12 10 10 10 10 10 11 12 17 17 9 9 10 6 12 10 8 5 6 5 10 9 3 7 8 16 13 6 7 14 12 14
37 40 39 38 37 37 33 29 26 21 21 20 19 19 17 13 11 12 12 11 10 11 13 14 16 13 11 9 4 6 11 8 10 9 8 10 12 2 7 15 19 8 6 7 9 12 14
28 34 37 35 34 32 33 29 25 23 23 21 22 19 17 14 11 14 11 11 11 11 13 13 12 16 11 5 4 2 5 9 6 5 5 7 10 10 9 18 11 5 2 6 8 11 14
31 33 34 34 36 36 32 29 27 26 24 23 22 20 18 15 14 15 12 11 11 11 11 13 9 12 18 10 1 2 5 6 3 5 11 11 9 7 8 7 10 5 3 6 6 8 9
32 32 36 37 35 35 31 30 29 27 26 24 21 20 18 18 15 15 12 12 11 11 12 13 11 10 16 19 13 7 3 7 3 5 5 7 7 4 4 3 5 5 6 7 6 6 8
36 35 36 39 37 35 34 32 30 28 26 25 22 19 20 17 16 14 12 12 11 12 13 12 12 10 12 17 18 17 12 4 4 6 4 6 3 5 5 4 3 5 9 11 12 12 11

GFSGBSN_500_spd_114.txt.gz
Wind_Speed
42 37 35 36 35 36 33 35 33 33 38 39 39 39 39 32 35 37 41 49 51 51 49 49 42 39 41 43 46 47 48 47 45 46 46 49 50 54 57 60 62 65 58 59 56 60 58
48 45 40 40 40 39 38 35 36 35 36 36 39 40 39 40 40 39 39 39 38 37 43 45 44 49 47 47 45 47 51 50 50 50 50 54 59 63 62 64 68 65 67 66 66 63 64
53 51 47 45 43 44 43 39 37 38 37 34 36 38 43 46 45 42 40 39 40 40 40 42 44 46 50 50 49 49 48 50 52 54 57 61 67 70 71 71 74 74 75 70 67 64 67
56 55 53 51 46 46 47 45 41 40 37 41 39 44 42 47 51 48 46 45 44 45 46 48 50 51 47 49 48 48 50 53 56 61 65 69 76 79 80 79 75 74 74 72 60 58 60
62 59 56 52 52 54 50 47 47 44 41 47 45 44 48 54 52 55 52 48 47 47 46 47 48 47 48 47 49 52 55 58 63 68 75 78 83 83 81 83 80 76 75 69 60 57 58
66 62 57 53 53 54 52 51 52 49 44 47 49 53 49 46 48 53 57 53 47 44 43 44 45 43 43 45 50 55 61 65 71 75 78 84 86 88 88 81 82 70 66 64 61 56 59
68 66 59 56 56 58 52 57 56 51 47 50 49 43 46 47 50 54 56 54 45 39 40 40 41 40 42 49 55 63 67 72 76 79 83 87 83 81 75 58 54 56 58 58 58 55 61
70 68 60 60 62 57 50 56 58 53 48 52 42 42 45 51 52 58 56 49 34 36 36 36 36 39 45 51 60 67 69 73 75 73 74 69 67 52 48 44 42 45 47 48 49 51 52
74 71 64 70 62 56 57 54 58 56 51 48 52 48 48 51 56 54 47 35 28 30 33 35 36 44 51 56 62 67 68 62 57 53 41 43 24 32 33 37 38 37 37 35 37 38 38
74 73 67 61 63 55 56 51 60 56 59 55 45 44 47 50 54 43 29 23 25 27 31 35 40 50 55 57 55 53 45 44 38 31 19 21 19 24 27 30 33 32 27 31 29 32 33
71 75 69 62 59 56 60 60 60 64 60 55 43 45 45 46 44 28 20 19 23 25 31 33 42 49 53 56 55 30 35 33 30 24 27 10 26 24 24 22 29 21 22 23 18 26 31
66 62 66 65 51 60 56 61 66 56 46 40 41 41 41 43 27 17 15 16 20 24 31 35 43 45 43 29 25 25 33 36 30 26 25 25 26 25 23 21 23 17 17 19 19 25 30
63 53 58 60 64 52 55 56 57 46 35 35 39 36 36 31 14 13 12 14 19 22 29 36 40 41 31 11 22 27 34 33 27 27 14 16 23 19 16 17 21 19 19 23 23 24 27
59 44 49 54 37 49 47 44 41 38 35 36 34 34 25 15 12 11 12 13 17 23 29 36 39 29 23 20 24 28 32 29 28 19 14 12 8 3 10 20 20 22 24 27 22 22 20
47 50 45 44 52 52 49 42 32 35 35 33 30 24 17 13 11 11 9 12 17 23 28 34 30 16 14 24 24 30 28 24 19 17 11 5 5 8 9 19 19 19 24 21 17 16 23
48 54 65 58 51 40 44 42 32 36 32 33 25 19 15 14 10 7 10 10 16 22 27 30 24 12 11 20 23 24 17 20 18 7 1 1 6 9 11 18 19 14 20 22 21 22 21
43 46 46 37 34 45 43 40 35 35 35 28 22 16 15 12 8 8 9 10 16 20 24 25 19 13 16 19 17 17 12 20 11 4 5 19 20 13 12 11 11 19 24 27 24 22 20
31 29 30 34 37 39 41 33 36 37 32 26 20 18 16 13 10 8 7 9 14 17 18 20 15 13 14 15 18 17 17 16 13 8 13 22 19 5 2 9 0 9 16 19 25 24 23
34 35 37 36 35 33 33 39 39 36 32 25 22 20 17 14 11 8 7 6 10 14 14 15 15 11 13 8 18 12 7 13 12 11 14 23 16 7 4 8 3 8 13 15 21 17 10
33 32 32 35 32 34 41 42 40 38 30 25 21 19 17 14 11 9 8 7 8 11 12 13 16 14 14 10 11 6 11 10 14 13 12 15 8 4 2 3 3 10 8 13 21 19 10
32 27 34 32 34 43 47 44 40 36 28 24 22 19 17 14 12 10 9 7 8 10 10 12 13 14 9 9 4 9 7 10 12 11 13 14 7 2 4 4 6 8 5 8 19 17 16
26 30 29 32 44 49 50 43 41 32 27 24 22 20 18 15 13 11 10 10 9 10 10 11 14 14 11 8 7 8 10 11 9 7 5 3 24 12 11 13 11 12 6 18 18 18 14
25 26 28 36 49 53 48 44 39 31 27 23 22 22 20 18 16 11 12 10 11 10 9 10 13 13 12 9 10 12 10 6 3 4 9 8 9 15 16 20 26 24 20 17 15 15 11
23 26 30 42 53 53 45 43 35 30 27 27 24 22 20 20 15 11 12 11 10 10 10 11 11 13 10 9 11 11 7 7 5 7 3 12 7 4 5 12 16 14 9 4 3 6 10
21 26 32 46 56 53 44 43 32 32 31 27 25 25 22 20 15 13 11 12 10 12 9 11 12 10 11 9 10 10 11 9 8 8 6 4 8 6 10 14 14 10 5 3 2 5 7
24 31 38 48 53 46 48 40 36 34 30 27 26 25 23 20 16 14 12 12 11 12 11 13 12 9 13 9 5 3 6 4 6 6 4 3 5 5 14 19 10 3 1 3 4 5 7
25 27 34 49 51 51 43 41 38 33 30 29 27 24 22 20 19 13 12 12 13 13 12 12 11 9 13 14 9 5 9 6 3 3 7 18 15 14 12 20 10 6 5 2 3 4 6
31 32 36 43 49 48 43 40 36 32 31 29 25 24 23 21 17 14 13 14 13 14 11 11 10 9 7 19 14 8 9 3 5 7 9 8 10 11 10 9 10 7 5 5 2 2 3
33 32 31 36 43 46 42 41 35 34 30 27 24 25 23 19 17 15 15 14 13 13 10 9 10 10 7 15 22 17 13 8 4 4 3 2 4 5 6 3 5 5 5 5 7 7 9

GFSGBSN_500_spd_117.txt.gz
Wind_Speed
46 42 42 37 38 36 32 31 30 30 31 30 30 30 29 31 30 29 30 33 34 37 34 36 47 52 53 52 52 50 48 46 47 49 49 51 50 49 51 52 52 52 51 51 53 52 54
52 51 48 48 43 40 38 36 35 33 32 33 33 34 29 26 26 28 32 35 36 35 37 37 41 42 40 42 47 51 50 52 53 54 53 52 51 53 55 54 56 58 59 59 58 60 62
61 58 58 55 51 49 44 41 40 38 35 35 33 34 33 31 30 31 33 33 36 37 39 39 43 43 45 46 49 50 51 52 54 56 55 54 54 56 59 63 65 67 69 69 62 68 71
68 65 63 61 57 53 51 44 44 42 40 40 36 35 37 41 36 35 36 38 35 37 40 42 43 46 48 50 51 53 52 55 55 55 56 56 58 62 66 71 74 77 80 80 72 80 81
76 72 68 66 63 57 54 51 47 46 46 46 43 41 40 40 40 38 35 37 37 36 41 42 45 47 49 49 49 51 53 52 51 53 56 59 62 67 73 80 84 86 91 94 85 85 85
81 79 73 70 67 61 57 53 50 44 51 48 46 44 46 40 40 40 33 32 39 42 41 44 48 48 46 45 44 47 50 49 51 54 59 64 69 75 82 90 92 95 96 96 97 87 80
82 81 78 73 69 66 61 57 53 46 51 51 47 46 47 44 42 41 38 45 45 43 48 46 48 44 41 40 41 46 47 49 53 59 67 72 74 81 86 90 93 95 92 88 88 75 74
86 81 79 75 71 68 67 60 56 51 48 52 48 50 47 46 43 43 47 49 42 42 43 43 38 33 32 34 37 42 47 52 59 65 73 72 74 76 77 78 58 54 56 60 56 45 55
85 85 80 78 75 72 65 62 53 53 55 52 53 53 50 47 42 43 44 44 45 42 40 34 26 28 31 34 38 46 51 55 63 66 67 66 59 57 48 38 34 35 38 35 36 34 47
78 81 80 77 75 70 65 56 58 58 55 48 57 48 49 50 49 47 43 43 38 34 32 26 26 27 32 36 42 49 53 57 58 54 51 50 43 34 25 27 33 31 25 26 23 31 36
66 72 74 72 73 69 62 62 60 62 47 55 51 47 46 53 51 47 41 38 33 27 28 23 23 27 33 40 44 50 55 50 50 46 45 37 35 30 28 26 29 20 20 17 25 26 28
55 60 69 69 68 63 59 60 61 53 54 52 56 54 57 56 52 41 35 32 27 22 22 21 24 26 33 42 46 50 46 43 45 42 38 29 27 28 32 29 28 20 17 16 21 20 25
47 49 60 58 53 63 61 57 60 54 49 48 51 50 53 50 40 34 28 24 22 19 16 19 23 28 34 38 41 34 30 34 33 25 20 20 22 26 22 19 20 14 14 13 14 15 4
39 41 43 49 45 53 55 56 58 59 47 44 43 42 40 39 35 28 28 20 18 15 16 18 22 27 30 33 32 26 30 19 18 22 16 16 16 13 9 5 9 15 15 14 13 9 1
43 44 40 35 40 40 51 49 50 60 49 43 45 40 41 36 29 27 23 17 16 13 14 17 20 23 29 28 24 23 13 14 13 14 16 15 16 12 8 7 8 11 12 7 12 7 8
52 25 47 43 49 35 34 39 40 44 40 43 48 43 34 31 30 25 20 18 15 12 13 14 18 22 22 20 18 16 13 17 18 11 14 21 20 16 22 14 10 12 13 15 15 11 5
62 51 58 56 45 43 47 43 38 34 41 47 48 31 32 35 29 23 22 18 13 11 12 14 17 19 16 15 17 14 19 15 15 10 16 26 28 21 9 8 14 11 13 16 14 15 5
40 54 60 51 53 52 44 38 35 37 43 43 37 32 35 31 26 26 22 16 13 11 10 12 16 15 11 12 18 17 12 12 11 13 18 23 26 10 6 5 6 5 11 16 17 14 13
28 27 29 38 40 31 30 33 30 34 41 37 35 38 34 29 28 25 19 17 13 9 8 12 15 14 8 9 13 11 9 13 11 10 17 19 22 7 8 6 6 10 6 15 17 16 15
32 32 32 30 33 34 33 31 27 37 39 38 38 36 32 28 27 23 20 16 12 9 10 12 14 14 9 8 10 6 10 12 12 12 14 20 17 13 13 6 4 3 9 9 8 8 17
33 33 38 34 36 34 33 29 39 39 40 39 41 35 30 27 27 24 19 16 12 11 11 12 13 14 11 9 4 7 9 11 11 10 11 14 8 10 10 12 3 6 7 11 5 4 17
36 34 30 31 29 29 30 37 40 42 41 41 38 31 28 29 28 23 20 19 14 12 11 12 13 15 11 8 7 5 5 8 12 4 5 7 10 10 19 19 8 0 10 15 18 16 17
37 34 33 30 28 32 38 41 45 45 42 41 35 30 29 29 26 23 22 18 14 11 12 15 15 14 13 11 10 9 4 6 4 1 5 6 5 5 7 21 21 18 25 20 21 21 10
34 35 32 29 32 37 40 50 48 43 41 42 34 32 29 29 25 24 21 18 15 14 13 16 15 14 15 13 14 12 7 4 6 5 5 13 11 11 5 7 8 13 12 10 7 9 5
33 27 28 27 37 36 48 48 44 42 44 39 35 29 28 26 25 23 21 18 16 13 15 17 13 12 13 14 15 14 10 5 6 5 6 7 11 10 6 10 7 11 7 5 5 3 1
33 32 31 33 34 37 51 48 44 44 46 35 32 29 26 26 26 24 19 16 16 14 15 14 11 12 10 14 15 12 9 9 8 5 5 8 13 10 9 11 8 4 3 2 2 2 1
33 30 30 32 34 38 47 45 45 46 42 35 34 26 25 25 27 21 18 17 16 15 15 12 12 12 11 14 17 11 9 10 9 5 7 13 13 13 13 14 9 3 2 1 1 1 1
34 30 35 37 36 42 45 48 46 46 39 32 31 24 25 27 22 21 18 16 14 14 13 14 13 11 11 12 20 15 12 9 10 8 10 16 15 15 16 17 16 7 6 3 2 2 4
33 32 30 34 35 41 45 48 46 43 39 33 29 25 26 23 23 20 18 15 13 13 14 14 13 12 12 11 16 21 16 13 9 6 12 7 10 13 11 10 10 10 8 6 5 6 7

GFSGBSN_500_spd_120.txt.gz
Wind_Speed
46 43 43 43 40 39 39 36 33 32 31 30 27 28 26 30 29 28 25 25 26 25 26 26 28 30 33 33 34 41 45 47 50 49 51 52 49 50 51 52 54 55 55 54 57 57 53
55 53 48 50 48 45 43 43 40 37 36 36 34 31 29 28 28 26 28 27 26 25 25 29 30 29 32 37 38 39 39 40 43 46 47 49 54 57 60 57 57 57 59 60 58 58 59
61 60 61 57 56 53 51 50 47 45 41 40 41 37 33 31 31 29 31 36 33 30 31 31 27 29 31 32 39 44 43 43 46 48 50 52 55 56 55 55 58 58 60 59 60 63 64
69 68 67 67 64 62 58 57 54 50 48 45 45 45 40 35 35 34 33 35 38 34 29 27 30 32 35 36 36 37 44 48 49 51 52 53 53 54 55 57 57 60 63 66 64 68 72
73 73 74 73 72 69 65 62 60 56 53 49 48 46 45 42 41 39 36 34 35 33 28 29 35 39 34 37 41 42 42 46 50 51 51 53 55 56 57 58 60 65 69 72 70 77 82
83 80 78 79 79 78 73 69 65 60 58 55 53 50 49 46 43 43 42 39 36 39 39 40 40 40 42 43 41 43 43 45 47 47 49 50 53 55 59 63 66 74 78 80 80 80 93
87 86 85 82 82 82 82 74 70 63 57 57 56 54 50 49 48 44 42 44 40 37 38 40 41 42 43 42 42 42 41 40 42 45 47 50 53 59 64 71 75 82 87 89 90 89 94
92 91 90 88 86 84 83 81 74 66 59 58 57 54 51 50 51 47 45 43 44 41 41 39 42 43 44 38 32 36 36 37 40 45 51 55 62 67 69 74 77 76 77 69 71 64 73
82 87 90 91 88 87 86 81 76 69 62 61 53 58 49 51 52 48 46 45 44 43 45 41 42 40 35 30 28 32 35 38 43 49 53 57 61 62 66 67 62 59 46 45 45 40 47
56 60 70 79 81 79 81 81 74 68 65 57 59 50 52 55 49 46 48 44 43 40 43 43 40 34 30 29 29 33 36 41 46 50 52 55 58 58 55 51 41 43 40 39 34 27 24
62 61 60 61 69 75 71 70 69 67 62 56 58 58 53 56 47 48 49 43 40 42 43 40 33 27 26 26 29 35 39 43 48 52 50 50 47 43 34 33 38 36 38 35 29 17 26
60 60 58 53 57 63 65 62 61 61 59 60 60 54 49 49 49 44 45 45 44 41 41 37 27 23 24 26 30 35 40 44 47 44 39 33 24 27 31 33 35 34 28 26 18 18 20
54 53 50 48 49 51 53 55 56 54 57 59 56 52 50 50 49 54 50 44 40 40 34 32 26 24 24 26 29 34 40 42 41 32 17 19 23 27 28 28 28 22 13 11 12 13 8
48 42 44 44 45 44 45 47 47 45 46 53 54 47 53 39 39 45 47 44 43 40 28 25 22 22 23 25 28 33 36 34 32 23 15 19 22 27 24 24 24 19 11 9 11 10 6
44 42 43 42 39 45 42 40 37 45 46 40 50 58 46 37 33 35 38 41 34 31 28 24 22 22 22 24 27 30 29 25 24 18 16 19 25 26 27 25 21 16 9 9 11 11 10
41 30 46 39 32 40 41 35 46 40 37 44 47 46 52 37 38 39 44 40 33 31 25 23 21 20 20 22 25 26 24 22 22 19 18 22 20 25 23 20 13 10 12 11 8 10 6
21 32 39 50 26 28 50 35 39 38 45 39 42 52 50 41 41 44 43 36 33 28 24 22 19 19 18 21 23 25 21 19 18 18 19 23 24 22 18 14 10 8 6 9 11 15 19
47 54 40 48 47 43 46 36 41 43 41 38 39 41 41 47 37 41 39 35 31 26 24 20 18 17 17 20 24 20 19 17 14 14 12 18 23 18 17 14 3 5 9 8 11 10 15
20 37 50 56 57 55 59 43 44 41 35 32 39 37 37 41 39 41 37 32 28 27 22 20 18 15 16 18 18 16 15 16 14 12 10 15 21 12 14 17 5 9 6 5 8 12 15
25 24 27 19 35 37 41 34 39 31 29 30 37 35 41 40 42 39 35 29 29 24 22 20 17 15 14 13 15 13 11 12 13 12 8 13 21 15 14 12 8 4 8 4 4 6 10
30 28 30 28 26 27 33 29 30 29 28 28 32 33 37 42 42 37 31 30 27 24 22 18 17 16 14 11 13 13 11 10 11 9 4 5 7 11 13 9 3 6 6 6 3 11 2
29 33 28 30 32 31 34 33 31 29 28 29 36 35 41 41 40 35 31 29 27 23 19 19 17 16 14 11 14 15 14 13 16 7 6 4 2 5 14 3 6 3 7 6 2 17 17
29 31 31 29 28 28 27 30 28 30 32 34 36 39 43 39 36 31 29 28 25 21 20 19 16 15 15 13 11 15 15 12 12 8 11 14 5 1 3 12 10 12 16 12 13 12 8
31 33 35 33 29 25 29 30 33 33 36 37 39 40 43 37 31 28 28 26 24 22 20 17 16 15 15 15 11 11 15 10 13 12 11 13 10 12 13 12 5 21 14 12 10 7 3
31 37 38 34 29 31 30 34 36 40 39 39 38 43 43 32 27 29 28 26 24 22 19 16 14 15 16 15 14 13 13 12 10 12 11 11 9 12 12 11 7 11 6 6 5 4 1
36 37 36 34 26 34 37 38 41 40 38 38 41 45 35 30 29 30 25 25 20 20 17 16 14 15 16 14 13 14 13 12 11 10 11 13 11 12 11 9 11 7 4 4 4 4 4
38 37 35 28 32 40 38 40 40 39 39 40 43 41 34 31 30 27 25 23 19 18 17 15 14 15 14 14 13 14 13 13 11 9 11 11 10 11 13 12 11 9 3 1 2 3 4
37 38 38 34 37 38 37 37 39 41 39 40 42 40 33 31 28 26 24 21 19 17 16 14 14 14 14 13 13 13 15 15 13 10 10 15 16 14 16 18 16 10 7 7 5 5 4
36 36 36 39 37 35 34 36 36 40 40 40 42 40 34 30 27 25 23 21 18 17 15 14 14 13 13 14 13 13 16 17 17 12 12 12 12 16 13 15 19 16 13 10 9 8 6

GFSGBSN_500_spd_123.txt.gz
Wind_Speed
48 45 43 43 41 39 38 36 36 33 29 30 30 29 28 28 27 26 25 26 26 22 23 24 26 26 27 29 27 27 31 33 32 32 33 34 34 38 40 44 47 49 51 51 51 52 52
53 53 53 49 51 48 47 44 40 40 38 35 33 34 33 32 29 30 26 25 24 26 26 25 27 30 28 27 28 31 32 34 37 37 37 37 39 41 44 45 48 47 49 52 55 58 62
60 60 58 58 54 55 54 54 51 47 45 42 41 38 36 37 35 34 32 30 27 28 30 30 29 29 29 27 28 30 33 35 35 38 41 42 44 45 45 46 47 51 54 53 55 58 59
66 67 64 63 62 60 60 61 59 56 54 50 49 47 43 41 42 40 38 36 34 33 33 31 27 27 24 27 31 33 33 35 37 40 41 43 45 47 48 49 50 51 52 55 56 58 62
70 70 70 70 68 68 65 66 66 65 61 58 56 53 50 46 45 45 43 42 39 37 38 33 31 32 35 39 38 35 37 41 44 43 43 44 44 45 45 49 50 52 53 55 58 63 69
72 73 72 72 71 71 73 72 71 72 70 64 64 58 55 52 49 49 46 45 44 41 41 39 35 35 36 37 38 37 38 40 41 41 42 43 41 42 45 48 50 52 54 56 58 67 78
78 79 79 78 79 78 77 78 79 76 76 74 68 64 59 57 53 53 51 49 46 43 42 40 40 40 38 40 41 39 40 41 39 38 37 36 39 43 47 51 54 59 62 64 66 69 86
82 82 82 81 81 82 84 83 83 82 81 77 76 65 60 58 53 54 54 52 46 45 43 42 42 43 42 40 41 40 39 35 33 33 34 37 43 48 53 58 59 65 69 71 70 74 78
74 76 78 79 79 81 84 87 88 87 83 80 76 68 63 55 48 55 51 52 48 46 44 44 45 44 43 39 39 37 35 32 31 33 36 42 47 54 58 61 62 60 57 59 62 61 50
58 58 57 60 59 58 63 73 79 82 83 78 76 67 62 55 56 53 52 50 47 48 45 43 45 46 42 37 35 34 33 31 32 35 40 44 50 55 58 50 44 43 39 42 43 41 40
57 57 59 58 53 55 54 56 57 64 70 70 67 63 58 53 50 47 41 43 48 50 46 43 42 39 39 37 34 31 30 31 33 37 43 45 50 45 30 30 28 31 38 39 32 26 18
60 61 62 58 60 59 60 58 58 54 59 64 61 57 55 54 57 55 53 45 45 49 49 45 41 41 37 33 29 28 28 30 33 39 43 46 40 26 29 31 39 32 31 27 17 13 9
62 63 60 59 60 59 60 56 53 53 54 59 59 55 53 53 52 55 40 45 48 49 47 43 41 36 35 33 30 28 28 29 34 38 39 36 25 26 29 35 37 29 22 16 10 13 7
49 56 53 52 47 51 51 50 49 50 49 55 47 52 53 51 53 46 47 37 50 49 51 46 42 38 31 32 28 28 27 29 33 37 35 20 21 26 27 29 30 24 19 14 10 13 13
39 49 43 46 44 46 45 43 39 39 47 49 49 47 49 55 57 45 38 47 49 44 43 42 41 34 30 29 27 26 25 28 32 33 28 22 19 23 23 25 27 21 16 12 14 12 16
32 40 31 31 30 34 36 35 38 39 44 49 42 46 44 48 49 46 32 37 32 36 40 37 34 31 28 28 26 25 24 26 29 29 26 22 18 21 26 22 24 19 10 12 14 10 22
34 28 30 26 32 34 31 35 37 36 39 44 39 46 41 39 41 51 40 34 39 35 38 33 32 29 27 27 25 24 23 25 25 25 22 21 17 20 26 17 20 13 12 9 12 14 14
20 20 26 16 36 34 23 33 34 39 38 42 39 42 39 41 43 43 46 39 32 36 40 35 31 28 27 26 24 22 22 23 17 21 21 18 17 18 19 17 19 9 6 6 9 12 16
16 12 39 51 40 24 22 32 30 26 24 44 40 44 38 39 38 41 39 39 31 37 40 30 27 27 26 24 22 20 20 19 16 19 18 15 14 14 17 17 13 12 9 6 6 11 11
22 18 18 34 50 63 62 49 38 37 43 45 43 37 39 37 42 43 43 44 36 39 37 30 27 25 22 22 20 18 20 18 15 14 13 12 12 15 20 12 14 13 6 3 2 7 13
23 24 21 19 29 22 36 35 52 44 36 42 37 34 34 36 36 40 40 37 38 37 31 26 25 22 20 19 17 16 18 20 15 13 10 11 8 9 14 14 8 4 4 6 4 12 13
23 25 23 23 25 21 17 27 40 25 31 35 32 31 31 32 35 37 39 38 35 28 27 26 23 20 18 16 14 13 14 17 15 14 10 8 6 7 13 16 8 4 5 4 3 10 13
22 19 23 22 25 28 32 31 35 34 35 32 30 29 31 32 32 36 37 34 31 28 27 25 19 17 17 14 13 13 13 14 15 14 10 14 14 6 1 10 11 7 8 7 7 8 8
21 18 21 24 23 29 30 29 31 34 34 31 30 30 30 34 37 37 35 33 28 25 25 21 16 17 15 13 13 10 11 13 16 16 13 12 18 14 11 8 6 10 12 12 12 12 7
21 18 23 28 30 31 28 28 34 32 33 33 34 33 36 39 36 35 34 29 25 24 21 17 17 17 13 13 13 11 9 11 14 16 14 16 15 18 16 10 10 11 10 11 12 10 8
21 17 28 34 35 25 29 26 28 32 35 34 35 37 38 38 34 33 33 27 22 22 19 17 18 14 13 12 13 11 11 11 10 11 13 16 17 16 12 13 12 11 9 9 9 6 5
20 22 34 36 27 30 31 33 36 37 38 36 32 35 37 36 33 31 27 24 23 21 18 17 16 13 14 12 12 12 12 11 9 10 13 13 15 17 17 14 14 13 11 7 6 6 5
20 28 37 35 26 30 35 38 40 40 37 34 32 35 38 36 32 30 27 25 23 20 16 15 13 13 13 12 12 12 13 13 11 12 12 13 17 19 18 18 18 16 14 9 7 7 6
25 33 39 36 32 35 38 37 42 38 33 31 32 35 37 34 32 30 27 24 21 17 15 13 12 13 12 11 12 13 13 13 13 12 13 13 15 20 16 18 20 18 15 12 10 9 8

GFSGBSN_500_spd_126.txt.gz
Wind_Speed
45 44 43 43 40 39 39 36 33 31 31 30 30 29 29 29 28 25 24 23 21 23 23 21 20 20 20 21 24 26 28 28 27 27 29 32 32 34 35 34 34 35 38 39 41 43 46
51 50 48 48 48 45 43 46 42 40 37 36 36 35 34 37 31 30 27 27 25 23 21 21 23 26 26 25 27 27 23 24 26 28 31 33 34 36 36 36 38 41 44 43 45 47 49
58 57 57 55 55 53 52 50 50 46 46 46 41 40 40 40 40 36 35 31 30 28 26 25 25 24 27 29 30 24 22 26 29 31 32 32 35 37 38 40 42 44 46 47 48 49 51
65 65 63 63 61 61 61 57 55 54 51 51 52 48 47 45 45 42 41 39 37 35 33 31 30 29 29 27 28 27 31 36 34 34 35 39 42 42 43 44 46 46 47 48 52 52 52
73 71 70 68 67 66 62 66 63 60 58 57 57 57 54 52 50 49 47 47 44 42 41 39 38 36 35 33 32 32 34 35 35 36 37 40 41 41 43 45 46 47 43 47 51 54 55
76 74 74 72 70 69 67 65 68 67 65 63 63 63 62 59 57 55 52 52 50 48 46 45 42 40 38 36 35 34 36 37 40 41 39 40 40 41 41 41 40 42 43 46 52 58 58
78 75 74 74 72 71 70 67 69 70 69 69 67 67 68 67 65 61 56 56 54 52 51 50 47 45 42 40 39 38 39 40 41 40 40 39 38 37 37 38 40 43 46 49 56 64 64
77 76 74 73 74 72 72 70 71 72 73 73 73 73 72 72 69 68 61 58 55 54 54 52 50 48 46 42 42 42 42 42 40 40 39 38 36 35 37 40 43 48 52 55 58 65 67
72 71 72 72 73 73 73 73 74 76 76 75 77 77 77 73 72 69 61 56 56 48 54 53 52 50 48 46 44 43 42 41 39 39 38 35 34 36 39 44 49 54 57 58 58 62 60
69 68 70 71 71 72 72 73 72 71 74 74 72 74 75 74 69 65 60 54 51 51 45 51 52 52 49 46 44 42 39 38 38 37 36 34 35 39 42 46 52 55 46 49 53 52 50
60 59 61 62 61 62 63 62 56 50 54 57 57 60 63 62 61 59 55 52 47 57 54 51 53 52 49 47 41 37 37 36 34 33 33 35 36 39 43 48 46 39 39 41 41 43 33
59 58 60 60 60 61 60 56 52 51 48 47 43 45 49 55 58 56 50 52 55 57 60 54 47 50 47 46 42 38 35 33 32 31 32 34 37 39 44 40 32 29 32 36 36 26 14
61 61 62 62 63 63 61 57 56 55 52 51 51 50 46 45 55 55 43 53 53 55 51 43 38 39 43 44 41 37 35 33 32 32 31 33 34 35 33 29 27 27 29 31 27 12 12
58 57 58 61 63 65 63 62 59 58 54 52 48 50 48 50 51 54 61 61 57 60 48 44 44 43 38 38 36 36 38 33 31 30 31 32 31 30 27 22 27 24 28 27 17 17 18
53 51 48 54 52 51 51 52 55 54 50 48 53 51 50 48 48 53 59 57 49 53 48 42 32 40 44 43 41 37 35 31 29 28 30 29 24 26 22 24 27 22 21 20 15 16 19
49 46 42 45 39 38 38 41 45 43 42 44 47 49 46 47 50 53 56 57 43 43 51 44 37 36 35 36 37 36 33 28 26 28 28 27 19 20 22 24 28 21 24 17 14 20 21
46 44 35 37 26 29 37 38 40 42 42 43 43 43 47 42 49 50 49 57 53 39 35 44 43 34 33 36 34 31 29 25 25 26 25 24 17 19 18 22 23 18 15 13 16 19 21
43 41 36 26 20 24 31 32 34 36 36 37 38 44 44 51 47 49 47 50 53 43 37 34 32 32 34 34 32 29 24 23 24 24 22 18 13 18 20 21 20 20 13 11 14 14 18
35 25 22 21 21 19 27 26 30 34 33 32 35 40 44 44 49 41 42 44 41 50 39 26 31 33 32 31 28 23 23 23 22 20 19 16 16 16 19 19 20 19 12 10 12 11 15
27 25 20 11 23 22 25 29 36 33 34 35 36 45 46 44 49 41 34 38 47 50 42 35 34 32 33 30 24 23 22 20 18 17 16 12 14 15 18 20 18 16 10 11 12 11 15
24 24 22 17 17 33 40 38 28 35 32 43 45 47 45 36 41 44 45 47 43 44 41 40 37 32 29 23 22 22 18 16 13 15 13 12 13 15 17 14 12 8 7 10 12 11 15
24 22 23 22 16 22 28 26 52 45 38 40 45 45 48 41 41 43 37 40 39 36 33 34 33 29 23 20 20 16 14 12 11 13 12 12 13 13 12 4 10 8 8 8 6 7 7
22 19 24 25 20 20 24 19 32 45 32 42 28 37 45 44 43 38 34 34 32 33 33 33 28 21 20 18 16 14 12 9 9 11 12 13 12 13 11 8 12 12 7 9 7 7 6
21 18 22 26 23 21 28 29 28 28 36 24 31 37 39 35 36 29 31 32 30 30 28 23 24 22 19 17 13 11 9 8 9 11 13 16 15 16 18 16 12 9 10 14 12 12 8
20 17 19 23 21 22 23 31 34 33 33 34 33 33 32 33 31 29 30 30 31 34 32 29 21 19 17 13 11 8 8 8 10 12 14 17 19 17 21 21 16 12 13 16 16 17 16
20 18 19 19 23 27 30 31 33 32 31 32 34 36 34 30 29 28 27 30 30 28 23 20 20 16 14 12 9 7 6 9 9 11 14 18 21 20 20 21 19 17 15 17 17 17 17
20 20 20 24 32 29 24 27 26 27 32 34 36 35 32 30 29 28 30 30 28 25 21 20 18 15 12 11 9 7 7 9 9 11 14 16 21 23 23 20 18 18 18 17 17 17 15
20 22 22 33 34 28 25 24 23 27 34 36 36 35 33 32 31 28 31 32 29 23 20 18 16 13 12 10 9 8 8 9 10 11 13 17 18 20 22 23 21 19 19 20 15 14 11
22 26 27 39 36 27 25 25 31 35 36 34 34 33 30 30 27 28 31 30 26 21 19 17 14 12 10 9 9 8 9 10 11 12 13 14 16 17 23 22 25 23 22 22 18 15 14

GFSGBSN_500_spd_129.txt.gz
Wind_Speed
46 46 44 41 41 40 39 36 33 34 32 32 30 28 28 26 27 25 23 23 25 23 24 25 23 22 23 20 18 19 20 22 21 22 24 25 26 27 28 30 34 36 35 37 38 39 42
50 49 49 46 44 44 44 43 42 40 38 37 36 34 33 32 31 28 29 28 27 28 26 26 25 23 23 22 23 23 25 23 23 21 21 25 27 28 29 31 33 37 37 39 41 43 44
53 54 53 51 50 50 50 48 48 46 46 45 44 43 41 38 38 36 32 33 33 32 33 31 30 28 28 24 24 24 24 26 22 22 27 30 29 30 32 35 37 40 41 42 44 46 47
60 59 59 58 58 56 56 55 56 54 54 52 49 49 49 46 44 44 41 38 37 38 38 36 35 35 35 32 30 27 26 26 29 32 32 32 33 35 37 40 43 43 45 47 52 52 49
67 65 64 64 64 63 61 61 61 62 62 60 57 55 54 54 52 50 50 47 45 43 45 42 42 41 42 37 37 34 33 32 32 32 34 34 36 38 39 41 41 43 44 46 47 51 53
71 70 70 69 67 67 67 66 65 66 65 66 63 61 59 61 57 57 55 53 53 50 49 50 47 45 43 42 40 38 36 35 35 36 36 38 41 41 40 39 39 38 42 44 46 46 49
75 75 73 72 71 70 71 70 69 68 67 68 67 66 63 64 63 62 62 62 58 57 55 54 53 51 49 46 45 44 42 41 38 39 40 41 44 45 42 42 41 41 41 43 46 49 50
77 77 77 76 75 72 71 70 72 71 67 69 69 68 68 68 67 66 65 65 66 63 59 58 57 56 53 52 51 49 45 44 42 43 44 47 45 43 42 41 40 41 42 45 50 53 55
75 75 74 74 72 71 70 70 72 71 70 69 69 70 71 73 72 71 68 68 64 63 59 61 55 57 56 52 53 53 49 47 46 45 45 45 46 43 41 40 40 41 43 47 51 54 57
65 65 66 67 67 67 67 67 68 67 67 69 70 72 73 72 73 72 68 66 61 59 63 64 55 55 59 53 52 54 50 48 47 45 44 44 44 41 39 39 40 42 46 48 51 50 48
61 60 60 60 61 63 63 66 68 70 72 71 71 70 64 62 63 67 63 62 49 50 62 61 57 50 49 52 52 49 50 49 44 42 40 42 38 37 37 38 40 44 46 47 44 41 45
61 61 59 59 59 60 60 61 64 66 68 63 59 52 48 49 54 54 54 56 54 53 62 53 60 52 50 47 48 48 49 46 42 40 38 37 36 35 35 37 41 43 41 38 32 34 37
63 61 60 59 58 60 60 61 60 59 58 56 50 44 45 47 45 40 41 48 54 60 53 56 41 52 50 46 49 44 42 43 39 37 36 36 35 34 34 37 39 37 34 24 28 25 15
61 61 60 58 61 62 64 64 63 60 58 56 52 47 49 51 47 42 38 44 54 57 64 55 52 41 50 52 46 42 38 39 34 32 35 35 33 30 32 33 34 35 22 21 26 24 22
54 55 56 54 56 59 61 60 61 63 62 60 59 54 55 53 49 47 46 56 45 48 56 55 56 55 48 49 44 40 37 37 33 31 32 30 30 29 31 31 28 26 19 25 27 24 19
51 52 52 50 51 54 55 51 51 52 55 61 62 57 55 51 49 49 51 51 47 47 55 45 51 45 48 39 41 43 40 38 30 28 28 26 27 27 29 28 24 17 23 25 24 23 20
48 49 47 44 43 47 43 41 41 45 52 51 55 58 53 52 51 53 53 51 48 48 54 59 56 57 46 47 37 36 38 31 29 25 25 23 23 25 25 24 20 16 24 23 22 23 24
45 46 45 41 35 41 35 36 46 50 51 55 55 57 52 51 54 55 53 55 48 45 47 50 52 41 39 40 34 36 28 28 23 23 22 20 22 22 21 21 18 21 25 23 21 18 18
44 45 44 37 30 34 30 32 34 39 41 44 51 50 49 48 51 52 49 52 43 46 39 39 55 47 38 36 34 28 28 24 23 20 21 21 20 19 22 18 20 25 25 24 23 19 16
43 42 39 30 22 14 15 23 26 33 38 37 42 46 47 51 52 45 47 44 49 49 44 40 40 43 38 38 26 24 23 22 18 20 19 20 17 18 18 19 23 24 24 22 23 19 17
39 38 31 28 19 24 17 21 23 28 33 37 39 37 36 41 47 47 52 39 47 41 40 39 40 44 37 24 24 22 21 18 19 20 18 15 15 17 17 17 21 24 22 19 22 20 23
37 32 28 25 20 21 31 26 29 29 30 30 29 29 27 33 38 42 46 48 47 44 41 40 40 38 35 25 23 19 20 18 19 18 14 13 14 15 16 17 15 15 14 16 17 19 23
33 31 25 23 22 20 23 30 32 23 26 30 28 27 27 34 37 40 40 40 40 48 49 48 47 45 37 30 26 18 17 17 15 14 12 12 14 14 16 17 18 15 9 16 16 15 8
30 28 23 23 24 25 27 31 32 46 48 45 37 39 44 39 38 38 40 35 37 43 42 38 37 39 31 24 19 18 16 15 14 13 11 11 13 15 16 19 21 17 11 10 14 16 12
28 24 22 24 26 27 26 29 33 34 45 44 39 39 39 33 35 39 39 35 36 34 33 32 30 26 25 22 21 18 16 14 13 11 9 10 13 18 17 18 23 19 15 13 14 17 20
26 22 22 26 29 28 27 30 34 36 37 37 34 39 38 32 30 27 31 33 30 31 29 31 35 29 25 23 20 17 14 13 11 10 9 10 12 17 21 22 24 24 24 21 19 22 22
25 22 22 27 27 29 31 34 36 34 36 38 35 36 34 33 32 33 28 26 29 29 32 32 29 25 24 22 20 17 13 11 10 10 10 11 14 16 20 25 29 24 24 25 21 21 22
24 22 24 23 30 31 33 34 34 31 34 34 32 31 32 33 33 28 24 24 26 26 29 29 27 25 23 21 18 14 12 10 9 9 11 13 15 19 22 25 28 26 25 24 23 22 23
25 24 26 24 34 35 32 29 27 30 31 30 30 30 34 30 25 27 26 27 31 32 27 28 25 24 22 18 16 12 10 9 9 10 13 15 17 20 23 24 27 28 28 25 21 21 24